<?xml version="1.0" encoding="UTF-8" standalone="no" ?>
<gpx xmlns="http://www.topografix.com/GPX/1/1" xmlns:xsi="http://www.w3.org/2001/XMLSchema-instance" xsi:schemaLocation="http://www.topografix.com/GPX/1/1 http://www.topografix.com/GPX/1/1/gpx.xsd" version="1.1" creator="VisuGPX - https://www.visugpx.com">
  <metadata>
    <name>RANDO LE SAUVAGE 43170 SAINT PAUL LE FROID 27KM</name>
    <desc><![CDATA[RANDO LE SAUVAGE SAINT PAUL LE FROID 27 KM.DEPART ARRIVEE LE SAUVAGE.LA BARTHE.LES MERLES.COMBES.SAINT PAUL LE FROID.LA CHAYLA D'ANCE.MOULINDE CHARRAIX.BRENAC .]]></desc>
  </metadata>
  <trk>
    <name><![CDATA[2024-10-30 15:55:22]]></name>
    <extensions>
      <line xmlns="http://www.topografix.com/GPX/gpx_style/0/2">
        <color>0000FF</color>
        <width>4</width>
      </line>
    </extensions>
    <trkseg>
      <trkpt lat="44.82443" lon="3.48754">
        <ele>1295.03</ele>
        <time>2024-10-30T08:31:51Z</time>
      </trkpt>
      <trkpt lat="44.82434" lon="3.48747">
        <ele>1294.55</ele>
        <time>2024-10-30T08:32:07Z</time>
      </trkpt>
      <trkpt lat="44.82432" lon="3.48745">
        <ele>1294.55</ele>
        <time>2024-10-30T08:32:10Z</time>
      </trkpt>
      <trkpt lat="44.82413" lon="3.48749">
        <ele>1293.59</ele>
        <time>2024-10-30T08:32:30Z</time>
      </trkpt>
      <trkpt lat="44.82404" lon="3.48751">
        <ele>1291.19</ele>
        <time>2024-10-30T08:32:45Z</time>
      </trkpt>
      <trkpt lat="44.82394" lon="3.48754">
        <ele>1290.71</ele>
        <time>2024-10-30T08:32:57Z</time>
      </trkpt>
      <trkpt lat="44.82375" lon="3.48755">
        <ele>1288.78</ele>
        <time>2024-10-30T08:33:14Z</time>
      </trkpt>
      <trkpt lat="44.82358" lon="3.48757">
        <ele>1289.27</ele>
        <time>2024-10-30T08:33:30Z</time>
      </trkpt>
      <trkpt lat="44.8234" lon="3.48755">
        <ele>1289.27</ele>
        <time>2024-10-30T08:33:45Z</time>
      </trkpt>
      <trkpt lat="44.82322" lon="3.48746">
        <ele>1290.23</ele>
        <time>2024-10-30T08:34:01Z</time>
      </trkpt>
      <trkpt lat="44.82321" lon="3.48745">
        <ele>1290.23</ele>
        <time>2024-10-30T08:34:02Z</time>
      </trkpt>
      <trkpt lat="44.82315" lon="3.48722">
        <ele>1289.75</ele>
        <time>2024-10-30T08:34:18Z</time>
      </trkpt>
      <trkpt lat="44.82318" lon="3.48718">
        <ele>1289.27</ele>
        <time>2024-10-30T08:34:30Z</time>
      </trkpt>
      <trkpt lat="44.82317" lon="3.48715">
        <ele>1289.27</ele>
        <time>2024-10-30T08:34:34Z</time>
      </trkpt>
      <trkpt lat="44.82318" lon="3.48693">
        <ele>1288.3</ele>
        <time>2024-10-30T08:34:46Z</time>
      </trkpt>
      <trkpt lat="44.82319" lon="3.48663">
        <ele>1285.42</ele>
        <time>2024-10-30T08:35:03Z</time>
      </trkpt>
      <trkpt lat="44.82321" lon="3.48629">
        <ele>1280.13</ele>
        <time>2024-10-30T08:35:23Z</time>
      </trkpt>
      <trkpt lat="44.82322" lon="3.48625">
        <ele>1279.17</ele>
        <time>2024-10-30T08:35:25Z</time>
      </trkpt>
      <trkpt lat="44.82324" lon="3.48585">
        <ele>1273.88</ele>
        <time>2024-10-30T08:35:44Z</time>
      </trkpt>
      <trkpt lat="44.82326" lon="3.48553">
        <ele>1270.04</ele>
        <time>2024-10-30T08:36:01Z</time>
      </trkpt>
      <trkpt lat="44.82329" lon="3.48528">
        <ele>1269.08</ele>
        <time>2024-10-30T08:36:17Z</time>
      </trkpt>
      <trkpt lat="44.82331" lon="3.48498">
        <ele>1266.19</ele>
        <time>2024-10-30T08:36:38Z</time>
      </trkpt>
      <trkpt lat="44.8233" lon="3.48456">
        <ele>1265.23</ele>
        <time>2024-10-30T08:36:58Z</time>
      </trkpt>
      <trkpt lat="44.82327" lon="3.48418">
        <ele>1267.16</ele>
        <time>2024-10-30T08:37:17Z</time>
      </trkpt>
      <trkpt lat="44.8232" lon="3.48392">
        <ele>1272.92</ele>
        <time>2024-10-30T08:37:33Z</time>
      </trkpt>
      <trkpt lat="44.82311" lon="3.48364">
        <ele>1279.65</ele>
        <time>2024-10-30T08:37:49Z</time>
      </trkpt>
      <trkpt lat="44.82309" lon="3.48354">
        <ele>1282.06</ele>
        <time>2024-10-30T08:37:54Z</time>
      </trkpt>
      <trkpt lat="44.82306" lon="3.48346">
        <ele>1283.98</ele>
        <time>2024-10-30T08:37:59Z</time>
      </trkpt>
      <trkpt lat="44.82298" lon="3.48318">
        <ele>1290.23</ele>
        <time>2024-10-30T08:38:16Z</time>
      </trkpt>
      <trkpt lat="44.82282" lon="3.48288">
        <ele>1293.11</ele>
        <time>2024-10-30T08:38:37Z</time>
      </trkpt>
      <trkpt lat="44.82265" lon="3.48266">
        <ele>1291.67</ele>
        <time>2024-10-30T08:38:55Z</time>
      </trkpt>
      <trkpt lat="44.82244" lon="3.48239">
        <ele>1292.15</ele>
        <time>2024-10-30T08:39:14Z</time>
      </trkpt>
      <trkpt lat="44.82224" lon="3.48213">
        <ele>1293.59</ele>
        <time>2024-10-30T08:39:35Z</time>
      </trkpt>
      <trkpt lat="44.82206" lon="3.48188">
        <ele>1295.99</ele>
        <time>2024-10-30T08:39:54Z</time>
      </trkpt>
      <trkpt lat="44.82198" lon="3.48152">
        <ele>1295.03</ele>
        <time>2024-10-30T08:40:13Z</time>
      </trkpt>
      <trkpt lat="44.82195" lon="3.48132">
        <ele>1295.03</ele>
        <time>2024-10-30T08:40:23Z</time>
      </trkpt>
      <trkpt lat="44.82195" lon="3.48128">
        <ele>1295.03</ele>
        <time>2024-10-30T08:40:25Z</time>
      </trkpt>
      <trkpt lat="44.82193" lon="3.4811">
        <ele>1294.55</ele>
        <time>2024-10-30T08:40:34Z</time>
      </trkpt>
      <trkpt lat="44.82192" lon="3.48108">
        <ele>1294.55</ele>
        <time>2024-10-30T08:40:35Z</time>
      </trkpt>
      <trkpt lat="44.82193" lon="3.48106">
        <ele>1295.03</ele>
        <time>2024-10-30T08:40:36Z</time>
      </trkpt>
      <trkpt lat="44.8219" lon="3.48086">
        <ele>1296.96</ele>
        <time>2024-10-30T08:40:51Z</time>
      </trkpt>
      <trkpt lat="44.82181" lon="3.48077">
        <ele>1298.88</ele>
        <time>2024-10-30T08:41:05Z</time>
      </trkpt>
      <trkpt lat="44.82173" lon="3.48065">
        <ele>1300.32</ele>
        <time>2024-10-30T08:41:17Z</time>
      </trkpt>
      <trkpt lat="44.82158" lon="3.48052">
        <ele>1302.72</ele>
        <time>2024-10-30T08:41:38Z</time>
      </trkpt>
      <trkpt lat="44.82146" lon="3.48041">
        <ele>1305.13</ele>
        <time>2024-10-30T08:41:54Z</time>
      </trkpt>
      <trkpt lat="44.82132" lon="3.4803">
        <ele>1305.61</ele>
        <time>2024-10-30T08:42:12Z</time>
      </trkpt>
      <trkpt lat="44.82117" lon="3.4802">
        <ele>1306.57</ele>
        <time>2024-10-30T08:42:30Z</time>
      </trkpt>
      <trkpt lat="44.82111" lon="3.48019">
        <ele>1307.53</ele>
        <time>2024-10-30T08:42:36Z</time>
      </trkpt>
      <trkpt lat="44.82097" lon="3.48017">
        <ele>1311.86</ele>
        <time>2024-10-30T08:42:49Z</time>
      </trkpt>
      <trkpt lat="44.82087" lon="3.48014">
        <ele>1313.3</ele>
        <time>2024-10-30T08:42:59Z</time>
      </trkpt>
      <trkpt lat="44.82076" lon="3.48011">
        <ele>1315.7</ele>
        <time>2024-10-30T08:43:11Z</time>
      </trkpt>
      <trkpt lat="44.82065" lon="3.48011">
        <ele>1317.62</ele>
        <time>2024-10-30T08:43:22Z</time>
      </trkpt>
      <trkpt lat="44.82056" lon="3.48015">
        <ele>1318.1</ele>
        <time>2024-10-30T08:43:32Z</time>
      </trkpt>
      <trkpt lat="44.82055" lon="3.48016">
        <ele>1318.59</ele>
        <time>2024-10-30T08:43:33Z</time>
      </trkpt>
      <trkpt lat="44.82053" lon="3.48018">
        <ele>1318.1</ele>
        <time>2024-10-30T08:43:35Z</time>
      </trkpt>
      <trkpt lat="44.82051" lon="3.48019">
        <ele>1317.14</ele>
        <time>2024-10-30T08:43:37Z</time>
      </trkpt>
      <trkpt lat="44.8205" lon="3.4802">
        <ele>1317.14</ele>
        <time>2024-10-30T08:43:38Z</time>
      </trkpt>
      <trkpt lat="44.82034" lon="3.48028">
        <ele>1318.59</ele>
        <time>2024-10-30T08:43:53Z</time>
      </trkpt>
      <trkpt lat="44.82032" lon="3.48027">
        <ele>1319.07</ele>
        <time>2024-10-30T08:43:54Z</time>
      </trkpt>
      <trkpt lat="44.82022" lon="3.48022">
        <ele>1320.99</ele>
        <time>2024-10-30T08:44:04Z</time>
      </trkpt>
      <trkpt lat="44.8202" lon="3.4802">
        <ele>1321.47</ele>
        <time>2024-10-30T08:44:07Z</time>
      </trkpt>
      <trkpt lat="44.82018" lon="3.48019">
        <ele>1321.47</ele>
        <time>2024-10-30T08:44:08Z</time>
      </trkpt>
      <trkpt lat="44.82008" lon="3.48017">
        <ele>1322.91</ele>
        <time>2024-10-30T08:44:17Z</time>
      </trkpt>
      <trkpt lat="44.81998" lon="3.48012">
        <ele>1323.87</ele>
        <time>2024-10-30T08:44:27Z</time>
      </trkpt>
      <trkpt lat="44.81989" lon="3.48005">
        <ele>1324.83</ele>
        <time>2024-10-30T08:44:37Z</time>
      </trkpt>
      <trkpt lat="44.81979" lon="3.48">
        <ele>1327.24</ele>
        <time>2024-10-30T08:44:46Z</time>
      </trkpt>
      <trkpt lat="44.81969" lon="3.47996">
        <ele>1329.64</ele>
        <time>2024-10-30T08:44:58Z</time>
      </trkpt>
      <trkpt lat="44.81959" lon="3.4799">
        <ele>1331.08</ele>
        <time>2024-10-30T08:45:10Z</time>
      </trkpt>
      <trkpt lat="44.81942" lon="3.47985">
        <ele>1332.52</ele>
        <time>2024-10-30T08:45:23Z</time>
      </trkpt>
      <trkpt lat="44.81932" lon="3.47978">
        <ele>1333.49</ele>
        <time>2024-10-30T08:45:35Z</time>
      </trkpt>
      <trkpt lat="44.81918" lon="3.47972">
        <ele>1333.97</ele>
        <time>2024-10-30T08:45:47Z</time>
      </trkpt>
      <trkpt lat="44.81905" lon="3.47966">
        <ele>1335.41</ele>
        <time>2024-10-30T08:45:59Z</time>
      </trkpt>
      <trkpt lat="44.81903" lon="3.47966">
        <ele>1335.41</ele>
        <time>2024-10-30T08:46:00Z</time>
      </trkpt>
      <trkpt lat="44.81902" lon="3.47965">
        <ele>1335.41</ele>
        <time>2024-10-30T08:46:01Z</time>
      </trkpt>
      <trkpt lat="44.8189" lon="3.4796">
        <ele>1336.85</ele>
        <time>2024-10-30T08:46:14Z</time>
      </trkpt>
      <trkpt lat="44.81874" lon="3.47958">
        <ele>1337.81</ele>
        <time>2024-10-30T08:46:29Z</time>
      </trkpt>
      <trkpt lat="44.81856" lon="3.47951">
        <ele>1338.29</ele>
        <time>2024-10-30T08:46:44Z</time>
      </trkpt>
      <trkpt lat="44.81834" lon="3.47944">
        <ele>1339.25</ele>
        <time>2024-10-30T08:47:02Z</time>
      </trkpt>
      <trkpt lat="44.81817" lon="3.47934">
        <ele>1341.18</ele>
        <time>2024-10-30T08:47:17Z</time>
      </trkpt>
      <trkpt lat="44.81798" lon="3.47926">
        <ele>1342.62</ele>
        <time>2024-10-30T08:47:34Z</time>
      </trkpt>
      <trkpt lat="44.81788" lon="3.47928">
        <ele>1342.14</ele>
        <time>2024-10-30T08:47:47Z</time>
      </trkpt>
      <trkpt lat="44.81769" lon="3.47916">
        <ele>1342.14</ele>
        <time>2024-10-30T08:48:00Z</time>
      </trkpt>
      <trkpt lat="44.81747" lon="3.47907">
        <ele>1343.1</ele>
        <time>2024-10-30T08:48:17Z</time>
      </trkpt>
      <trkpt lat="44.81741" lon="3.47903">
        <ele>1343.58</ele>
        <time>2024-10-30T08:48:22Z</time>
      </trkpt>
      <trkpt lat="44.81722" lon="3.47898">
        <ele>1345.02</ele>
        <time>2024-10-30T08:48:35Z</time>
      </trkpt>
      <trkpt lat="44.817" lon="3.47889">
        <ele>1343.1</ele>
        <time>2024-10-30T08:48:54Z</time>
      </trkpt>
      <trkpt lat="44.81691" lon="3.47885">
        <ele>1341.66</ele>
        <time>2024-10-30T08:49:02Z</time>
      </trkpt>
      <trkpt lat="44.81689" lon="3.47885">
        <ele>1341.18</ele>
        <time>2024-10-30T08:49:03Z</time>
      </trkpt>
      <trkpt lat="44.81688" lon="3.47884">
        <ele>1340.7</ele>
        <time>2024-10-30T08:49:04Z</time>
      </trkpt>
      <trkpt lat="44.81669" lon="3.47878">
        <ele>1338.77</ele>
        <time>2024-10-30T08:49:20Z</time>
      </trkpt>
      <trkpt lat="44.81648" lon="3.47871">
        <ele>1340.22</ele>
        <time>2024-10-30T08:49:36Z</time>
      </trkpt>
      <trkpt lat="44.81632" lon="3.47862">
        <ele>1342.62</ele>
        <time>2024-10-30T08:49:48Z</time>
      </trkpt>
      <trkpt lat="44.81613" lon="3.47854">
        <ele>1342.14</ele>
        <time>2024-10-30T08:50:05Z</time>
      </trkpt>
      <trkpt lat="44.81612" lon="3.47854">
        <ele>1341.66</ele>
        <time>2024-10-30T08:50:06Z</time>
      </trkpt>
      <trkpt lat="44.81598" lon="3.47846">
        <ele>1340.22</ele>
        <time>2024-10-30T08:50:19Z</time>
      </trkpt>
      <trkpt lat="44.81583" lon="3.47838">
        <ele>1342.14</ele>
        <time>2024-10-30T08:50:35Z</time>
      </trkpt>
      <trkpt lat="44.81561" lon="3.47828">
        <ele>1345.5</ele>
        <time>2024-10-30T08:50:54Z</time>
      </trkpt>
      <trkpt lat="44.81548" lon="3.47824">
        <ele>1347.43</ele>
        <time>2024-10-30T08:51:07Z</time>
      </trkpt>
      <trkpt lat="44.81531" lon="3.47817">
        <ele>1349.83</ele>
        <time>2024-10-30T08:51:25Z</time>
      </trkpt>
      <trkpt lat="44.8151" lon="3.47809">
        <ele>1349.35</ele>
        <time>2024-10-30T08:51:44Z</time>
      </trkpt>
      <trkpt lat="44.81493" lon="3.47801">
        <ele>1351.75</ele>
        <time>2024-10-30T08:52:00Z</time>
      </trkpt>
      <trkpt lat="44.81476" lon="3.47793">
        <ele>1357.52</ele>
        <time>2024-10-30T08:52:16Z</time>
      </trkpt>
      <trkpt lat="44.81467" lon="3.47788">
        <ele>1359.44</ele>
        <time>2024-10-30T08:52:27Z</time>
      </trkpt>
      <trkpt lat="44.81465" lon="3.47789">
        <ele>1359.92</ele>
        <time>2024-10-30T08:52:29Z</time>
      </trkpt>
      <trkpt lat="44.81456" lon="3.478">
        <ele>1361.36</ele>
        <time>2024-10-30T08:52:39Z</time>
      </trkpt>
      <trkpt lat="44.81456" lon="3.47802">
        <ele>1361.84</ele>
        <time>2024-10-30T08:52:40Z</time>
      </trkpt>
      <trkpt lat="44.81454" lon="3.47804">
        <ele>1361.84</ele>
        <time>2024-10-30T08:52:41Z</time>
      </trkpt>
      <trkpt lat="44.81453" lon="3.47805">
        <ele>1362.33</ele>
        <time>2024-10-30T08:52:42Z</time>
      </trkpt>
      <trkpt lat="44.81443" lon="3.47819">
        <ele>1364.73</ele>
        <time>2024-10-30T08:52:54Z</time>
      </trkpt>
      <trkpt lat="44.8143" lon="3.47832">
        <ele>1367.61</ele>
        <time>2024-10-30T08:53:06Z</time>
      </trkpt>
      <trkpt lat="44.81421" lon="3.47843">
        <ele>1370.98</ele>
        <time>2024-10-30T08:53:17Z</time>
      </trkpt>
      <trkpt lat="44.81412" lon="3.47856">
        <ele>1373.38</ele>
        <time>2024-10-30T08:53:27Z</time>
      </trkpt>
      <trkpt lat="44.81403" lon="3.47871">
        <ele>1375.78</ele>
        <time>2024-10-30T08:53:38Z</time>
      </trkpt>
      <trkpt lat="44.81396" lon="3.47888">
        <ele>1374.82</ele>
        <time>2024-10-30T08:53:48Z</time>
      </trkpt>
      <trkpt lat="44.81387" lon="3.47901">
        <ele>1374.82</ele>
        <time>2024-10-30T08:53:59Z</time>
      </trkpt>
      <trkpt lat="44.81377" lon="3.47915">
        <ele>1375.78</ele>
        <time>2024-10-30T08:54:11Z</time>
      </trkpt>
      <trkpt lat="44.81375" lon="3.47916">
        <ele>1375.78</ele>
        <time>2024-10-30T08:54:12Z</time>
      </trkpt>
      <trkpt lat="44.81374" lon="3.47918">
        <ele>1375.78</ele>
        <time>2024-10-30T08:54:13Z</time>
      </trkpt>
      <trkpt lat="44.81362" lon="3.47928">
        <ele>1377.23</ele>
        <time>2024-10-30T08:54:24Z</time>
      </trkpt>
      <trkpt lat="44.8135" lon="3.47939">
        <ele>1378.19</ele>
        <time>2024-10-30T08:54:36Z</time>
      </trkpt>
      <trkpt lat="44.81339" lon="3.47954">
        <ele>1379.63</ele>
        <time>2024-10-30T08:54:47Z</time>
      </trkpt>
      <trkpt lat="44.81333" lon="3.47962">
        <ele>1380.59</ele>
        <time>2024-10-30T08:54:57Z</time>
      </trkpt>
      <trkpt lat="44.81325" lon="3.47978">
        <ele>1382.03</ele>
        <time>2024-10-30T08:55:09Z</time>
      </trkpt>
      <trkpt lat="44.81315" lon="3.4799">
        <ele>1382.51</ele>
        <time>2024-10-30T08:55:19Z</time>
      </trkpt>
      <trkpt lat="44.81311" lon="3.47995">
        <ele>1382.51</ele>
        <time>2024-10-30T08:55:24Z</time>
      </trkpt>
      <trkpt lat="44.81309" lon="3.47998">
        <ele>1382.03</ele>
        <time>2024-10-30T08:55:26Z</time>
      </trkpt>
      <trkpt lat="44.81307" lon="3.48">
        <ele>1381.55</ele>
        <time>2024-10-30T08:55:27Z</time>
      </trkpt>
      <trkpt lat="44.81298" lon="3.48013">
        <ele>1380.11</ele>
        <time>2024-10-30T08:55:38Z</time>
      </trkpt>
      <trkpt lat="44.8129" lon="3.48024">
        <ele>1378.67</ele>
        <time>2024-10-30T08:55:47Z</time>
      </trkpt>
      <trkpt lat="44.81289" lon="3.48025">
        <ele>1378.67</ele>
        <time>2024-10-30T08:55:48Z</time>
      </trkpt>
      <trkpt lat="44.81287" lon="3.48027">
        <ele>1378.67</ele>
        <time>2024-10-30T08:55:49Z</time>
      </trkpt>
      <trkpt lat="44.81286" lon="3.48028">
        <ele>1378.67</ele>
        <time>2024-10-30T08:55:50Z</time>
      </trkpt>
      <trkpt lat="44.81282" lon="3.48039">
        <ele>1381.07</ele>
        <time>2024-10-30T08:55:59Z</time>
      </trkpt>
      <trkpt lat="44.81281" lon="3.48041">
        <ele>1381.07</ele>
        <time>2024-10-30T08:56:00Z</time>
      </trkpt>
      <trkpt lat="44.81281" lon="3.48043">
        <ele>1381.07</ele>
        <time>2024-10-30T08:56:01Z</time>
      </trkpt>
      <trkpt lat="44.81279" lon="3.48052">
        <ele>1382.03</ele>
        <time>2024-10-30T08:56:11Z</time>
      </trkpt>
      <trkpt lat="44.81278" lon="3.48059">
        <ele>1381.55</ele>
        <time>2024-10-30T08:56:19Z</time>
      </trkpt>
      <trkpt lat="44.81277" lon="3.48061">
        <ele>1381.07</ele>
        <time>2024-10-30T08:56:21Z</time>
      </trkpt>
      <trkpt lat="44.81277" lon="3.48063">
        <ele>1381.07</ele>
        <time>2024-10-30T08:56:22Z</time>
      </trkpt>
      <trkpt lat="44.81274" lon="3.48082">
        <ele>1380.11</ele>
        <time>2024-10-30T08:56:34Z</time>
      </trkpt>
      <trkpt lat="44.81274" lon="3.48084">
        <ele>1379.63</ele>
        <time>2024-10-30T08:56:35Z</time>
      </trkpt>
      <trkpt lat="44.8127" lon="3.48104">
        <ele>1374.82</ele>
        <time>2024-10-30T08:56:48Z</time>
      </trkpt>
      <trkpt lat="44.81267" lon="3.48133">
        <ele>1370.5</ele>
        <time>2024-10-30T08:57:07Z</time>
      </trkpt>
      <trkpt lat="44.81264" lon="3.48166">
        <ele>1364.73</ele>
        <time>2024-10-30T08:57:25Z</time>
      </trkpt>
      <trkpt lat="44.81259" lon="3.48197">
        <ele>1362.33</ele>
        <time>2024-10-30T08:57:42Z</time>
      </trkpt>
      <trkpt lat="44.81257" lon="3.48208">
        <ele>1361.36</ele>
        <time>2024-10-30T08:57:48Z</time>
      </trkpt>
      <trkpt lat="44.81253" lon="3.48233">
        <ele>1359.44</ele>
        <time>2024-10-30T08:58:03Z</time>
      </trkpt>
      <trkpt lat="44.81248" lon="3.4825">
        <ele>1357.52</ele>
        <time>2024-10-30T08:58:14Z</time>
      </trkpt>
      <trkpt lat="44.81247" lon="3.48252">
        <ele>1357.52</ele>
        <time>2024-10-30T08:58:15Z</time>
      </trkpt>
      <trkpt lat="44.81232" lon="3.48265">
        <ele>1355.6</ele>
        <time>2024-10-30T08:58:29Z</time>
      </trkpt>
      <trkpt lat="44.81218" lon="3.48275">
        <ele>1356.08</ele>
        <time>2024-10-30T08:58:43Z</time>
      </trkpt>
      <trkpt lat="44.81201" lon="3.48287">
        <ele>1356.56</ele>
        <time>2024-10-30T08:58:57Z</time>
      </trkpt>
      <trkpt lat="44.81184" lon="3.483">
        <ele>1357.52</ele>
        <time>2024-10-30T08:59:10Z</time>
      </trkpt>
      <trkpt lat="44.81171" lon="3.48312">
        <ele>1360.4</ele>
        <time>2024-10-30T08:59:24Z</time>
      </trkpt>
      <trkpt lat="44.81156" lon="3.48328">
        <ele>1363.77</ele>
        <time>2024-10-30T08:59:39Z</time>
      </trkpt>
      <trkpt lat="44.81141" lon="3.4835">
        <ele>1368.09</ele>
        <time>2024-10-30T08:59:53Z</time>
      </trkpt>
      <trkpt lat="44.81126" lon="3.48367">
        <ele>1370.02</ele>
        <time>2024-10-30T09:00:07Z</time>
      </trkpt>
      <trkpt lat="44.8111" lon="3.48384">
        <ele>1372.9</ele>
        <time>2024-10-30T09:00:21Z</time>
      </trkpt>
      <trkpt lat="44.81099" lon="3.48401">
        <ele>1375.78</ele>
        <time>2024-10-30T09:00:34Z</time>
      </trkpt>
      <trkpt lat="44.81083" lon="3.48419">
        <ele>1376.75</ele>
        <time>2024-10-30T09:00:49Z</time>
      </trkpt>
      <trkpt lat="44.81069" lon="3.4843">
        <ele>1378.19</ele>
        <time>2024-10-30T09:01:00Z</time>
      </trkpt>
      <trkpt lat="44.81054" lon="3.48439">
        <ele>1379.15</ele>
        <time>2024-10-30T09:01:12Z</time>
      </trkpt>
      <trkpt lat="44.81039" lon="3.48449">
        <ele>1378.19</ele>
        <time>2024-10-30T09:01:25Z</time>
      </trkpt>
      <trkpt lat="44.8102" lon="3.48457">
        <ele>1378.19</ele>
        <time>2024-10-30T09:01:40Z</time>
      </trkpt>
      <trkpt lat="44.81014" lon="3.48457">
        <ele>1377.23</ele>
        <time>2024-10-30T09:01:44Z</time>
      </trkpt>
      <trkpt lat="44.81007" lon="3.48456">
        <ele>1376.26</ele>
        <time>2024-10-30T09:01:48Z</time>
      </trkpt>
      <trkpt lat="44.80974" lon="3.48454">
        <ele>1371.46</ele>
        <time>2024-10-30T09:02:10Z</time>
      </trkpt>
      <trkpt lat="44.80951" lon="3.48448">
        <ele>1367.61</ele>
        <time>2024-10-30T09:02:27Z</time>
      </trkpt>
      <trkpt lat="44.80932" lon="3.4844">
        <ele>1362.81</ele>
        <time>2024-10-30T09:02:43Z</time>
      </trkpt>
      <trkpt lat="44.80914" lon="3.48433">
        <ele>1358.48</ele>
        <time>2024-10-30T09:02:57Z</time>
      </trkpt>
      <trkpt lat="44.80898" lon="3.48422">
        <ele>1357.04</ele>
        <time>2024-10-30T09:03:10Z</time>
      </trkpt>
      <trkpt lat="44.80879" lon="3.48408">
        <ele>1361.84</ele>
        <time>2024-10-30T09:03:26Z</time>
      </trkpt>
      <trkpt lat="44.80862" lon="3.48405">
        <ele>1361.36</ele>
        <time>2024-10-30T09:03:41Z</time>
      </trkpt>
      <trkpt lat="44.80845" lon="3.48406">
        <ele>1360.88</ele>
        <time>2024-10-30T09:03:55Z</time>
      </trkpt>
      <trkpt lat="44.80837" lon="3.48403">
        <ele>1358.96</ele>
        <time>2024-10-30T09:04:07Z</time>
      </trkpt>
      <trkpt lat="44.8082" lon="3.48408">
        <ele>1358</ele>
        <time>2024-10-30T09:04:23Z</time>
      </trkpt>
      <trkpt lat="44.808" lon="3.48425">
        <ele>1354.63</ele>
        <time>2024-10-30T09:04:41Z</time>
      </trkpt>
      <trkpt lat="44.80778" lon="3.48435">
        <ele>1358.48</ele>
        <time>2024-10-30T09:04:57Z</time>
      </trkpt>
      <trkpt lat="44.80774" lon="3.48433">
        <ele>1359.44</ele>
        <time>2024-10-30T09:05:01Z</time>
      </trkpt>
      <trkpt lat="44.80766" lon="3.48428">
        <ele>1359.44</ele>
        <time>2024-10-30T09:05:08Z</time>
      </trkpt>
      <trkpt lat="44.80751" lon="3.48427">
        <ele>1358.96</ele>
        <time>2024-10-30T09:05:21Z</time>
      </trkpt>
      <trkpt lat="44.80735" lon="3.48432">
        <ele>1363.29</ele>
        <time>2024-10-30T09:05:34Z</time>
      </trkpt>
      <trkpt lat="44.80734" lon="3.48431">
        <ele>1363.77</ele>
        <time>2024-10-30T09:05:35Z</time>
      </trkpt>
      <trkpt lat="44.80729" lon="3.48429">
        <ele>1366.17</ele>
        <time>2024-10-30T09:05:42Z</time>
      </trkpt>
      <trkpt lat="44.80724" lon="3.48423">
        <ele>1370.5</ele>
        <time>2024-10-30T09:05:53Z</time>
      </trkpt>
      <trkpt lat="44.80722" lon="3.48423">
        <ele>1374.34</ele>
        <time>2024-10-30T09:06:05Z</time>
      </trkpt>
      <trkpt lat="44.80723" lon="3.48423">
        <ele>1375.78</ele>
        <time>2024-10-30T09:06:18Z</time>
      </trkpt>
      <trkpt lat="44.80725" lon="3.48424">
        <ele>1375.3</ele>
        <time>2024-10-30T09:06:33Z</time>
      </trkpt>
      <trkpt lat="44.80726" lon="3.48428">
        <ele>1375.3</ele>
        <time>2024-10-30T09:06:36Z</time>
      </trkpt>
      <trkpt lat="44.80731" lon="3.48437">
        <ele>1376.75</ele>
        <time>2024-10-30T09:06:51Z</time>
      </trkpt>
      <trkpt lat="44.80732" lon="3.4844">
        <ele>1376.75</ele>
        <time>2024-10-30T09:06:55Z</time>
      </trkpt>
      <trkpt lat="44.80739" lon="3.4846">
        <ele>1375.3</ele>
        <time>2024-10-30T09:07:08Z</time>
      </trkpt>
      <trkpt lat="44.80741" lon="3.48469">
        <ele>1373.86</ele>
        <time>2024-10-30T09:07:17Z</time>
      </trkpt>
      <trkpt lat="44.80742" lon="3.48473">
        <ele>1373.86</ele>
        <time>2024-10-30T09:07:20Z</time>
      </trkpt>
      <trkpt lat="44.80743" lon="3.48475">
        <ele>1373.86</ele>
        <time>2024-10-30T09:07:21Z</time>
      </trkpt>
      <trkpt lat="44.80749" lon="3.48492">
        <ele>1373.86</ele>
        <time>2024-10-30T09:07:32Z</time>
      </trkpt>
      <trkpt lat="44.80756" lon="3.4851">
        <ele>1374.34</ele>
        <time>2024-10-30T09:07:43Z</time>
      </trkpt>
      <trkpt lat="44.8076" lon="3.48519">
        <ele>1375.78</ele>
        <time>2024-10-30T09:07:53Z</time>
      </trkpt>
      <trkpt lat="44.80767" lon="3.48537">
        <ele>1377.71</ele>
        <time>2024-10-30T09:08:05Z</time>
      </trkpt>
      <trkpt lat="44.80772" lon="3.48548">
        <ele>1377.71</ele>
        <time>2024-10-30T09:08:16Z</time>
      </trkpt>
      <trkpt lat="44.80783" lon="3.48573">
        <ele>1375.78</ele>
        <time>2024-10-30T09:08:29Z</time>
      </trkpt>
      <trkpt lat="44.80791" lon="3.4859">
        <ele>1376.26</ele>
        <time>2024-10-30T09:08:39Z</time>
      </trkpt>
      <trkpt lat="44.80798" lon="3.48606">
        <ele>1378.19</ele>
        <time>2024-10-30T09:08:50Z</time>
      </trkpt>
      <trkpt lat="44.80804" lon="3.48625">
        <ele>1379.15</ele>
        <time>2024-10-30T09:09:03Z</time>
      </trkpt>
      <trkpt lat="44.80811" lon="3.4866">
        <ele>1380.11</ele>
        <time>2024-10-30T09:09:26Z</time>
      </trkpt>
      <trkpt lat="44.80819" lon="3.48698">
        <ele>1378.67</ele>
        <time>2024-10-30T09:09:50Z</time>
      </trkpt>
      <trkpt lat="44.80829" lon="3.48737">
        <ele>1374.34</ele>
        <time>2024-10-30T09:10:12Z</time>
      </trkpt>
      <trkpt lat="44.80837" lon="3.48752">
        <ele>1373.38</ele>
        <time>2024-10-30T09:10:22Z</time>
      </trkpt>
      <trkpt lat="44.80857" lon="3.48774">
        <ele>1370.98</ele>
        <time>2024-10-30T09:10:41Z</time>
      </trkpt>
      <trkpt lat="44.80882" lon="3.48796">
        <ele>1372.42</ele>
        <time>2024-10-30T09:11:04Z</time>
      </trkpt>
      <trkpt lat="44.80883" lon="3.48802">
        <ele>1372.9</ele>
        <time>2024-10-30T09:11:07Z</time>
      </trkpt>
      <trkpt lat="44.80884" lon="3.48804">
        <ele>1372.9</ele>
        <time>2024-10-30T09:11:08Z</time>
      </trkpt>
      <trkpt lat="44.80898" lon="3.48839">
        <ele>1373.86</ele>
        <time>2024-10-30T09:11:29Z</time>
      </trkpt>
      <trkpt lat="44.80898" lon="3.48847">
        <ele>1373.86</ele>
        <time>2024-10-30T09:11:34Z</time>
      </trkpt>
      <trkpt lat="44.80889" lon="3.48885">
        <ele>1373.86</ele>
        <time>2024-10-30T09:11:57Z</time>
      </trkpt>
      <trkpt lat="44.80873" lon="3.48919">
        <ele>1377.71</ele>
        <time>2024-10-30T09:12:22Z</time>
      </trkpt>
      <trkpt lat="44.80861" lon="3.48954">
        <ele>1383.47</ele>
        <time>2024-10-30T09:12:47Z</time>
      </trkpt>
      <trkpt lat="44.8085" lon="3.4899">
        <ele>1386.36</ele>
        <time>2024-10-30T09:13:09Z</time>
      </trkpt>
      <trkpt lat="44.8084" lon="3.49031">
        <ele>1392.13</ele>
        <time>2024-10-30T09:13:32Z</time>
      </trkpt>
      <trkpt lat="44.80831" lon="3.49076">
        <ele>1394.05</ele>
        <time>2024-10-30T09:13:55Z</time>
      </trkpt>
      <trkpt lat="44.80819" lon="3.49117">
        <ele>1386.36</ele>
        <time>2024-10-30T09:14:14Z</time>
      </trkpt>
      <trkpt lat="44.80824" lon="3.4913">
        <ele>1383.96</ele>
        <time>2024-10-30T09:14:23Z</time>
      </trkpt>
      <trkpt lat="44.80835" lon="3.49143">
        <ele>1375.3</ele>
        <time>2024-10-30T09:14:37Z</time>
      </trkpt>
      <trkpt lat="44.80848" lon="3.49157">
        <ele>1368.57</ele>
        <time>2024-10-30T09:14:52Z</time>
      </trkpt>
      <trkpt lat="44.80862" lon="3.49174">
        <ele>1365.69</ele>
        <time>2024-10-30T09:15:08Z</time>
      </trkpt>
      <trkpt lat="44.80867" lon="3.4918">
        <ele>1365.21</ele>
        <time>2024-10-30T09:15:19Z</time>
      </trkpt>
      <trkpt lat="44.80867" lon="3.4918">
        <ele>1363.29</ele>
        <time>2024-10-30T09:15:33Z</time>
      </trkpt>
      <trkpt lat="44.80866" lon="3.49181">
        <ele>1363.77</ele>
        <time>2024-10-30T09:15:47Z</time>
      </trkpt>
      <trkpt lat="44.80867" lon="3.49183">
        <ele>1366.17</ele>
        <time>2024-10-30T09:16:00Z</time>
      </trkpt>
      <trkpt lat="44.80865" lon="3.49178">
        <ele>1369.54</ele>
        <time>2024-10-30T09:16:12Z</time>
      </trkpt>
      <trkpt lat="44.80862" lon="3.49188">
        <ele>1369.54</ele>
        <time>2024-10-30T09:16:24Z</time>
      </trkpt>
      <trkpt lat="44.80862" lon="3.4919">
        <ele>1370.02</ele>
        <time>2024-10-30T09:16:35Z</time>
      </trkpt>
      <trkpt lat="44.80865" lon="3.49188">
        <ele>1372.9</ele>
        <time>2024-10-30T09:16:51Z</time>
      </trkpt>
      <trkpt lat="44.80864" lon="3.49193">
        <ele>1381.07</ele>
        <time>2024-10-30T09:17:16Z</time>
      </trkpt>
      <trkpt lat="44.80861" lon="3.4922">
        <ele>1378.67</ele>
        <time>2024-10-30T09:17:30Z</time>
      </trkpt>
      <trkpt lat="44.80859" lon="3.49248">
        <ele>1378.67</ele>
        <time>2024-10-30T09:17:47Z</time>
      </trkpt>
      <trkpt lat="44.80859" lon="3.4925">
        <ele>1378.67</ele>
        <time>2024-10-30T09:17:48Z</time>
      </trkpt>
      <trkpt lat="44.80854" lon="3.49282">
        <ele>1378.67</ele>
        <time>2024-10-30T09:18:05Z</time>
      </trkpt>
      <trkpt lat="44.80848" lon="3.49314">
        <ele>1382.51</ele>
        <time>2024-10-30T09:18:24Z</time>
      </trkpt>
      <trkpt lat="44.80846" lon="3.49346">
        <ele>1385.88</ele>
        <time>2024-10-30T09:18:43Z</time>
      </trkpt>
      <trkpt lat="44.80845" lon="3.49373">
        <ele>1385.88</ele>
        <time>2024-10-30T09:19:01Z</time>
      </trkpt>
      <trkpt lat="44.80844" lon="3.49404">
        <ele>1389.24</ele>
        <time>2024-10-30T09:19:17Z</time>
      </trkpt>
      <trkpt lat="44.80844" lon="3.49429">
        <ele>1394.53</ele>
        <time>2024-10-30T09:19:32Z</time>
      </trkpt>
      <trkpt lat="44.80843" lon="3.49437">
        <ele>1397.41</ele>
        <time>2024-10-30T09:19:39Z</time>
      </trkpt>
      <trkpt lat="44.8084" lon="3.49451">
        <ele>1398.86</ele>
        <time>2024-10-30T09:19:50Z</time>
      </trkpt>
      <trkpt lat="44.80838" lon="3.49468">
        <ele>1400.3</ele>
        <time>2024-10-30T09:20:02Z</time>
      </trkpt>
      <trkpt lat="44.80839" lon="3.49482">
        <ele>1402.22</ele>
        <time>2024-10-30T09:20:14Z</time>
      </trkpt>
      <trkpt lat="44.80838" lon="3.49501">
        <ele>1404.62</ele>
        <time>2024-10-30T09:20:27Z</time>
      </trkpt>
      <trkpt lat="44.80838" lon="3.49514">
        <ele>1408.47</ele>
        <time>2024-10-30T09:20:41Z</time>
      </trkpt>
      <trkpt lat="44.80837" lon="3.49526">
        <ele>1412.79</ele>
        <time>2024-10-30T09:20:54Z</time>
      </trkpt>
      <trkpt lat="44.80836" lon="3.49536">
        <ele>1413.76</ele>
        <time>2024-10-30T09:21:04Z</time>
      </trkpt>
      <trkpt lat="44.80822" lon="3.49545">
        <ele>1425.29</ele>
        <time>2024-10-30T09:21:16Z</time>
      </trkpt>
      <trkpt lat="44.80813" lon="3.4955">
        <ele>1430.58</ele>
        <time>2024-10-30T09:21:25Z</time>
      </trkpt>
      <trkpt lat="44.80803" lon="3.49557">
        <ele>1433.94</ele>
        <time>2024-10-30T09:21:35Z</time>
      </trkpt>
      <trkpt lat="44.80788" lon="3.49567">
        <ele>1438.27</ele>
        <time>2024-10-30T09:21:47Z</time>
      </trkpt>
      <trkpt lat="44.80775" lon="3.49575">
        <ele>1441.15</ele>
        <time>2024-10-30T09:21:57Z</time>
      </trkpt>
      <trkpt lat="44.80765" lon="3.49581">
        <ele>1444.04</ele>
        <time>2024-10-30T09:22:07Z</time>
      </trkpt>
      <trkpt lat="44.80762" lon="3.49583">
        <ele>1444.52</ele>
        <time>2024-10-30T09:22:10Z</time>
      </trkpt>
      <trkpt lat="44.80751" lon="3.49595">
        <ele>1445.48</ele>
        <time>2024-10-30T09:22:20Z</time>
      </trkpt>
      <trkpt lat="44.80736" lon="3.49608">
        <ele>1444.52</ele>
        <time>2024-10-30T09:22:31Z</time>
      </trkpt>
      <trkpt lat="44.8072" lon="3.49623">
        <ele>1441.63</ele>
        <time>2024-10-30T09:22:43Z</time>
      </trkpt>
      <trkpt lat="44.8071" lon="3.49636">
        <ele>1441.15</ele>
        <time>2024-10-30T09:22:55Z</time>
      </trkpt>
      <trkpt lat="44.80699" lon="3.49648">
        <ele>1441.15</ele>
        <time>2024-10-30T09:23:06Z</time>
      </trkpt>
      <trkpt lat="44.80691" lon="3.49661">
        <ele>1440.67</ele>
        <time>2024-10-30T09:23:15Z</time>
      </trkpt>
      <trkpt lat="44.8069" lon="3.49663">
        <ele>1440.67</ele>
        <time>2024-10-30T09:23:16Z</time>
      </trkpt>
      <trkpt lat="44.80688" lon="3.49665">
        <ele>1440.67</ele>
        <time>2024-10-30T09:23:17Z</time>
      </trkpt>
      <trkpt lat="44.80678" lon="3.49677">
        <ele>1441.63</ele>
        <time>2024-10-30T09:23:27Z</time>
      </trkpt>
      <trkpt lat="44.80676" lon="3.4968">
        <ele>1441.63</ele>
        <time>2024-10-30T09:23:39Z</time>
      </trkpt>
      <trkpt lat="44.80675" lon="3.49681">
        <ele>1441.63</ele>
        <time>2024-10-30T09:23:40Z</time>
      </trkpt>
      <trkpt lat="44.80672" lon="3.49685">
        <ele>1441.15</ele>
        <time>2024-10-30T09:23:49Z</time>
      </trkpt>
      <trkpt lat="44.80671" lon="3.49687">
        <ele>1441.63</ele>
        <time>2024-10-30T09:23:50Z</time>
      </trkpt>
      <trkpt lat="44.80659" lon="3.49703">
        <ele>1441.15</ele>
        <time>2024-10-30T09:24:01Z</time>
      </trkpt>
      <trkpt lat="44.8065" lon="3.49718">
        <ele>1437.79</ele>
        <time>2024-10-30T09:24:13Z</time>
      </trkpt>
      <trkpt lat="44.80639" lon="3.49735">
        <ele>1435.87</ele>
        <time>2024-10-30T09:24:25Z</time>
      </trkpt>
      <trkpt lat="44.80629" lon="3.49751">
        <ele>1434.91</ele>
        <time>2024-10-30T09:24:38Z</time>
      </trkpt>
      <trkpt lat="44.80615" lon="3.4977">
        <ele>1434.42</ele>
        <time>2024-10-30T09:24:51Z</time>
      </trkpt>
      <trkpt lat="44.80614" lon="3.49771">
        <ele>1434.42</ele>
        <time>2024-10-30T09:24:52Z</time>
      </trkpt>
      <trkpt lat="44.80613" lon="3.49773">
        <ele>1434.91</ele>
        <time>2024-10-30T09:24:53Z</time>
      </trkpt>
      <trkpt lat="44.806" lon="3.49791">
        <ele>1436.83</ele>
        <time>2024-10-30T09:25:08Z</time>
      </trkpt>
      <trkpt lat="44.8059" lon="3.49802">
        <ele>1439.23</ele>
        <time>2024-10-30T09:25:22Z</time>
      </trkpt>
      <trkpt lat="44.80578" lon="3.49819">
        <ele>1443.08</ele>
        <time>2024-10-30T09:25:37Z</time>
      </trkpt>
      <trkpt lat="44.80567" lon="3.49817">
        <ele>1445.96</ele>
        <time>2024-10-30T09:25:52Z</time>
      </trkpt>
      <trkpt lat="44.80554" lon="3.49828">
        <ele>1446.92</ele>
        <time>2024-10-30T09:26:09Z</time>
      </trkpt>
      <trkpt lat="44.80537" lon="3.49842">
        <ele>1449.32</ele>
        <time>2024-10-30T09:26:27Z</time>
      </trkpt>
      <trkpt lat="44.80519" lon="3.49854">
        <ele>1450.77</ele>
        <time>2024-10-30T09:26:42Z</time>
      </trkpt>
      <trkpt lat="44.80505" lon="3.49861">
        <ele>1451.73</ele>
        <time>2024-10-30T09:26:55Z</time>
      </trkpt>
      <trkpt lat="44.80489" lon="3.49877">
        <ele>1450.77</ele>
        <time>2024-10-30T09:27:09Z</time>
      </trkpt>
      <trkpt lat="44.80477" lon="3.49889">
        <ele>1453.65</ele>
        <time>2024-10-30T09:27:22Z</time>
      </trkpt>
      <trkpt lat="44.80467" lon="3.49908">
        <ele>1455.57</ele>
        <time>2024-10-30T09:27:34Z</time>
      </trkpt>
      <trkpt lat="44.80453" lon="3.49923">
        <ele>1457.5</ele>
        <time>2024-10-30T09:27:47Z</time>
      </trkpt>
      <trkpt lat="44.80446" lon="3.49941">
        <ele>1457.98</ele>
        <time>2024-10-30T09:27:59Z</time>
      </trkpt>
      <trkpt lat="44.80438" lon="3.49961">
        <ele>1457.02</ele>
        <time>2024-10-30T09:28:12Z</time>
      </trkpt>
      <trkpt lat="44.80429" lon="3.4998">
        <ele>1459.42</ele>
        <time>2024-10-30T09:28:25Z</time>
      </trkpt>
      <trkpt lat="44.80425" lon="3.5">
        <ele>1458.46</ele>
        <time>2024-10-30T09:28:36Z</time>
      </trkpt>
      <trkpt lat="44.80418" lon="3.50022">
        <ele>1446.92</ele>
        <time>2024-10-30T09:28:48Z</time>
      </trkpt>
      <trkpt lat="44.80405" lon="3.50043">
        <ele>1442.6</ele>
        <time>2024-10-30T09:29:00Z</time>
      </trkpt>
      <trkpt lat="44.80403" lon="3.50051">
        <ele>1442.6</ele>
        <time>2024-10-30T09:29:06Z</time>
      </trkpt>
      <trkpt lat="44.80403" lon="3.50053">
        <ele>1442.6</ele>
        <time>2024-10-30T09:29:07Z</time>
      </trkpt>
      <trkpt lat="44.80406" lon="3.5007">
        <ele>1440.19</ele>
        <time>2024-10-30T09:29:20Z</time>
      </trkpt>
      <trkpt lat="44.80406" lon="3.50072">
        <ele>1439.23</ele>
        <time>2024-10-30T09:29:22Z</time>
      </trkpt>
      <trkpt lat="44.80403" lon="3.50082">
        <ele>1435.87</ele>
        <time>2024-10-30T09:29:29Z</time>
      </trkpt>
      <trkpt lat="44.80402" lon="3.50084">
        <ele>1435.87</ele>
        <time>2024-10-30T09:29:30Z</time>
      </trkpt>
      <trkpt lat="44.80394" lon="3.50095">
        <ele>1435.39</ele>
        <time>2024-10-30T09:29:40Z</time>
      </trkpt>
      <trkpt lat="44.80387" lon="3.5011">
        <ele>1432.5</ele>
        <time>2024-10-30T09:29:50Z</time>
      </trkpt>
      <trkpt lat="44.8038" lon="3.50123">
        <ele>1428.66</ele>
        <time>2024-10-30T09:30:03Z</time>
      </trkpt>
      <trkpt lat="44.80378" lon="3.50123">
        <ele>1428.18</ele>
        <time>2024-10-30T09:30:04Z</time>
      </trkpt>
      <trkpt lat="44.80375" lon="3.50118">
        <ele>1427.7</ele>
        <time>2024-10-30T09:30:09Z</time>
      </trkpt>
      <trkpt lat="44.80374" lon="3.50115">
        <ele>1427.21</ele>
        <time>2024-10-30T09:30:11Z</time>
      </trkpt>
      <trkpt lat="44.80361" lon="3.50095">
        <ele>1422.41</ele>
        <time>2024-10-30T09:30:27Z</time>
      </trkpt>
      <trkpt lat="44.80357" lon="3.50086">
        <ele>1419.04</ele>
        <time>2024-10-30T09:30:36Z</time>
      </trkpt>
      <trkpt lat="44.80356" lon="3.50085">
        <ele>1418.56</ele>
        <time>2024-10-30T09:30:37Z</time>
      </trkpt>
      <trkpt lat="44.80355" lon="3.50083">
        <ele>1418.56</ele>
        <time>2024-10-30T09:30:38Z</time>
      </trkpt>
      <trkpt lat="44.80354" lon="3.50081">
        <ele>1418.08</ele>
        <time>2024-10-30T09:30:39Z</time>
      </trkpt>
      <trkpt lat="44.80353" lon="3.5008">
        <ele>1417.6</ele>
        <time>2024-10-30T09:30:40Z</time>
      </trkpt>
      <trkpt lat="44.80345" lon="3.50062">
        <ele>1414.24</ele>
        <time>2024-10-30T09:30:51Z</time>
      </trkpt>
      <trkpt lat="44.80336" lon="3.50042">
        <ele>1411.83</ele>
        <time>2024-10-30T09:31:03Z</time>
      </trkpt>
      <trkpt lat="44.80324" lon="3.50021">
        <ele>1410.87</ele>
        <time>2024-10-30T09:31:16Z</time>
      </trkpt>
      <trkpt lat="44.80315" lon="3.50012">
        <ele>1409.91</ele>
        <time>2024-10-30T09:31:24Z</time>
      </trkpt>
      <trkpt lat="44.80297" lon="3.50011">
        <ele>1409.43</ele>
        <time>2024-10-30T09:31:37Z</time>
      </trkpt>
      <trkpt lat="44.8028" lon="3.50021">
        <ele>1409.91</ele>
        <time>2024-10-30T09:31:50Z</time>
      </trkpt>
      <trkpt lat="44.80271" lon="3.50032">
        <ele>1410.87</ele>
        <time>2024-10-30T09:32:00Z</time>
      </trkpt>
      <trkpt lat="44.80261" lon="3.50045">
        <ele>1411.35</ele>
        <time>2024-10-30T09:32:11Z</time>
      </trkpt>
      <trkpt lat="44.80244" lon="3.50065">
        <ele>1410.39</ele>
        <time>2024-10-30T09:32:25Z</time>
      </trkpt>
      <trkpt lat="44.8023" lon="3.50079">
        <ele>1413.28</ele>
        <time>2024-10-30T09:32:37Z</time>
      </trkpt>
      <trkpt lat="44.80226" lon="3.50083">
        <ele>1413.76</ele>
        <time>2024-10-30T09:32:41Z</time>
      </trkpt>
      <trkpt lat="44.80224" lon="3.50083">
        <ele>1413.76</ele>
        <time>2024-10-30T09:32:42Z</time>
      </trkpt>
      <trkpt lat="44.80223" lon="3.50085">
        <ele>1414.24</ele>
        <time>2024-10-30T09:32:43Z</time>
      </trkpt>
      <trkpt lat="44.80222" lon="3.50086">
        <ele>1414.72</ele>
        <time>2024-10-30T09:32:44Z</time>
      </trkpt>
      <trkpt lat="44.8022" lon="3.50087">
        <ele>1414.72</ele>
        <time>2024-10-30T09:32:45Z</time>
      </trkpt>
      <trkpt lat="44.80211" lon="3.50091">
        <ele>1416.64</ele>
        <time>2024-10-30T09:32:55Z</time>
      </trkpt>
      <trkpt lat="44.80195" lon="3.50095">
        <ele>1419.04</ele>
        <time>2024-10-30T09:33:06Z</time>
      </trkpt>
      <trkpt lat="44.80179" lon="3.50095">
        <ele>1419.04</ele>
        <time>2024-10-30T09:33:19Z</time>
      </trkpt>
      <trkpt lat="44.80162" lon="3.50098">
        <ele>1419.52</ele>
        <time>2024-10-30T09:33:32Z</time>
      </trkpt>
      <trkpt lat="44.80154" lon="3.50098">
        <ele>1421.45</ele>
        <time>2024-10-30T09:33:39Z</time>
      </trkpt>
      <trkpt lat="44.80153" lon="3.50098">
        <ele>1421.45</ele>
        <time>2024-10-30T09:33:40Z</time>
      </trkpt>
      <trkpt lat="44.80131" lon="3.50102">
        <ele>1423.37</ele>
        <time>2024-10-30T09:33:55Z</time>
      </trkpt>
      <trkpt lat="44.80112" lon="3.50103">
        <ele>1421.93</ele>
        <time>2024-10-30T09:34:10Z</time>
      </trkpt>
      <trkpt lat="44.80111" lon="3.50103">
        <ele>1421.93</ele>
        <time>2024-10-30T09:34:11Z</time>
      </trkpt>
      <trkpt lat="44.80109" lon="3.50102">
        <ele>1421.93</ele>
        <time>2024-10-30T09:34:12Z</time>
      </trkpt>
      <trkpt lat="44.80108" lon="3.50102">
        <ele>1421.93</ele>
        <time>2024-10-30T09:34:13Z</time>
      </trkpt>
      <trkpt lat="44.80107" lon="3.50103">
        <ele>1422.41</ele>
        <time>2024-10-30T09:34:14Z</time>
      </trkpt>
      <trkpt lat="44.80105" lon="3.50102">
        <ele>1422.41</ele>
        <time>2024-10-30T09:34:15Z</time>
      </trkpt>
      <trkpt lat="44.80104" lon="3.50102">
        <ele>1422.41</ele>
        <time>2024-10-30T09:34:16Z</time>
      </trkpt>
      <trkpt lat="44.80103" lon="3.50102">
        <ele>1422.41</ele>
        <time>2024-10-30T09:34:17Z</time>
      </trkpt>
      <trkpt lat="44.80102" lon="3.50101">
        <ele>1422.89</ele>
        <time>2024-10-30T09:34:18Z</time>
      </trkpt>
      <trkpt lat="44.80081" lon="3.50092">
        <ele>1424.81</ele>
        <time>2024-10-30T09:34:35Z</time>
      </trkpt>
      <trkpt lat="44.80067" lon="3.50082">
        <ele>1423.85</ele>
        <time>2024-10-30T09:34:47Z</time>
      </trkpt>
      <trkpt lat="44.80055" lon="3.5007">
        <ele>1419.52</ele>
        <time>2024-10-30T09:34:59Z</time>
      </trkpt>
      <trkpt lat="44.80044" lon="3.5006">
        <ele>1419.04</ele>
        <time>2024-10-30T09:35:10Z</time>
      </trkpt>
      <trkpt lat="44.80035" lon="3.50055">
        <ele>1418.56</ele>
        <time>2024-10-30T09:35:17Z</time>
      </trkpt>
      <trkpt lat="44.80034" lon="3.50055">
        <ele>1418.56</ele>
        <time>2024-10-30T09:35:18Z</time>
      </trkpt>
      <trkpt lat="44.80032" lon="3.50055">
        <ele>1418.56</ele>
        <time>2024-10-30T09:35:19Z</time>
      </trkpt>
      <trkpt lat="44.80019" lon="3.50054">
        <ele>1419.04</ele>
        <time>2024-10-30T09:35:30Z</time>
      </trkpt>
      <trkpt lat="44.80019" lon="3.50053">
        <ele>1419.52</ele>
        <time>2024-10-30T09:35:32Z</time>
      </trkpt>
      <trkpt lat="44.80019" lon="3.50049">
        <ele>1419.04</ele>
        <time>2024-10-30T09:35:38Z</time>
      </trkpt>
      <trkpt lat="44.8002" lon="3.50045">
        <ele>1419.52</ele>
        <time>2024-10-30T09:35:50Z</time>
      </trkpt>
      <trkpt lat="44.80019" lon="3.50037">
        <ele>1419.52</ele>
        <time>2024-10-30T09:36:02Z</time>
      </trkpt>
      <trkpt lat="44.80018" lon="3.50034">
        <ele>1420.97</ele>
        <time>2024-10-30T09:36:13Z</time>
      </trkpt>
      <trkpt lat="44.8001" lon="3.50023">
        <ele>1423.37</ele>
        <time>2024-10-30T09:36:32Z</time>
      </trkpt>
      <trkpt lat="44.80006" lon="3.50011">
        <ele>1425.77</ele>
        <time>2024-10-30T09:36:58Z</time>
      </trkpt>
      <trkpt lat="44.80007" lon="3.50007">
        <ele>1422.89</ele>
        <time>2024-10-30T09:37:21Z</time>
      </trkpt>
      <trkpt lat="44.80011" lon="3.50013">
        <ele>1419.04</ele>
        <time>2024-10-30T09:37:43Z</time>
      </trkpt>
      <trkpt lat="44.80015" lon="3.50024">
        <ele>1417.6</ele>
        <time>2024-10-30T09:37:51Z</time>
      </trkpt>
      <trkpt lat="44.80015" lon="3.50039">
        <ele>1416.64</ele>
        <time>2024-10-30T09:37:58Z</time>
      </trkpt>
      <trkpt lat="44.80014" lon="3.50068">
        <ele>1415.68</ele>
        <time>2024-10-30T09:38:14Z</time>
      </trkpt>
      <trkpt lat="44.80012" lon="3.50093">
        <ele>1416.16</ele>
        <time>2024-10-30T09:38:30Z</time>
      </trkpt>
      <trkpt lat="44.80011" lon="3.50125">
        <ele>1413.76</ele>
        <time>2024-10-30T09:38:49Z</time>
      </trkpt>
      <trkpt lat="44.8001" lon="3.50147">
        <ele>1412.31</ele>
        <time>2024-10-30T09:39:00Z</time>
      </trkpt>
      <trkpt lat="44.8001" lon="3.50149">
        <ele>1412.31</ele>
        <time>2024-10-30T09:39:01Z</time>
      </trkpt>
      <trkpt lat="44.8001" lon="3.50151">
        <ele>1412.31</ele>
        <time>2024-10-30T09:39:02Z</time>
      </trkpt>
      <trkpt lat="44.80009" lon="3.50174">
        <ele>1414.72</ele>
        <time>2024-10-30T09:39:15Z</time>
      </trkpt>
      <trkpt lat="44.80007" lon="3.50185">
        <ele>1415.68</ele>
        <time>2024-10-30T09:39:25Z</time>
      </trkpt>
      <trkpt lat="44.79999" lon="3.50202">
        <ele>1416.16</ele>
        <time>2024-10-30T09:39:40Z</time>
      </trkpt>
      <trkpt lat="44.79984" lon="3.50229">
        <ele>1415.2</ele>
        <time>2024-10-30T09:39:57Z</time>
      </trkpt>
      <trkpt lat="44.79971" lon="3.5024">
        <ele>1418.56</ele>
        <time>2024-10-30T09:40:09Z</time>
      </trkpt>
      <trkpt lat="44.79966" lon="3.50239">
        <ele>1420.97</ele>
        <time>2024-10-30T09:40:15Z</time>
      </trkpt>
      <trkpt lat="44.79951" lon="3.50236">
        <ele>1422.89</ele>
        <time>2024-10-30T09:40:26Z</time>
      </trkpt>
      <trkpt lat="44.79934" lon="3.50237">
        <ele>1425.77</ele>
        <time>2024-10-30T09:40:39Z</time>
      </trkpt>
      <trkpt lat="44.79929" lon="3.50239">
        <ele>1426.25</ele>
        <time>2024-10-30T09:40:44Z</time>
      </trkpt>
      <trkpt lat="44.79927" lon="3.5024">
        <ele>1426.25</ele>
        <time>2024-10-30T09:40:45Z</time>
      </trkpt>
      <trkpt lat="44.79911" lon="3.50243">
        <ele>1425.77</ele>
        <time>2024-10-30T09:40:58Z</time>
      </trkpt>
      <trkpt lat="44.79895" lon="3.50243">
        <ele>1427.21</ele>
        <time>2024-10-30T09:41:09Z</time>
      </trkpt>
      <trkpt lat="44.79886" lon="3.50241">
        <ele>1426.73</ele>
        <time>2024-10-30T09:41:18Z</time>
      </trkpt>
      <trkpt lat="44.79885" lon="3.50241">
        <ele>1426.73</ele>
        <time>2024-10-30T09:41:19Z</time>
      </trkpt>
      <trkpt lat="44.79883" lon="3.5024">
        <ele>1426.25</ele>
        <time>2024-10-30T09:41:20Z</time>
      </trkpt>
      <trkpt lat="44.79882" lon="3.5024">
        <ele>1426.25</ele>
        <time>2024-10-30T09:41:21Z</time>
      </trkpt>
      <trkpt lat="44.79866" lon="3.50234">
        <ele>1423.85</ele>
        <time>2024-10-30T09:41:33Z</time>
      </trkpt>
      <trkpt lat="44.79845" lon="3.50227">
        <ele>1420.97</ele>
        <time>2024-10-30T09:41:48Z</time>
      </trkpt>
      <trkpt lat="44.79832" lon="3.50221">
        <ele>1418.56</ele>
        <time>2024-10-30T09:42:00Z</time>
      </trkpt>
      <trkpt lat="44.79819" lon="3.50214">
        <ele>1416.16</ele>
        <time>2024-10-30T09:42:12Z</time>
      </trkpt>
      <trkpt lat="44.79804" lon="3.50205">
        <ele>1414.72</ele>
        <time>2024-10-30T09:42:24Z</time>
      </trkpt>
      <trkpt lat="44.79792" lon="3.50197">
        <ele>1412.31</ele>
        <time>2024-10-30T09:42:36Z</time>
      </trkpt>
      <trkpt lat="44.79776" lon="3.5019">
        <ele>1409.91</ele>
        <time>2024-10-30T09:42:48Z</time>
      </trkpt>
      <trkpt lat="44.79764" lon="3.50184">
        <ele>1408.95</ele>
        <time>2024-10-30T09:43:00Z</time>
      </trkpt>
      <trkpt lat="44.79751" lon="3.50179">
        <ele>1406.07</ele>
        <time>2024-10-30T09:43:12Z</time>
      </trkpt>
      <trkpt lat="44.7975" lon="3.50179">
        <ele>1406.07</ele>
        <time>2024-10-30T09:43:13Z</time>
      </trkpt>
      <trkpt lat="44.79749" lon="3.50179">
        <ele>1405.58</ele>
        <time>2024-10-30T09:43:14Z</time>
      </trkpt>
      <trkpt lat="44.79733" lon="3.50187">
        <ele>1403.18</ele>
        <time>2024-10-30T09:43:27Z</time>
      </trkpt>
      <trkpt lat="44.79717" lon="3.50192">
        <ele>1401.74</ele>
        <time>2024-10-30T09:43:39Z</time>
      </trkpt>
      <trkpt lat="44.79707" lon="3.50209">
        <ele>1403.18</ele>
        <time>2024-10-30T09:43:50Z</time>
      </trkpt>
      <trkpt lat="44.79704" lon="3.50228">
        <ele>1404.62</ele>
        <time>2024-10-30T09:44:01Z</time>
      </trkpt>
      <trkpt lat="44.79698" lon="3.50245">
        <ele>1407.03</ele>
        <time>2024-10-30T09:44:12Z</time>
      </trkpt>
      <trkpt lat="44.7969" lon="3.50265">
        <ele>1411.83</ele>
        <time>2024-10-30T09:44:24Z</time>
      </trkpt>
      <trkpt lat="44.79684" lon="3.50282">
        <ele>1414.72</ele>
        <time>2024-10-30T09:44:36Z</time>
      </trkpt>
      <trkpt lat="44.7968" lon="3.50302">
        <ele>1416.64</ele>
        <time>2024-10-30T09:44:48Z</time>
      </trkpt>
      <trkpt lat="44.79678" lon="3.5032">
        <ele>1417.12</ele>
        <time>2024-10-30T09:44:58Z</time>
      </trkpt>
      <trkpt lat="44.79674" lon="3.50339">
        <ele>1414.72</ele>
        <time>2024-10-30T09:45:08Z</time>
      </trkpt>
      <trkpt lat="44.79669" lon="3.50358">
        <ele>1414.24</ele>
        <time>2024-10-30T09:45:17Z</time>
      </trkpt>
      <trkpt lat="44.79668" lon="3.50359">
        <ele>1414.24</ele>
        <time>2024-10-30T09:45:18Z</time>
      </trkpt>
      <trkpt lat="44.79668" lon="3.50362">
        <ele>1414.72</ele>
        <time>2024-10-30T09:45:19Z</time>
      </trkpt>
      <trkpt lat="44.79663" lon="3.50385">
        <ele>1414.24</ele>
        <time>2024-10-30T09:45:30Z</time>
      </trkpt>
      <trkpt lat="44.7966" lon="3.50404">
        <ele>1416.64</ele>
        <time>2024-10-30T09:45:41Z</time>
      </trkpt>
      <trkpt lat="44.79657" lon="3.50424">
        <ele>1420</ele>
        <time>2024-10-30T09:45:55Z</time>
      </trkpt>
      <trkpt lat="44.79653" lon="3.50445">
        <ele>1421.93</ele>
        <time>2024-10-30T09:46:06Z</time>
      </trkpt>
      <trkpt lat="44.79647" lon="3.50466">
        <ele>1421.45</ele>
        <time>2024-10-30T09:46:17Z</time>
      </trkpt>
      <trkpt lat="44.7964" lon="3.5049">
        <ele>1421.45</ele>
        <time>2024-10-30T09:46:30Z</time>
      </trkpt>
      <trkpt lat="44.79636" lon="3.50509">
        <ele>1421.93</ele>
        <time>2024-10-30T09:46:42Z</time>
      </trkpt>
      <trkpt lat="44.79631" lon="3.50531">
        <ele>1421.93</ele>
        <time>2024-10-30T09:46:54Z</time>
      </trkpt>
      <trkpt lat="44.7963" lon="3.50555">
        <ele>1421.45</ele>
        <time>2024-10-30T09:47:06Z</time>
      </trkpt>
      <trkpt lat="44.79632" lon="3.50586">
        <ele>1418.08</ele>
        <time>2024-10-30T09:47:19Z</time>
      </trkpt>
      <trkpt lat="44.79632" lon="3.50613">
        <ele>1415.2</ele>
        <time>2024-10-30T09:47:31Z</time>
      </trkpt>
      <trkpt lat="44.79632" lon="3.50635">
        <ele>1413.76</ele>
        <time>2024-10-30T09:47:44Z</time>
      </trkpt>
      <trkpt lat="44.79632" lon="3.50658">
        <ele>1411.35</ele>
        <time>2024-10-30T09:47:55Z</time>
      </trkpt>
      <trkpt lat="44.79635" lon="3.5068">
        <ele>1407.99</ele>
        <time>2024-10-30T09:48:06Z</time>
      </trkpt>
      <trkpt lat="44.79638" lon="3.50698">
        <ele>1404.14</ele>
        <time>2024-10-30T09:48:15Z</time>
      </trkpt>
      <trkpt lat="44.79644" lon="3.50719">
        <ele>1400.3</ele>
        <time>2024-10-30T09:48:26Z</time>
      </trkpt>
      <trkpt lat="44.79648" lon="3.50734">
        <ele>1397.41</ele>
        <time>2024-10-30T09:48:35Z</time>
      </trkpt>
      <trkpt lat="44.79654" lon="3.5075">
        <ele>1394.53</ele>
        <time>2024-10-30T09:48:45Z</time>
      </trkpt>
      <trkpt lat="44.79653" lon="3.50769">
        <ele>1393.09</ele>
        <time>2024-10-30T09:48:55Z</time>
      </trkpt>
      <trkpt lat="44.79652" lon="3.50791">
        <ele>1391.65</ele>
        <time>2024-10-30T09:49:08Z</time>
      </trkpt>
      <trkpt lat="44.79657" lon="3.50819">
        <ele>1389.72</ele>
        <time>2024-10-30T09:49:21Z</time>
      </trkpt>
      <trkpt lat="44.79666" lon="3.50845">
        <ele>1388.28</ele>
        <time>2024-10-30T09:49:34Z</time>
      </trkpt>
      <trkpt lat="44.79672" lon="3.50871">
        <ele>1385.88</ele>
        <time>2024-10-30T09:49:46Z</time>
      </trkpt>
      <trkpt lat="44.79675" lon="3.50893">
        <ele>1383.47</ele>
        <time>2024-10-30T09:49:58Z</time>
      </trkpt>
      <trkpt lat="44.7968" lon="3.50916">
        <ele>1382.03</ele>
        <time>2024-10-30T09:50:10Z</time>
      </trkpt>
      <trkpt lat="44.79682" lon="3.50941">
        <ele>1381.55</ele>
        <time>2024-10-30T09:50:23Z</time>
      </trkpt>
      <trkpt lat="44.79685" lon="3.50964">
        <ele>1382.99</ele>
        <time>2024-10-30T09:50:35Z</time>
      </trkpt>
      <trkpt lat="44.79685" lon="3.50988">
        <ele>1382.99</ele>
        <time>2024-10-30T09:50:47Z</time>
      </trkpt>
      <trkpt lat="44.79688" lon="3.5101">
        <ele>1382.51</ele>
        <time>2024-10-30T09:50:59Z</time>
      </trkpt>
      <trkpt lat="44.7969" lon="3.51035">
        <ele>1379.63</ele>
        <time>2024-10-30T09:51:11Z</time>
      </trkpt>
      <trkpt lat="44.79687" lon="3.51064">
        <ele>1376.26</ele>
        <time>2024-10-30T09:51:28Z</time>
      </trkpt>
      <trkpt lat="44.79682" lon="3.51084">
        <ele>1373.86</ele>
        <time>2024-10-30T09:51:41Z</time>
      </trkpt>
      <trkpt lat="44.79683" lon="3.51105">
        <ele>1372.42</ele>
        <time>2024-10-30T09:51:52Z</time>
      </trkpt>
      <trkpt lat="44.79683" lon="3.51107">
        <ele>1372.42</ele>
        <time>2024-10-30T09:51:53Z</time>
      </trkpt>
      <trkpt lat="44.79677" lon="3.51134">
        <ele>1370.02</ele>
        <time>2024-10-30T09:52:10Z</time>
      </trkpt>
      <trkpt lat="44.7968" lon="3.51165">
        <ele>1367.61</ele>
        <time>2024-10-30T09:52:26Z</time>
      </trkpt>
      <trkpt lat="44.7968" lon="3.51195">
        <ele>1366.65</ele>
        <time>2024-10-30T09:52:42Z</time>
      </trkpt>
      <trkpt lat="44.79682" lon="3.51227">
        <ele>1366.17</ele>
        <time>2024-10-30T09:52:58Z</time>
      </trkpt>
      <trkpt lat="44.79679" lon="3.51266">
        <ele>1365.21</ele>
        <time>2024-10-30T09:53:17Z</time>
      </trkpt>
      <trkpt lat="44.79674" lon="3.51305">
        <ele>1366.17</ele>
        <time>2024-10-30T09:53:39Z</time>
      </trkpt>
      <trkpt lat="44.79669" lon="3.51339">
        <ele>1369.05</ele>
        <time>2024-10-30T09:53:59Z</time>
      </trkpt>
      <trkpt lat="44.79665" lon="3.51367">
        <ele>1370.98</ele>
        <time>2024-10-30T09:54:17Z</time>
      </trkpt>
      <trkpt lat="44.79665" lon="3.5137">
        <ele>1370.98</ele>
        <time>2024-10-30T09:54:19Z</time>
      </trkpt>
      <trkpt lat="44.79665" lon="3.51381">
        <ele>1371.94</ele>
        <time>2024-10-30T09:54:25Z</time>
      </trkpt>
      <trkpt lat="44.79661" lon="3.51419">
        <ele>1374.82</ele>
        <time>2024-10-30T09:54:44Z</time>
      </trkpt>
      <trkpt lat="44.79659" lon="3.51451">
        <ele>1374.34</ele>
        <time>2024-10-30T09:55:03Z</time>
      </trkpt>
      <trkpt lat="44.79661" lon="3.51466">
        <ele>1372.9</ele>
        <time>2024-10-30T09:55:13Z</time>
      </trkpt>
      <trkpt lat="44.79663" lon="3.51508">
        <ele>1369.54</ele>
        <time>2024-10-30T09:55:33Z</time>
      </trkpt>
      <trkpt lat="44.79657" lon="3.51542">
        <ele>1366.65</ele>
        <time>2024-10-30T09:55:51Z</time>
      </trkpt>
      <trkpt lat="44.79648" lon="3.51575">
        <ele>1364.73</ele>
        <time>2024-10-30T09:56:10Z</time>
      </trkpt>
      <trkpt lat="44.79643" lon="3.51612">
        <ele>1361.36</ele>
        <time>2024-10-30T09:56:31Z</time>
      </trkpt>
      <trkpt lat="44.79637" lon="3.51645">
        <ele>1360.88</ele>
        <time>2024-10-30T09:56:52Z</time>
      </trkpt>
      <trkpt lat="44.79634" lon="3.51671">
        <ele>1360.88</ele>
        <time>2024-10-30T09:57:08Z</time>
      </trkpt>
      <trkpt lat="44.79624" lon="3.51703">
        <ele>1362.81</ele>
        <time>2024-10-30T09:57:27Z</time>
      </trkpt>
      <trkpt lat="44.79619" lon="3.51739">
        <ele>1363.77</ele>
        <time>2024-10-30T09:57:44Z</time>
      </trkpt>
      <trkpt lat="44.79607" lon="3.51768">
        <ele>1366.17</ele>
        <time>2024-10-30T09:58:04Z</time>
      </trkpt>
      <trkpt lat="44.79596" lon="3.51793">
        <ele>1366.17</ele>
        <time>2024-10-30T09:58:22Z</time>
      </trkpt>
      <trkpt lat="44.79588" lon="3.51805">
        <ele>1367.61</ele>
        <time>2024-10-30T09:58:33Z</time>
      </trkpt>
      <trkpt lat="44.79576" lon="3.51834">
        <ele>1364.25</ele>
        <time>2024-10-30T09:58:51Z</time>
      </trkpt>
      <trkpt lat="44.79576" lon="3.51856">
        <ele>1354.63</ele>
        <time>2024-10-30T09:58:58Z</time>
      </trkpt>
      <trkpt lat="44.79576" lon="3.51859">
        <ele>1354.15</ele>
        <time>2024-10-30T09:58:59Z</time>
      </trkpt>
      <trkpt lat="44.79583" lon="3.51885">
        <ele>1347.43</ele>
        <time>2024-10-30T09:59:15Z</time>
      </trkpt>
      <trkpt lat="44.79584" lon="3.51886">
        <ele>1346.94</ele>
        <time>2024-10-30T09:59:16Z</time>
      </trkpt>
      <trkpt lat="44.79585" lon="3.51888">
        <ele>1346.94</ele>
        <time>2024-10-30T09:59:17Z</time>
      </trkpt>
      <trkpt lat="44.79585" lon="3.5189">
        <ele>1346.46</ele>
        <time>2024-10-30T09:59:18Z</time>
      </trkpt>
      <trkpt lat="44.79599" lon="3.5192">
        <ele>1338.29</ele>
        <time>2024-10-30T09:59:38Z</time>
      </trkpt>
      <trkpt lat="44.79599" lon="3.51929">
        <ele>1334.45</ele>
        <time>2024-10-30T09:59:54Z</time>
      </trkpt>
      <trkpt lat="44.79607" lon="3.51942">
        <ele>1333.01</ele>
        <time>2024-10-30T10:00:09Z</time>
      </trkpt>
      <trkpt lat="44.79621" lon="3.5197">
        <ele>1331.56</ele>
        <time>2024-10-30T10:00:28Z</time>
      </trkpt>
      <trkpt lat="44.79617" lon="3.51977">
        <ele>1330.6</ele>
        <time>2024-10-30T10:00:44Z</time>
      </trkpt>
      <trkpt lat="44.79615" lon="3.51988">
        <ele>1331.08</ele>
        <time>2024-10-30T10:00:51Z</time>
      </trkpt>
      <trkpt lat="44.79614" lon="3.51989">
        <ele>1331.08</ele>
        <time>2024-10-30T10:00:52Z</time>
      </trkpt>
      <trkpt lat="44.79614" lon="3.51991">
        <ele>1331.08</ele>
        <time>2024-10-30T10:00:53Z</time>
      </trkpt>
      <trkpt lat="44.79617" lon="3.52015">
        <ele>1330.6</ele>
        <time>2024-10-30T10:01:08Z</time>
      </trkpt>
      <trkpt lat="44.79618" lon="3.52042">
        <ele>1331.56</ele>
        <time>2024-10-30T10:01:24Z</time>
      </trkpt>
      <trkpt lat="44.79621" lon="3.52055">
        <ele>1331.56</ele>
        <time>2024-10-30T10:01:32Z</time>
      </trkpt>
      <trkpt lat="44.7963" lon="3.52081">
        <ele>1331.56</ele>
        <time>2024-10-30T10:01:50Z</time>
      </trkpt>
      <trkpt lat="44.79647" lon="3.52112">
        <ele>1330.12</ele>
        <time>2024-10-30T10:02:12Z</time>
      </trkpt>
      <trkpt lat="44.79649" lon="3.52118">
        <ele>1330.12</ele>
        <time>2024-10-30T10:02:15Z</time>
      </trkpt>
      <trkpt lat="44.79648" lon="3.5212">
        <ele>1330.6</ele>
        <time>2024-10-30T10:02:16Z</time>
      </trkpt>
      <trkpt lat="44.79648" lon="3.52123">
        <ele>1330.6</ele>
        <time>2024-10-30T10:02:17Z</time>
      </trkpt>
      <trkpt lat="44.79648" lon="3.52128">
        <ele>1332.04</ele>
        <time>2024-10-30T10:02:21Z</time>
      </trkpt>
      <trkpt lat="44.79648" lon="3.52131">
        <ele>1332.04</ele>
        <time>2024-10-30T10:02:22Z</time>
      </trkpt>
      <trkpt lat="44.79649" lon="3.52134">
        <ele>1332.52</ele>
        <time>2024-10-30T10:02:23Z</time>
      </trkpt>
      <trkpt lat="44.79654" lon="3.52152">
        <ele>1335.41</ele>
        <time>2024-10-30T10:02:33Z</time>
      </trkpt>
      <trkpt lat="44.79658" lon="3.52173">
        <ele>1339.25</ele>
        <time>2024-10-30T10:02:46Z</time>
      </trkpt>
      <trkpt lat="44.7966" lon="3.5219">
        <ele>1342.62</ele>
        <time>2024-10-30T10:02:57Z</time>
      </trkpt>
      <trkpt lat="44.79661" lon="3.52203">
        <ele>1343.58</ele>
        <time>2024-10-30T10:03:05Z</time>
      </trkpt>
      <trkpt lat="44.7966" lon="3.5222">
        <ele>1345.5</ele>
        <time>2024-10-30T10:03:16Z</time>
      </trkpt>
      <trkpt lat="44.7966" lon="3.52238">
        <ele>1347.43</ele>
        <time>2024-10-30T10:03:28Z</time>
      </trkpt>
      <trkpt lat="44.79662" lon="3.52257">
        <ele>1348.87</ele>
        <time>2024-10-30T10:03:39Z</time>
      </trkpt>
      <trkpt lat="44.79663" lon="3.52264">
        <ele>1349.83</ele>
        <time>2024-10-30T10:03:44Z</time>
      </trkpt>
      <trkpt lat="44.79663" lon="3.52274">
        <ele>1351.27</ele>
        <time>2024-10-30T10:03:50Z</time>
      </trkpt>
      <trkpt lat="44.79663" lon="3.52276">
        <ele>1351.75</ele>
        <time>2024-10-30T10:03:51Z</time>
      </trkpt>
      <trkpt lat="44.79662" lon="3.52278">
        <ele>1351.75</ele>
        <time>2024-10-30T10:03:52Z</time>
      </trkpt>
      <trkpt lat="44.79658" lon="3.52292">
        <ele>1353.67</ele>
        <time>2024-10-30T10:04:02Z</time>
      </trkpt>
      <trkpt lat="44.79653" lon="3.52309">
        <ele>1355.12</ele>
        <time>2024-10-30T10:04:13Z</time>
      </trkpt>
      <trkpt lat="44.79647" lon="3.52325">
        <ele>1356.56</ele>
        <time>2024-10-30T10:04:24Z</time>
      </trkpt>
      <trkpt lat="44.79642" lon="3.52343">
        <ele>1358.96</ele>
        <time>2024-10-30T10:04:34Z</time>
      </trkpt>
      <trkpt lat="44.79636" lon="3.52358">
        <ele>1362.33</ele>
        <time>2024-10-30T10:04:45Z</time>
      </trkpt>
      <trkpt lat="44.79629" lon="3.5237">
        <ele>1364.73</ele>
        <time>2024-10-30T10:04:55Z</time>
      </trkpt>
      <trkpt lat="44.79619" lon="3.52383">
        <ele>1366.17</ele>
        <time>2024-10-30T10:05:05Z</time>
      </trkpt>
      <trkpt lat="44.79611" lon="3.52396">
        <ele>1367.13</ele>
        <time>2024-10-30T10:05:16Z</time>
      </trkpt>
      <trkpt lat="44.79606" lon="3.52409">
        <ele>1368.09</ele>
        <time>2024-10-30T10:05:24Z</time>
      </trkpt>
      <trkpt lat="44.79614" lon="3.5242">
        <ele>1367.13</ele>
        <time>2024-10-30T10:05:33Z</time>
      </trkpt>
      <trkpt lat="44.79615" lon="3.52421">
        <ele>1367.13</ele>
        <time>2024-10-30T10:05:34Z</time>
      </trkpt>
      <trkpt lat="44.79617" lon="3.52422">
        <ele>1367.13</ele>
        <time>2024-10-30T10:05:35Z</time>
      </trkpt>
      <trkpt lat="44.79626" lon="3.52432">
        <ele>1367.13</ele>
        <time>2024-10-30T10:05:44Z</time>
      </trkpt>
      <trkpt lat="44.79638" lon="3.52443">
        <ele>1368.09</ele>
        <time>2024-10-30T10:05:55Z</time>
      </trkpt>
      <trkpt lat="44.79653" lon="3.52454">
        <ele>1368.57</ele>
        <time>2024-10-30T10:06:07Z</time>
      </trkpt>
      <trkpt lat="44.7966" lon="3.52462">
        <ele>1369.05</ele>
        <time>2024-10-30T10:06:18Z</time>
      </trkpt>
      <trkpt lat="44.79669" lon="3.52471">
        <ele>1370.02</ele>
        <time>2024-10-30T10:06:30Z</time>
      </trkpt>
      <trkpt lat="44.79677" lon="3.5248">
        <ele>1370.98</ele>
        <time>2024-10-30T10:06:41Z</time>
      </trkpt>
      <trkpt lat="44.79689" lon="3.52496">
        <ele>1371.46</ele>
        <time>2024-10-30T10:06:51Z</time>
      </trkpt>
      <trkpt lat="44.7969" lon="3.52498">
        <ele>1371.46</ele>
        <time>2024-10-30T10:06:52Z</time>
      </trkpt>
      <trkpt lat="44.79691" lon="3.525">
        <ele>1371.46</ele>
        <time>2024-10-30T10:06:53Z</time>
      </trkpt>
      <trkpt lat="44.79691" lon="3.52503">
        <ele>1371.46</ele>
        <time>2024-10-30T10:06:54Z</time>
      </trkpt>
      <trkpt lat="44.79692" lon="3.52505">
        <ele>1370.98</ele>
        <time>2024-10-30T10:06:55Z</time>
      </trkpt>
      <trkpt lat="44.79693" lon="3.52507">
        <ele>1370.98</ele>
        <time>2024-10-30T10:06:56Z</time>
      </trkpt>
      <trkpt lat="44.79701" lon="3.52522">
        <ele>1370.5</ele>
        <time>2024-10-30T10:07:09Z</time>
      </trkpt>
      <trkpt lat="44.79706" lon="3.52532">
        <ele>1369.54</ele>
        <time>2024-10-30T10:07:16Z</time>
      </trkpt>
      <trkpt lat="44.79714" lon="3.5255">
        <ele>1369.05</ele>
        <time>2024-10-30T10:07:26Z</time>
      </trkpt>
      <trkpt lat="44.79721" lon="3.52563">
        <ele>1371.94</ele>
        <time>2024-10-30T10:07:37Z</time>
      </trkpt>
      <trkpt lat="44.79724" lon="3.52565">
        <ele>1372.9</ele>
        <time>2024-10-30T10:07:40Z</time>
      </trkpt>
      <trkpt lat="44.79726" lon="3.52566">
        <ele>1373.38</ele>
        <time>2024-10-30T10:07:41Z</time>
      </trkpt>
      <trkpt lat="44.7974" lon="3.5258">
        <ele>1376.26</ele>
        <time>2024-10-30T10:07:55Z</time>
      </trkpt>
      <trkpt lat="44.79741" lon="3.52584">
        <ele>1376.26</ele>
        <time>2024-10-30T10:07:57Z</time>
      </trkpt>
      <trkpt lat="44.79742" lon="3.52586">
        <ele>1376.26</ele>
        <time>2024-10-30T10:07:58Z</time>
      </trkpt>
      <trkpt lat="44.79743" lon="3.52588">
        <ele>1376.26</ele>
        <time>2024-10-30T10:07:59Z</time>
      </trkpt>
      <trkpt lat="44.79744" lon="3.52591">
        <ele>1375.78</ele>
        <time>2024-10-30T10:08:00Z</time>
      </trkpt>
      <trkpt lat="44.79745" lon="3.52594">
        <ele>1375.78</ele>
        <time>2024-10-30T10:08:01Z</time>
      </trkpt>
      <trkpt lat="44.79747" lon="3.52602">
        <ele>1374.82</ele>
        <time>2024-10-30T10:08:06Z</time>
      </trkpt>
      <trkpt lat="44.79748" lon="3.52604">
        <ele>1374.82</ele>
        <time>2024-10-30T10:08:07Z</time>
      </trkpt>
      <trkpt lat="44.79756" lon="3.52622">
        <ele>1372.42</ele>
        <time>2024-10-30T10:08:17Z</time>
      </trkpt>
      <trkpt lat="44.79757" lon="3.52623">
        <ele>1372.42</ele>
        <time>2024-10-30T10:08:18Z</time>
      </trkpt>
      <trkpt lat="44.79759" lon="3.52625">
        <ele>1372.42</ele>
        <time>2024-10-30T10:08:19Z</time>
      </trkpt>
      <trkpt lat="44.7976" lon="3.52627">
        <ele>1371.94</ele>
        <time>2024-10-30T10:08:20Z</time>
      </trkpt>
      <trkpt lat="44.7976" lon="3.52629">
        <ele>1371.94</ele>
        <time>2024-10-30T10:08:21Z</time>
      </trkpt>
      <trkpt lat="44.79762" lon="3.5263">
        <ele>1370.98</ele>
        <time>2024-10-30T10:08:25Z</time>
      </trkpt>
      <trkpt lat="44.79764" lon="3.52631">
        <ele>1370.98</ele>
        <time>2024-10-30T10:08:26Z</time>
      </trkpt>
      <trkpt lat="44.79766" lon="3.52632">
        <ele>1370.98</ele>
        <time>2024-10-30T10:08:27Z</time>
      </trkpt>
      <trkpt lat="44.79768" lon="3.52633">
        <ele>1370.98</ele>
        <time>2024-10-30T10:08:28Z</time>
      </trkpt>
      <trkpt lat="44.7977" lon="3.52634">
        <ele>1370.5</ele>
        <time>2024-10-30T10:08:29Z</time>
      </trkpt>
      <trkpt lat="44.79781" lon="3.52644">
        <ele>1370.02</ele>
        <time>2024-10-30T10:08:38Z</time>
      </trkpt>
      <trkpt lat="44.79784" lon="3.52649">
        <ele>1370.02</ele>
        <time>2024-10-30T10:08:43Z</time>
      </trkpt>
      <trkpt lat="44.7979" lon="3.5266">
        <ele>1370.5</ele>
        <time>2024-10-30T10:08:51Z</time>
      </trkpt>
      <trkpt lat="44.79792" lon="3.52662">
        <ele>1370.5</ele>
        <time>2024-10-30T10:08:52Z</time>
      </trkpt>
      <trkpt lat="44.79794" lon="3.52663">
        <ele>1370.98</ele>
        <time>2024-10-30T10:08:53Z</time>
      </trkpt>
      <trkpt lat="44.79806" lon="3.52666">
        <ele>1369.05</ele>
        <time>2024-10-30T10:09:02Z</time>
      </trkpt>
      <trkpt lat="44.79816" lon="3.52666">
        <ele>1368.09</ele>
        <time>2024-10-30T10:09:11Z</time>
      </trkpt>
      <trkpt lat="44.79817" lon="3.52665">
        <ele>1367.61</ele>
        <time>2024-10-30T10:09:12Z</time>
      </trkpt>
      <trkpt lat="44.79819" lon="3.52665">
        <ele>1367.61</ele>
        <time>2024-10-30T10:09:13Z</time>
      </trkpt>
      <trkpt lat="44.79834" lon="3.52667">
        <ele>1364.73</ele>
        <time>2024-10-30T10:09:23Z</time>
      </trkpt>
      <trkpt lat="44.7984" lon="3.52668">
        <ele>1363.29</ele>
        <time>2024-10-30T10:09:29Z</time>
      </trkpt>
      <trkpt lat="44.79856" lon="3.52661">
        <ele>1362.33</ele>
        <time>2024-10-30T10:09:40Z</time>
      </trkpt>
      <trkpt lat="44.79869" lon="3.52651">
        <ele>1362.33</ele>
        <time>2024-10-30T10:09:52Z</time>
      </trkpt>
      <trkpt lat="44.79874" lon="3.52647">
        <ele>1361.84</ele>
        <time>2024-10-30T10:09:57Z</time>
      </trkpt>
      <trkpt lat="44.79875" lon="3.52646">
        <ele>1361.84</ele>
        <time>2024-10-30T10:09:58Z</time>
      </trkpt>
      <trkpt lat="44.79877" lon="3.52645">
        <ele>1361.36</ele>
        <time>2024-10-30T10:09:59Z</time>
      </trkpt>
      <trkpt lat="44.79887" lon="3.52635">
        <ele>1359.44</ele>
        <time>2024-10-30T10:10:08Z</time>
      </trkpt>
      <trkpt lat="44.7989" lon="3.52631">
        <ele>1358.96</ele>
        <time>2024-10-30T10:10:12Z</time>
      </trkpt>
      <trkpt lat="44.79891" lon="3.52629">
        <ele>1358.96</ele>
        <time>2024-10-30T10:10:13Z</time>
      </trkpt>
      <trkpt lat="44.79892" lon="3.52627">
        <ele>1358.96</ele>
        <time>2024-10-30T10:10:14Z</time>
      </trkpt>
      <trkpt lat="44.79894" lon="3.52625">
        <ele>1358.48</ele>
        <time>2024-10-30T10:10:15Z</time>
      </trkpt>
      <trkpt lat="44.79896" lon="3.52624">
        <ele>1358.48</ele>
        <time>2024-10-30T10:10:16Z</time>
      </trkpt>
      <trkpt lat="44.79909" lon="3.52617">
        <ele>1357.52</ele>
        <time>2024-10-30T10:10:25Z</time>
      </trkpt>
      <trkpt lat="44.79913" lon="3.52614">
        <ele>1357.04</ele>
        <time>2024-10-30T10:10:31Z</time>
      </trkpt>
      <trkpt lat="44.79922" lon="3.52603">
        <ele>1356.56</ele>
        <time>2024-10-30T10:10:40Z</time>
      </trkpt>
      <trkpt lat="44.79931" lon="3.52596">
        <ele>1354.63</ele>
        <time>2024-10-30T10:10:48Z</time>
      </trkpt>
      <trkpt lat="44.79942" lon="3.52589">
        <ele>1350.79</ele>
        <time>2024-10-30T10:10:56Z</time>
      </trkpt>
      <trkpt lat="44.79953" lon="3.52581">
        <ele>1347.91</ele>
        <time>2024-10-30T10:11:08Z</time>
      </trkpt>
      <trkpt lat="44.79963" lon="3.52571">
        <ele>1346.94</ele>
        <time>2024-10-30T10:11:17Z</time>
      </trkpt>
      <trkpt lat="44.79978" lon="3.52562">
        <ele>1345.5</ele>
        <time>2024-10-30T10:11:30Z</time>
      </trkpt>
      <trkpt lat="44.79992" lon="3.52552">
        <ele>1345.02</ele>
        <time>2024-10-30T10:11:41Z</time>
      </trkpt>
      <trkpt lat="44.80008" lon="3.5255">
        <ele>1344.54</ele>
        <time>2024-10-30T10:11:51Z</time>
      </trkpt>
      <trkpt lat="44.80016" lon="3.52548">
        <ele>1344.54</ele>
        <time>2024-10-30T10:11:58Z</time>
      </trkpt>
      <trkpt lat="44.80025" lon="3.52555">
        <ele>1344.54</ele>
        <time>2024-10-30T10:12:06Z</time>
      </trkpt>
      <trkpt lat="44.80036" lon="3.52565">
        <ele>1345.5</ele>
        <time>2024-10-30T10:12:14Z</time>
      </trkpt>
      <trkpt lat="44.80045" lon="3.52573">
        <ele>1346.46</ele>
        <time>2024-10-30T10:12:24Z</time>
      </trkpt>
      <trkpt lat="44.80054" lon="3.52586">
        <ele>1346.94</ele>
        <time>2024-10-30T10:12:32Z</time>
      </trkpt>
      <trkpt lat="44.80062" lon="3.52608">
        <ele>1347.43</ele>
        <time>2024-10-30T10:12:44Z</time>
      </trkpt>
      <trkpt lat="44.80064" lon="3.52631">
        <ele>1344.54</ele>
        <time>2024-10-30T10:12:55Z</time>
      </trkpt>
      <trkpt lat="44.80068" lon="3.52649">
        <ele>1342.14</ele>
        <time>2024-10-30T10:13:05Z</time>
      </trkpt>
      <trkpt lat="44.80072" lon="3.52668">
        <ele>1339.25</ele>
        <time>2024-10-30T10:13:16Z</time>
      </trkpt>
      <trkpt lat="44.80075" lon="3.52687">
        <ele>1336.37</ele>
        <time>2024-10-30T10:13:26Z</time>
      </trkpt>
      <trkpt lat="44.80075" lon="3.52708">
        <ele>1333.49</ele>
        <time>2024-10-30T10:13:37Z</time>
      </trkpt>
      <trkpt lat="44.80071" lon="3.52722">
        <ele>1333.01</ele>
        <time>2024-10-30T10:13:46Z</time>
      </trkpt>
      <trkpt lat="44.80071" lon="3.52724">
        <ele>1333.01</ele>
        <time>2024-10-30T10:13:47Z</time>
      </trkpt>
      <trkpt lat="44.80066" lon="3.52744">
        <ele>1331.56</ele>
        <time>2024-10-30T10:13:58Z</time>
      </trkpt>
      <trkpt lat="44.80061" lon="3.52763">
        <ele>1330.6</ele>
        <time>2024-10-30T10:14:10Z</time>
      </trkpt>
      <trkpt lat="44.80058" lon="3.52779">
        <ele>1330.12</ele>
        <time>2024-10-30T10:14:20Z</time>
      </trkpt>
      <trkpt lat="44.80051" lon="3.52794">
        <ele>1329.16</ele>
        <time>2024-10-30T10:14:30Z</time>
      </trkpt>
      <trkpt lat="44.80044" lon="3.52812">
        <ele>1328.2</ele>
        <time>2024-10-30T10:14:40Z</time>
      </trkpt>
      <trkpt lat="44.80038" lon="3.52829">
        <ele>1328.68</ele>
        <time>2024-10-30T10:14:50Z</time>
      </trkpt>
      <trkpt lat="44.80033" lon="3.52851">
        <ele>1330.6</ele>
        <time>2024-10-30T10:15:02Z</time>
      </trkpt>
      <trkpt lat="44.80029" lon="3.52875">
        <ele>1331.56</ele>
        <time>2024-10-30T10:15:15Z</time>
      </trkpt>
      <trkpt lat="44.80028" lon="3.52885">
        <ele>1331.08</ele>
        <time>2024-10-30T10:15:21Z</time>
      </trkpt>
      <trkpt lat="44.8002" lon="3.52907">
        <ele>1329.16</ele>
        <time>2024-10-30T10:15:35Z</time>
      </trkpt>
      <trkpt lat="44.80014" lon="3.52921">
        <ele>1328.2</ele>
        <time>2024-10-30T10:15:46Z</time>
      </trkpt>
      <trkpt lat="44.8001" lon="3.52935">
        <ele>1327.24</ele>
        <time>2024-10-30T10:15:55Z</time>
      </trkpt>
      <trkpt lat="44.80009" lon="3.52937">
        <ele>1327.24</ele>
        <time>2024-10-30T10:15:56Z</time>
      </trkpt>
      <trkpt lat="44.80008" lon="3.52938">
        <ele>1326.76</ele>
        <time>2024-10-30T10:15:57Z</time>
      </trkpt>
      <trkpt lat="44.79996" lon="3.52956">
        <ele>1322.91</ele>
        <time>2024-10-30T10:16:12Z</time>
      </trkpt>
      <trkpt lat="44.79976" lon="3.52984">
        <ele>1318.1</ele>
        <time>2024-10-30T10:16:33Z</time>
      </trkpt>
      <trkpt lat="44.79953" lon="3.5301">
        <ele>1317.14</ele>
        <time>2024-10-30T10:16:57Z</time>
      </trkpt>
      <trkpt lat="44.79919" lon="3.53035">
        <ele>1313.3</ele>
        <time>2024-10-30T10:17:20Z</time>
      </trkpt>
      <trkpt lat="44.79892" lon="3.53052">
        <ele>1309.93</ele>
        <time>2024-10-30T10:17:42Z</time>
      </trkpt>
      <trkpt lat="44.79866" lon="3.53062">
        <ele>1307.53</ele>
        <time>2024-10-30T10:18:03Z</time>
      </trkpt>
      <trkpt lat="44.79848" lon="3.53072">
        <ele>1309.45</ele>
        <time>2024-10-30T10:18:24Z</time>
      </trkpt>
      <trkpt lat="44.79811" lon="3.53084">
        <ele>1313.3</ele>
        <time>2024-10-30T10:18:49Z</time>
      </trkpt>
      <trkpt lat="44.79784" lon="3.53087">
        <ele>1313.78</ele>
        <time>2024-10-30T10:19:12Z</time>
      </trkpt>
      <trkpt lat="44.79765" lon="3.53092">
        <ele>1312.34</ele>
        <time>2024-10-30T10:19:22Z</time>
      </trkpt>
      <trkpt lat="44.79745" lon="3.53087">
        <ele>1312.82</ele>
        <time>2024-10-30T10:19:39Z</time>
      </trkpt>
      <trkpt lat="44.79718" lon="3.53083">
        <ele>1310.9</ele>
        <time>2024-10-30T10:20:03Z</time>
      </trkpt>
      <trkpt lat="44.7968" lon="3.53078">
        <ele>1303.69</ele>
        <time>2024-10-30T10:20:28Z</time>
      </trkpt>
      <trkpt lat="44.79645" lon="3.53066">
        <ele>1295.51</ele>
        <time>2024-10-30T10:20:51Z</time>
      </trkpt>
      <trkpt lat="44.79614" lon="3.5307">
        <ele>1292.15</ele>
        <time>2024-10-30T10:21:11Z</time>
      </trkpt>
      <trkpt lat="44.79597" lon="3.53076">
        <ele>1290.23</ele>
        <time>2024-10-30T10:21:27Z</time>
      </trkpt>
      <trkpt lat="44.79576" lon="3.53084">
        <ele>1289.27</ele>
        <time>2024-10-30T10:21:46Z</time>
      </trkpt>
      <trkpt lat="44.79547" lon="3.53096">
        <ele>1286.86</ele>
        <time>2024-10-30T10:22:09Z</time>
      </trkpt>
      <trkpt lat="44.79517" lon="3.53107">
        <ele>1286.86</ele>
        <time>2024-10-30T10:22:31Z</time>
      </trkpt>
      <trkpt lat="44.79493" lon="3.53127">
        <ele>1284.46</ele>
        <time>2024-10-30T10:22:49Z</time>
      </trkpt>
      <trkpt lat="44.79464" lon="3.53146">
        <ele>1281.09</ele>
        <time>2024-10-30T10:23:09Z</time>
      </trkpt>
      <trkpt lat="44.79443" lon="3.53168">
        <ele>1280.13</ele>
        <time>2024-10-30T10:23:29Z</time>
      </trkpt>
      <trkpt lat="44.79425" lon="3.53193">
        <ele>1282.06</ele>
        <time>2024-10-30T10:23:50Z</time>
      </trkpt>
      <trkpt lat="44.7941" lon="3.53222">
        <ele>1284.46</ele>
        <time>2024-10-30T10:24:10Z</time>
      </trkpt>
      <trkpt lat="44.79409" lon="3.53225">
        <ele>1284.94</ele>
        <time>2024-10-30T10:24:12Z</time>
      </trkpt>
      <trkpt lat="44.79396" lon="3.53265">
        <ele>1284.94</ele>
        <time>2024-10-30T10:24:33Z</time>
      </trkpt>
      <trkpt lat="44.79406" lon="3.53309">
        <ele>1283.5</ele>
        <time>2024-10-30T10:24:56Z</time>
      </trkpt>
      <trkpt lat="44.79409" lon="3.53332">
        <ele>1278.69</ele>
        <time>2024-10-30T10:25:05Z</time>
      </trkpt>
      <trkpt lat="44.7941" lon="3.53363">
        <ele>1274.36</ele>
        <time>2024-10-30T10:25:15Z</time>
      </trkpt>
      <trkpt lat="44.79412" lon="3.53386">
        <ele>1273.4</ele>
        <time>2024-10-30T10:25:28Z</time>
      </trkpt>
      <trkpt lat="44.79417" lon="3.53413">
        <ele>1272.92</ele>
        <time>2024-10-30T10:25:41Z</time>
      </trkpt>
      <trkpt lat="44.79418" lon="3.53426">
        <ele>1271.96</ele>
        <time>2024-10-30T10:25:49Z</time>
      </trkpt>
      <trkpt lat="44.79418" lon="3.53428">
        <ele>1271.48</ele>
        <time>2024-10-30T10:25:50Z</time>
      </trkpt>
      <trkpt lat="44.79419" lon="3.5343">
        <ele>1271.48</ele>
        <time>2024-10-30T10:25:51Z</time>
      </trkpt>
      <trkpt lat="44.7942" lon="3.53434">
        <ele>1271.48</ele>
        <time>2024-10-30T10:25:52Z</time>
      </trkpt>
      <trkpt lat="44.7942" lon="3.53436">
        <ele>1271</ele>
        <time>2024-10-30T10:25:53Z</time>
      </trkpt>
      <trkpt lat="44.79425" lon="3.53454">
        <ele>1270.04</ele>
        <time>2024-10-30T10:26:04Z</time>
      </trkpt>
      <trkpt lat="44.79429" lon="3.53478">
        <ele>1269.56</ele>
        <time>2024-10-30T10:26:20Z</time>
      </trkpt>
      <trkpt lat="44.7943" lon="3.5348">
        <ele>1269.56</ele>
        <time>2024-10-30T10:26:21Z</time>
      </trkpt>
      <trkpt lat="44.79437" lon="3.53511">
        <ele>1267.16</ele>
        <time>2024-10-30T10:26:37Z</time>
      </trkpt>
      <trkpt lat="44.79438" lon="3.5355">
        <ele>1263.79</ele>
        <time>2024-10-30T10:26:59Z</time>
      </trkpt>
      <trkpt lat="44.79434" lon="3.53577">
        <ele>1262.35</ele>
        <time>2024-10-30T10:27:13Z</time>
      </trkpt>
      <trkpt lat="44.79432" lon="3.53579">
        <ele>1262.35</ele>
        <time>2024-10-30T10:27:14Z</time>
      </trkpt>
      <trkpt lat="44.79413" lon="3.53618">
        <ele>1262.83</ele>
        <time>2024-10-30T10:27:34Z</time>
      </trkpt>
      <trkpt lat="44.79401" lon="3.53637">
        <ele>1266.67</ele>
        <time>2024-10-30T10:27:46Z</time>
      </trkpt>
      <trkpt lat="44.79391" lon="3.53652">
        <ele>1268.6</ele>
        <time>2024-10-30T10:27:58Z</time>
      </trkpt>
      <trkpt lat="44.79379" lon="3.53665">
        <ele>1269.56</ele>
        <time>2024-10-30T10:28:08Z</time>
      </trkpt>
      <trkpt lat="44.79366" lon="3.53679">
        <ele>1271.48</ele>
        <time>2024-10-30T10:28:18Z</time>
      </trkpt>
      <trkpt lat="44.7935" lon="3.53702">
        <ele>1272.44</ele>
        <time>2024-10-30T10:28:35Z</time>
      </trkpt>
      <trkpt lat="44.79338" lon="3.53715">
        <ele>1272.44</ele>
        <time>2024-10-30T10:28:45Z</time>
      </trkpt>
      <trkpt lat="44.79331" lon="3.5373">
        <ele>1273.4</ele>
        <time>2024-10-30T10:28:54Z</time>
      </trkpt>
      <trkpt lat="44.79324" lon="3.53747">
        <ele>1273.88</ele>
        <time>2024-10-30T10:29:03Z</time>
      </trkpt>
      <trkpt lat="44.7932" lon="3.53765">
        <ele>1274.36</ele>
        <time>2024-10-30T10:29:11Z</time>
      </trkpt>
      <trkpt lat="44.79318" lon="3.53784">
        <ele>1273.88</ele>
        <time>2024-10-30T10:29:22Z</time>
      </trkpt>
      <trkpt lat="44.79318" lon="3.53805">
        <ele>1273.4</ele>
        <time>2024-10-30T10:29:32Z</time>
      </trkpt>
      <trkpt lat="44.79318" lon="3.53821">
        <ele>1273.4</ele>
        <time>2024-10-30T10:29:41Z</time>
      </trkpt>
      <trkpt lat="44.79318" lon="3.53824">
        <ele>1273.4</ele>
        <time>2024-10-30T10:29:43Z</time>
      </trkpt>
      <trkpt lat="44.79318" lon="3.53827">
        <ele>1273.4</ele>
        <time>2024-10-30T10:29:44Z</time>
      </trkpt>
      <trkpt lat="44.79318" lon="3.5383">
        <ele>1273.4</ele>
        <time>2024-10-30T10:29:45Z</time>
      </trkpt>
      <trkpt lat="44.79317" lon="3.53847">
        <ele>1273.88</ele>
        <time>2024-10-30T10:29:54Z</time>
      </trkpt>
      <trkpt lat="44.79314" lon="3.53867">
        <ele>1274.36</ele>
        <time>2024-10-30T10:30:04Z</time>
      </trkpt>
      <trkpt lat="44.79314" lon="3.53868">
        <ele>1274.36</ele>
        <time>2024-10-30T10:30:05Z</time>
      </trkpt>
      <trkpt lat="44.79313" lon="3.53873">
        <ele>1274.85</ele>
        <time>2024-10-30T10:30:08Z</time>
      </trkpt>
      <trkpt lat="44.79311" lon="3.53889">
        <ele>1274.36</ele>
        <time>2024-10-30T10:30:19Z</time>
      </trkpt>
      <trkpt lat="44.79315" lon="3.53892">
        <ele>1273.88</ele>
        <time>2024-10-30T10:30:42Z</time>
      </trkpt>
      <trkpt lat="44.79316" lon="3.53897">
        <ele>1274.85</ele>
        <time>2024-10-30T10:31:08Z</time>
      </trkpt>
      <trkpt lat="44.79313" lon="3.53906">
        <ele>1274.36</ele>
        <time>2024-10-30T10:31:27Z</time>
      </trkpt>
      <trkpt lat="44.79311" lon="3.53907">
        <ele>1274.85</ele>
        <time>2024-10-30T10:31:44Z</time>
      </trkpt>
      <trkpt lat="44.79312" lon="3.53909">
        <ele>1273.88</ele>
        <time>2024-10-30T10:32:11Z</time>
      </trkpt>
      <trkpt lat="44.79306" lon="3.53935">
        <ele>1271.96</ele>
        <time>2024-10-30T10:32:29Z</time>
      </trkpt>
      <trkpt lat="44.79299" lon="3.53972">
        <ele>1271.48</ele>
        <time>2024-10-30T10:32:49Z</time>
      </trkpt>
      <trkpt lat="44.79291" lon="3.54009">
        <ele>1272.92</ele>
        <time>2024-10-30T10:33:09Z</time>
      </trkpt>
      <trkpt lat="44.79281" lon="3.54045">
        <ele>1274.36</ele>
        <time>2024-10-30T10:33:29Z</time>
      </trkpt>
      <trkpt lat="44.79272" lon="3.54079">
        <ele>1274.85</ele>
        <time>2024-10-30T10:33:47Z</time>
      </trkpt>
      <trkpt lat="44.79265" lon="3.54105">
        <ele>1275.33</ele>
        <time>2024-10-30T10:34:01Z</time>
      </trkpt>
      <trkpt lat="44.79258" lon="3.54127">
        <ele>1275.33</ele>
        <time>2024-10-30T10:34:11Z</time>
      </trkpt>
      <trkpt lat="44.79254" lon="3.54144">
        <ele>1276.29</ele>
        <time>2024-10-30T10:34:22Z</time>
      </trkpt>
      <trkpt lat="44.79249" lon="3.54163">
        <ele>1276.29</ele>
        <time>2024-10-30T10:34:33Z</time>
      </trkpt>
      <trkpt lat="44.79246" lon="3.54178">
        <ele>1274.85</ele>
        <time>2024-10-30T10:34:43Z</time>
      </trkpt>
      <trkpt lat="44.79242" lon="3.54187">
        <ele>1274.85</ele>
        <time>2024-10-30T10:34:48Z</time>
      </trkpt>
      <trkpt lat="44.79241" lon="3.5419">
        <ele>1274.36</ele>
        <time>2024-10-30T10:34:49Z</time>
      </trkpt>
      <trkpt lat="44.7924" lon="3.54192">
        <ele>1274.36</ele>
        <time>2024-10-30T10:34:50Z</time>
      </trkpt>
      <trkpt lat="44.79234" lon="3.54211">
        <ele>1272.92</ele>
        <time>2024-10-30T10:35:00Z</time>
      </trkpt>
      <trkpt lat="44.79231" lon="3.54226">
        <ele>1270.52</ele>
        <time>2024-10-30T10:35:08Z</time>
      </trkpt>
      <trkpt lat="44.79227" lon="3.54231">
        <ele>1269.56</ele>
        <time>2024-10-30T10:35:13Z</time>
      </trkpt>
      <trkpt lat="44.79226" lon="3.54233">
        <ele>1269.08</ele>
        <time>2024-10-30T10:35:14Z</time>
      </trkpt>
      <trkpt lat="44.79224" lon="3.54235">
        <ele>1269.08</ele>
        <time>2024-10-30T10:35:15Z</time>
      </trkpt>
      <trkpt lat="44.79223" lon="3.54236">
        <ele>1269.08</ele>
        <time>2024-10-30T10:35:16Z</time>
      </trkpt>
      <trkpt lat="44.79222" lon="3.54238">
        <ele>1268.6</ele>
        <time>2024-10-30T10:35:17Z</time>
      </trkpt>
      <trkpt lat="44.79218" lon="3.54241">
        <ele>1268.6</ele>
        <time>2024-10-30T10:35:20Z</time>
      </trkpt>
      <trkpt lat="44.79217" lon="3.54243">
        <ele>1268.6</ele>
        <time>2024-10-30T10:35:22Z</time>
      </trkpt>
      <trkpt lat="44.79216" lon="3.54244">
        <ele>1268.6</ele>
        <time>2024-10-30T10:35:23Z</time>
      </trkpt>
      <trkpt lat="44.79206" lon="3.54252">
        <ele>1266.19</ele>
        <time>2024-10-30T10:35:34Z</time>
      </trkpt>
      <trkpt lat="44.79191" lon="3.54261">
        <ele>1263.79</ele>
        <time>2024-10-30T10:35:46Z</time>
      </trkpt>
      <trkpt lat="44.79175" lon="3.54271">
        <ele>1261.87</ele>
        <time>2024-10-30T10:35:57Z</time>
      </trkpt>
      <trkpt lat="44.79162" lon="3.54279">
        <ele>1261.87</ele>
        <time>2024-10-30T10:36:08Z</time>
      </trkpt>
      <trkpt lat="44.79149" lon="3.5429">
        <ele>1260.43</ele>
        <time>2024-10-30T10:36:20Z</time>
      </trkpt>
      <trkpt lat="44.79138" lon="3.54302">
        <ele>1259.46</ele>
        <time>2024-10-30T10:36:31Z</time>
      </trkpt>
      <trkpt lat="44.79129" lon="3.54315">
        <ele>1257.54</ele>
        <time>2024-10-30T10:36:41Z</time>
      </trkpt>
      <trkpt lat="44.79121" lon="3.54332">
        <ele>1253.7</ele>
        <time>2024-10-30T10:36:52Z</time>
      </trkpt>
      <trkpt lat="44.7912" lon="3.54334">
        <ele>1253.22</ele>
        <time>2024-10-30T10:36:53Z</time>
      </trkpt>
      <trkpt lat="44.79112" lon="3.54351">
        <ele>1251.77</ele>
        <time>2024-10-30T10:37:04Z</time>
      </trkpt>
      <trkpt lat="44.79105" lon="3.54369">
        <ele>1252.25</ele>
        <time>2024-10-30T10:37:14Z</time>
      </trkpt>
      <trkpt lat="44.79099" lon="3.54386">
        <ele>1251.29</ele>
        <time>2024-10-30T10:37:25Z</time>
      </trkpt>
      <trkpt lat="44.79099" lon="3.54387">
        <ele>1251.29</ele>
        <time>2024-10-30T10:37:26Z</time>
      </trkpt>
      <trkpt lat="44.791" lon="3.54389">
        <ele>1250.81</ele>
        <time>2024-10-30T10:37:27Z</time>
      </trkpt>
      <trkpt lat="44.791" lon="3.54392">
        <ele>1250.81</ele>
        <time>2024-10-30T10:37:28Z</time>
      </trkpt>
      <trkpt lat="44.791" lon="3.54395">
        <ele>1250.33</ele>
        <time>2024-10-30T10:37:29Z</time>
      </trkpt>
      <trkpt lat="44.791" lon="3.54397">
        <ele>1250.33</ele>
        <time>2024-10-30T10:37:30Z</time>
      </trkpt>
      <trkpt lat="44.791" lon="3.54399">
        <ele>1250.33</ele>
        <time>2024-10-30T10:37:31Z</time>
      </trkpt>
      <trkpt lat="44.79097" lon="3.54419">
        <ele>1248.41</ele>
        <time>2024-10-30T10:37:41Z</time>
      </trkpt>
      <trkpt lat="44.79094" lon="3.54429">
        <ele>1248.89</ele>
        <time>2024-10-30T10:37:47Z</time>
      </trkpt>
      <trkpt lat="44.79093" lon="3.54431">
        <ele>1248.41</ele>
        <time>2024-10-30T10:37:48Z</time>
      </trkpt>
      <trkpt lat="44.79093" lon="3.54434">
        <ele>1248.41</ele>
        <time>2024-10-30T10:37:49Z</time>
      </trkpt>
      <trkpt lat="44.79092" lon="3.54436">
        <ele>1247.93</ele>
        <time>2024-10-30T10:37:50Z</time>
      </trkpt>
      <trkpt lat="44.79092" lon="3.54439">
        <ele>1247.93</ele>
        <time>2024-10-30T10:37:51Z</time>
      </trkpt>
      <trkpt lat="44.79091" lon="3.54441">
        <ele>1247.93</ele>
        <time>2024-10-30T10:37:52Z</time>
      </trkpt>
      <trkpt lat="44.79091" lon="3.54443">
        <ele>1247.45</ele>
        <time>2024-10-30T10:37:53Z</time>
      </trkpt>
      <trkpt lat="44.79085" lon="3.54461">
        <ele>1245.04</ele>
        <time>2024-10-30T10:38:07Z</time>
      </trkpt>
      <trkpt lat="44.79083" lon="3.54466">
        <ele>1243.12</ele>
        <time>2024-10-30T10:38:18Z</time>
      </trkpt>
      <trkpt lat="44.79077" lon="3.54473">
        <ele>1241.2</ele>
        <time>2024-10-30T10:38:36Z</time>
      </trkpt>
      <trkpt lat="44.79069" lon="3.5447">
        <ele>1240.72</ele>
        <time>2024-10-30T10:38:51Z</time>
      </trkpt>
      <trkpt lat="44.79061" lon="3.54484">
        <ele>1240.72</ele>
        <time>2024-10-30T10:39:07Z</time>
      </trkpt>
      <trkpt lat="44.79042" lon="3.54511">
        <ele>1242.64</ele>
        <time>2024-10-30T10:39:25Z</time>
      </trkpt>
      <trkpt lat="44.79032" lon="3.54526">
        <ele>1242.16</ele>
        <time>2024-10-30T10:39:35Z</time>
      </trkpt>
      <trkpt lat="44.79027" lon="3.54539">
        <ele>1239.76</ele>
        <time>2024-10-30T10:39:45Z</time>
      </trkpt>
      <trkpt lat="44.79017" lon="3.54555">
        <ele>1240.24</ele>
        <time>2024-10-30T10:39:56Z</time>
      </trkpt>
      <trkpt lat="44.79001" lon="3.54557">
        <ele>1240.24</ele>
        <time>2024-10-30T10:40:09Z</time>
      </trkpt>
      <trkpt lat="44.78999" lon="3.54558">
        <ele>1240.24</ele>
        <time>2024-10-30T10:40:11Z</time>
      </trkpt>
      <trkpt lat="44.78997" lon="3.54558">
        <ele>1240.24</ele>
        <time>2024-10-30T10:40:12Z</time>
      </trkpt>
      <trkpt lat="44.78989" lon="3.54556">
        <ele>1239.28</ele>
        <time>2024-10-30T10:40:23Z</time>
      </trkpt>
      <trkpt lat="44.78987" lon="3.54558">
        <ele>1239.28</ele>
        <time>2024-10-30T10:40:24Z</time>
      </trkpt>
      <trkpt lat="44.78984" lon="3.54558">
        <ele>1239.28</ele>
        <time>2024-10-30T10:40:25Z</time>
      </trkpt>
      <trkpt lat="44.78971" lon="3.54561">
        <ele>1239.28</ele>
        <time>2024-10-30T10:40:35Z</time>
      </trkpt>
      <trkpt lat="44.78961" lon="3.54561">
        <ele>1237.83</ele>
        <time>2024-10-30T10:40:44Z</time>
      </trkpt>
      <trkpt lat="44.78947" lon="3.54564">
        <ele>1236.39</ele>
        <time>2024-10-30T10:40:54Z</time>
      </trkpt>
      <trkpt lat="44.78946" lon="3.54567">
        <ele>1235.43</ele>
        <time>2024-10-30T10:41:04Z</time>
      </trkpt>
      <trkpt lat="44.78938" lon="3.54575">
        <ele>1235.91</ele>
        <time>2024-10-30T10:41:16Z</time>
      </trkpt>
      <trkpt lat="44.78933" lon="3.54578">
        <ele>1237.83</ele>
        <time>2024-10-30T10:41:20Z</time>
      </trkpt>
      <trkpt lat="44.78933" lon="3.54579">
        <ele>1237.83</ele>
        <time>2024-10-30T10:41:21Z</time>
      </trkpt>
      <trkpt lat="44.78925" lon="3.54597">
        <ele>1238.8</ele>
        <time>2024-10-30T10:41:34Z</time>
      </trkpt>
      <trkpt lat="44.78925" lon="3.54599">
        <ele>1238.8</ele>
        <time>2024-10-30T10:41:35Z</time>
      </trkpt>
      <trkpt lat="44.78924" lon="3.54602">
        <ele>1238.32</ele>
        <time>2024-10-30T10:41:36Z</time>
      </trkpt>
      <trkpt lat="44.78922" lon="3.54628">
        <ele>1239.28</ele>
        <time>2024-10-30T10:41:52Z</time>
      </trkpt>
      <trkpt lat="44.78921" lon="3.54665">
        <ele>1238.8</ele>
        <time>2024-10-30T10:42:11Z</time>
      </trkpt>
      <trkpt lat="44.78919" lon="3.54703">
        <ele>1240.24</ele>
        <time>2024-10-30T10:42:32Z</time>
      </trkpt>
      <trkpt lat="44.78914" lon="3.54742">
        <ele>1241.2</ele>
        <time>2024-10-30T10:42:54Z</time>
      </trkpt>
      <trkpt lat="44.78904" lon="3.54776">
        <ele>1239.76</ele>
        <time>2024-10-30T10:43:16Z</time>
      </trkpt>
      <trkpt lat="44.78897" lon="3.54792">
        <ele>1239.76</ele>
        <time>2024-10-30T10:43:33Z</time>
      </trkpt>
      <trkpt lat="44.78894" lon="3.54807">
        <ele>1239.28</ele>
        <time>2024-10-30T10:43:51Z</time>
      </trkpt>
      <trkpt lat="44.78893" lon="3.54809">
        <ele>1239.28</ele>
        <time>2024-10-30T10:43:52Z</time>
      </trkpt>
      <trkpt lat="44.78892" lon="3.54812">
        <ele>1238.8</ele>
        <time>2024-10-30T10:43:53Z</time>
      </trkpt>
      <trkpt lat="44.78892" lon="3.54833">
        <ele>1236.87</ele>
        <time>2024-10-30T10:44:04Z</time>
      </trkpt>
      <trkpt lat="44.78891" lon="3.54851">
        <ele>1234.95</ele>
        <time>2024-10-30T10:44:16Z</time>
      </trkpt>
      <trkpt lat="44.78893" lon="3.54875">
        <ele>1233.03</ele>
        <time>2024-10-30T10:44:28Z</time>
      </trkpt>
      <trkpt lat="44.78898" lon="3.54896">
        <ele>1232.55</ele>
        <time>2024-10-30T10:44:40Z</time>
      </trkpt>
      <trkpt lat="44.78911" lon="3.54919">
        <ele>1232.07</ele>
        <time>2024-10-30T10:44:55Z</time>
      </trkpt>
      <trkpt lat="44.7893" lon="3.54937">
        <ele>1233.51</ele>
        <time>2024-10-30T10:45:12Z</time>
      </trkpt>
      <trkpt lat="44.78943" lon="3.54959">
        <ele>1235.43</ele>
        <time>2024-10-30T10:45:29Z</time>
      </trkpt>
      <trkpt lat="44.78953" lon="3.5498">
        <ele>1236.39</ele>
        <time>2024-10-30T10:45:45Z</time>
      </trkpt>
      <trkpt lat="44.78962" lon="3.54995">
        <ele>1237.83</ele>
        <time>2024-10-30T10:45:59Z</time>
      </trkpt>
      <trkpt lat="44.78977" lon="3.55015">
        <ele>1239.28</ele>
        <time>2024-10-30T10:46:15Z</time>
      </trkpt>
      <trkpt lat="44.78989" lon="3.55036">
        <ele>1240.72</ele>
        <time>2024-10-30T10:46:30Z</time>
      </trkpt>
      <trkpt lat="44.78998" lon="3.55055">
        <ele>1241.2</ele>
        <time>2024-10-30T10:46:43Z</time>
      </trkpt>
      <trkpt lat="44.79001" lon="3.55062">
        <ele>1241.68</ele>
        <time>2024-10-30T10:46:47Z</time>
      </trkpt>
      <trkpt lat="44.79009" lon="3.55083">
        <ele>1242.64</ele>
        <time>2024-10-30T10:47:01Z</time>
      </trkpt>
      <trkpt lat="44.79018" lon="3.55106">
        <ele>1243.6</ele>
        <time>2024-10-30T10:47:16Z</time>
      </trkpt>
      <trkpt lat="44.79029" lon="3.55132">
        <ele>1244.56</ele>
        <time>2024-10-30T10:47:32Z</time>
      </trkpt>
      <trkpt lat="44.7904" lon="3.55155">
        <ele>1244.56</ele>
        <time>2024-10-30T10:47:47Z</time>
      </trkpt>
      <trkpt lat="44.79051" lon="3.55178">
        <ele>1244.08</ele>
        <time>2024-10-30T10:48:01Z</time>
      </trkpt>
      <trkpt lat="44.79059" lon="3.55205">
        <ele>1246.01</ele>
        <time>2024-10-30T10:48:18Z</time>
      </trkpt>
      <trkpt lat="44.79068" lon="3.55229">
        <ele>1246.97</ele>
        <time>2024-10-30T10:48:33Z</time>
      </trkpt>
      <trkpt lat="44.79079" lon="3.55258">
        <ele>1246.97</ele>
        <time>2024-10-30T10:48:51Z</time>
      </trkpt>
      <trkpt lat="44.79086" lon="3.55301">
        <ele>1245.53</ele>
        <time>2024-10-30T10:49:14Z</time>
      </trkpt>
      <trkpt lat="44.79088" lon="3.55335">
        <ele>1241.68</ele>
        <time>2024-10-30T10:49:32Z</time>
      </trkpt>
      <trkpt lat="44.79096" lon="3.55368">
        <ele>1237.83</ele>
        <time>2024-10-30T10:49:51Z</time>
      </trkpt>
      <trkpt lat="44.79102" lon="3.55397">
        <ele>1234.47</ele>
        <time>2024-10-30T10:50:08Z</time>
      </trkpt>
      <trkpt lat="44.79107" lon="3.55425">
        <ele>1232.07</ele>
        <time>2024-10-30T10:50:23Z</time>
      </trkpt>
      <trkpt lat="44.79115" lon="3.55458">
        <ele>1227.26</ele>
        <time>2024-10-30T10:50:41Z</time>
      </trkpt>
      <trkpt lat="44.79122" lon="3.55498">
        <ele>1224.38</ele>
        <time>2024-10-30T10:51:02Z</time>
      </trkpt>
      <trkpt lat="44.79129" lon="3.55527">
        <ele>1220.53</ele>
        <time>2024-10-30T10:51:21Z</time>
      </trkpt>
      <trkpt lat="44.79134" lon="3.55557">
        <ele>1218.61</ele>
        <time>2024-10-30T10:51:37Z</time>
      </trkpt>
      <trkpt lat="44.79138" lon="3.55585">
        <ele>1217.65</ele>
        <time>2024-10-30T10:51:52Z</time>
      </trkpt>
      <trkpt lat="44.79143" lon="3.55615">
        <ele>1216.69</ele>
        <time>2024-10-30T10:52:09Z</time>
      </trkpt>
      <trkpt lat="44.79151" lon="3.5565">
        <ele>1214.76</ele>
        <time>2024-10-30T10:52:30Z</time>
      </trkpt>
      <trkpt lat="44.79158" lon="3.55672">
        <ele>1213.32</ele>
        <time>2024-10-30T10:52:45Z</time>
      </trkpt>
      <trkpt lat="44.79168" lon="3.55702">
        <ele>1210.44</ele>
        <time>2024-10-30T10:53:03Z</time>
      </trkpt>
      <trkpt lat="44.79176" lon="3.55725">
        <ele>1207.07</ele>
        <time>2024-10-30T10:53:18Z</time>
      </trkpt>
      <trkpt lat="44.7918" lon="3.5575">
        <ele>1206.11</ele>
        <time>2024-10-30T10:53:32Z</time>
      </trkpt>
      <trkpt lat="44.79184" lon="3.55766">
        <ele>1203.23</ele>
        <time>2024-10-30T10:53:42Z</time>
      </trkpt>
      <trkpt lat="44.79187" lon="3.55784">
        <ele>1201.79</ele>
        <time>2024-10-30T10:53:52Z</time>
      </trkpt>
      <trkpt lat="44.79189" lon="3.5581">
        <ele>1198.9</ele>
        <time>2024-10-30T10:54:09Z</time>
      </trkpt>
      <trkpt lat="44.7919" lon="3.55839">
        <ele>1195.06</ele>
        <time>2024-10-30T10:54:26Z</time>
      </trkpt>
      <trkpt lat="44.79187" lon="3.55872">
        <ele>1192.17</ele>
        <time>2024-10-30T10:54:45Z</time>
      </trkpt>
      <trkpt lat="44.79179" lon="3.55896">
        <ele>1188.81</ele>
        <time>2024-10-30T10:55:02Z</time>
      </trkpt>
      <trkpt lat="44.79165" lon="3.55917">
        <ele>1185.44</ele>
        <time>2024-10-30T10:55:21Z</time>
      </trkpt>
      <trkpt lat="44.79163" lon="3.55925">
        <ele>1184.48</ele>
        <time>2024-10-30T10:55:26Z</time>
      </trkpt>
      <trkpt lat="44.79163" lon="3.55927">
        <ele>1184</ele>
        <time>2024-10-30T10:55:27Z</time>
      </trkpt>
      <trkpt lat="44.79163" lon="3.55928">
        <ele>1184</ele>
        <time>2024-10-30T10:55:28Z</time>
      </trkpt>
      <trkpt lat="44.79162" lon="3.5593">
        <ele>1183.52</ele>
        <time>2024-10-30T10:55:29Z</time>
      </trkpt>
      <trkpt lat="44.79162" lon="3.55932">
        <ele>1183.52</ele>
        <time>2024-10-30T10:55:30Z</time>
      </trkpt>
      <trkpt lat="44.7916" lon="3.55963">
        <ele>1180.16</ele>
        <time>2024-10-30T10:55:49Z</time>
      </trkpt>
      <trkpt lat="44.79163" lon="3.55993">
        <ele>1179.19</ele>
        <time>2024-10-30T10:56:06Z</time>
      </trkpt>
      <trkpt lat="44.79161" lon="3.56036">
        <ele>1176.79</ele>
        <time>2024-10-30T10:56:26Z</time>
      </trkpt>
      <trkpt lat="44.79159" lon="3.56058">
        <ele>1175.83</ele>
        <time>2024-10-30T10:56:41Z</time>
      </trkpt>
      <trkpt lat="44.79157" lon="3.56072">
        <ele>1175.35</ele>
        <time>2024-10-30T10:56:59Z</time>
      </trkpt>
      <trkpt lat="44.7916" lon="3.56102">
        <ele>1176.79</ele>
        <time>2024-10-30T10:57:18Z</time>
      </trkpt>
      <trkpt lat="44.79153" lon="3.56126">
        <ele>1177.75</ele>
        <time>2024-10-30T10:57:33Z</time>
      </trkpt>
      <trkpt lat="44.79135" lon="3.56131">
        <ele>1180.16</ele>
        <time>2024-10-30T10:57:49Z</time>
      </trkpt>
      <trkpt lat="44.79134" lon="3.5613">
        <ele>1180.16</ele>
        <time>2024-10-30T10:57:50Z</time>
      </trkpt>
      <trkpt lat="44.79111" lon="3.56124">
        <ele>1182.56</ele>
        <time>2024-10-30T10:58:10Z</time>
      </trkpt>
      <trkpt lat="44.79086" lon="3.56119">
        <ele>1183.52</ele>
        <time>2024-10-30T10:58:30Z</time>
      </trkpt>
      <trkpt lat="44.7906" lon="3.56115">
        <ele>1185.44</ele>
        <time>2024-10-30T10:58:50Z</time>
      </trkpt>
      <trkpt lat="44.79035" lon="3.56114">
        <ele>1186.4</ele>
        <time>2024-10-30T10:59:10Z</time>
      </trkpt>
      <trkpt lat="44.79026" lon="3.56118">
        <ele>1188.33</ele>
        <time>2024-10-30T10:59:24Z</time>
      </trkpt>
      <trkpt lat="44.79027" lon="3.56119">
        <ele>1188.81</ele>
        <time>2024-10-30T10:59:25Z</time>
      </trkpt>
      <trkpt lat="44.79026" lon="3.56117">
        <ele>1189.29</ele>
        <time>2024-10-30T10:59:39Z</time>
      </trkpt>
      <trkpt lat="44.79024" lon="3.56113">
        <ele>1189.29</ele>
        <time>2024-10-30T10:59:52Z</time>
      </trkpt>
      <trkpt lat="44.7904" lon="3.56134">
        <ele>1190.73</ele>
        <time>2024-10-30T11:00:08Z</time>
      </trkpt>
      <trkpt lat="44.79062" lon="3.56147">
        <ele>1193.61</ele>
        <time>2024-10-30T11:00:26Z</time>
      </trkpt>
      <trkpt lat="44.79079" lon="3.56165">
        <ele>1195.06</ele>
        <time>2024-10-30T11:00:42Z</time>
      </trkpt>
      <trkpt lat="44.7909" lon="3.56183">
        <ele>1197.46</ele>
        <time>2024-10-30T11:00:58Z</time>
      </trkpt>
      <trkpt lat="44.79099" lon="3.56198">
        <ele>1199.38</ele>
        <time>2024-10-30T11:01:11Z</time>
      </trkpt>
      <trkpt lat="44.7911" lon="3.56218">
        <ele>1200.82</ele>
        <time>2024-10-30T11:01:27Z</time>
      </trkpt>
      <trkpt lat="44.79125" lon="3.56238">
        <ele>1202.27</ele>
        <time>2024-10-30T11:01:44Z</time>
      </trkpt>
      <trkpt lat="44.79138" lon="3.5626">
        <ele>1205.15</ele>
        <time>2024-10-30T11:02:01Z</time>
      </trkpt>
      <trkpt lat="44.79147" lon="3.56281">
        <ele>1209</ele>
        <time>2024-10-30T11:02:16Z</time>
      </trkpt>
      <trkpt lat="44.79158" lon="3.56299">
        <ele>1210.92</ele>
        <time>2024-10-30T11:02:31Z</time>
      </trkpt>
      <trkpt lat="44.79169" lon="3.56322">
        <ele>1210.92</ele>
        <time>2024-10-30T11:02:47Z</time>
      </trkpt>
      <trkpt lat="44.79176" lon="3.56345">
        <ele>1213.32</ele>
        <time>2024-10-30T11:03:03Z</time>
      </trkpt>
      <trkpt lat="44.79179" lon="3.5637">
        <ele>1215.72</ele>
        <time>2024-10-30T11:03:19Z</time>
      </trkpt>
      <trkpt lat="44.79174" lon="3.56393">
        <ele>1217.65</ele>
        <time>2024-10-30T11:03:33Z</time>
      </trkpt>
      <trkpt lat="44.79164" lon="3.56422">
        <ele>1220.05</ele>
        <time>2024-10-30T11:03:51Z</time>
      </trkpt>
      <trkpt lat="44.79154" lon="3.5645">
        <ele>1222.93</ele>
        <time>2024-10-30T11:04:10Z</time>
      </trkpt>
      <trkpt lat="44.79143" lon="3.56475">
        <ele>1225.82</ele>
        <time>2024-10-30T11:04:27Z</time>
      </trkpt>
      <trkpt lat="44.79135" lon="3.56499">
        <ele>1229.18</ele>
        <time>2024-10-30T11:04:43Z</time>
      </trkpt>
      <trkpt lat="44.79123" lon="3.56523">
        <ele>1231.11</ele>
        <time>2024-10-30T11:05:01Z</time>
      </trkpt>
      <trkpt lat="44.79119" lon="3.56538">
        <ele>1232.55</ele>
        <time>2024-10-30T11:05:11Z</time>
      </trkpt>
      <trkpt lat="44.79119" lon="3.5654">
        <ele>1232.55</ele>
        <time>2024-10-30T11:05:12Z</time>
      </trkpt>
      <trkpt lat="44.79119" lon="3.5657">
        <ele>1234.47</ele>
        <time>2024-10-30T11:05:30Z</time>
      </trkpt>
      <trkpt lat="44.79126" lon="3.56596">
        <ele>1236.87</ele>
        <time>2024-10-30T11:05:47Z</time>
      </trkpt>
      <trkpt lat="44.79133" lon="3.56604">
        <ele>1236.87</ele>
        <time>2024-10-30T11:05:55Z</time>
      </trkpt>
      <trkpt lat="44.79152" lon="3.5662">
        <ele>1238.32</ele>
        <time>2024-10-30T11:06:12Z</time>
      </trkpt>
      <trkpt lat="44.7917" lon="3.56625">
        <ele>1236.87</ele>
        <time>2024-10-30T11:06:26Z</time>
      </trkpt>
      <trkpt lat="44.79192" lon="3.56637">
        <ele>1239.28</ele>
        <time>2024-10-30T11:06:46Z</time>
      </trkpt>
      <trkpt lat="44.79203" lon="3.56667">
        <ele>1243.12</ele>
        <time>2024-10-30T11:07:04Z</time>
      </trkpt>
      <trkpt lat="44.79214" lon="3.56694">
        <ele>1246.97</ele>
        <time>2024-10-30T11:07:21Z</time>
      </trkpt>
      <trkpt lat="44.79223" lon="3.56722">
        <ele>1251.29</ele>
        <time>2024-10-30T11:07:39Z</time>
      </trkpt>
      <trkpt lat="44.79228" lon="3.56739">
        <ele>1251.77</ele>
        <time>2024-10-30T11:07:51Z</time>
      </trkpt>
      <trkpt lat="44.79226" lon="3.5675">
        <ele>1253.7</ele>
        <time>2024-10-30T11:08:02Z</time>
      </trkpt>
      <trkpt lat="44.79218" lon="3.56767">
        <ele>1254.66</ele>
        <time>2024-10-30T11:08:17Z</time>
      </trkpt>
      <trkpt lat="44.79212" lon="3.56782">
        <ele>1254.66</ele>
        <time>2024-10-30T11:08:29Z</time>
      </trkpt>
      <trkpt lat="44.79207" lon="3.56803">
        <ele>1256.58</ele>
        <time>2024-10-30T11:08:42Z</time>
      </trkpt>
      <trkpt lat="44.79205" lon="3.56823">
        <ele>1258.02</ele>
        <time>2024-10-30T11:08:53Z</time>
      </trkpt>
      <trkpt lat="44.79209" lon="3.5684">
        <ele>1259.94</ele>
        <time>2024-10-30T11:09:03Z</time>
      </trkpt>
      <trkpt lat="44.79212" lon="3.56861">
        <ele>1263.31</ele>
        <time>2024-10-30T11:09:17Z</time>
      </trkpt>
      <trkpt lat="44.79214" lon="3.56882">
        <ele>1264.27</ele>
        <time>2024-10-30T11:09:29Z</time>
      </trkpt>
      <trkpt lat="44.79207" lon="3.56906">
        <ele>1266.19</ele>
        <time>2024-10-30T11:09:45Z</time>
      </trkpt>
      <trkpt lat="44.7919" lon="3.56922">
        <ele>1269.08</ele>
        <time>2024-10-30T11:10:04Z</time>
      </trkpt>
      <trkpt lat="44.79176" lon="3.56934">
        <ele>1271</ele>
        <time>2024-10-30T11:10:18Z</time>
      </trkpt>
      <trkpt lat="44.79165" lon="3.56943">
        <ele>1272.92</ele>
        <time>2024-10-30T11:10:30Z</time>
      </trkpt>
      <trkpt lat="44.79151" lon="3.56957">
        <ele>1274.85</ele>
        <time>2024-10-30T11:10:46Z</time>
      </trkpt>
      <trkpt lat="44.79149" lon="3.56962">
        <ele>1275.33</ele>
        <time>2024-10-30T11:10:53Z</time>
      </trkpt>
      <trkpt lat="44.79146" lon="3.56963">
        <ele>1275.33</ele>
        <time>2024-10-30T11:10:56Z</time>
      </trkpt>
      <trkpt lat="44.79145" lon="3.56963">
        <ele>1275.33</ele>
        <time>2024-10-30T11:10:57Z</time>
      </trkpt>
      <trkpt lat="44.79134" lon="3.56983">
        <ele>1274.36</ele>
        <time>2024-10-30T11:11:12Z</time>
      </trkpt>
      <trkpt lat="44.79134" lon="3.56984">
        <ele>1274.36</ele>
        <time>2024-10-30T11:11:13Z</time>
      </trkpt>
      <trkpt lat="44.79133" lon="3.56986">
        <ele>1274.85</ele>
        <time>2024-10-30T11:11:14Z</time>
      </trkpt>
      <trkpt lat="44.79134" lon="3.57002">
        <ele>1275.33</ele>
        <time>2024-10-30T11:11:23Z</time>
      </trkpt>
      <trkpt lat="44.79136" lon="3.57009">
        <ele>1275.33</ele>
        <time>2024-10-30T11:11:29Z</time>
      </trkpt>
      <trkpt lat="44.79131" lon="3.57038">
        <ele>1277.25</ele>
        <time>2024-10-30T11:11:46Z</time>
      </trkpt>
      <trkpt lat="44.79131" lon="3.57062">
        <ele>1279.65</ele>
        <time>2024-10-30T11:12:00Z</time>
      </trkpt>
      <trkpt lat="44.7913" lon="3.57089">
        <ele>1283.5</ele>
        <time>2024-10-30T11:12:17Z</time>
      </trkpt>
      <trkpt lat="44.79131" lon="3.5711">
        <ele>1285.42</ele>
        <time>2024-10-30T11:12:34Z</time>
      </trkpt>
      <trkpt lat="44.79133" lon="3.57131">
        <ele>1286.86</ele>
        <time>2024-10-30T11:12:52Z</time>
      </trkpt>
      <trkpt lat="44.79134" lon="3.57158">
        <ele>1287.34</ele>
        <time>2024-10-30T11:13:06Z</time>
      </trkpt>
      <trkpt lat="44.79134" lon="3.57188">
        <ele>1285.9</ele>
        <time>2024-10-30T11:13:24Z</time>
      </trkpt>
      <trkpt lat="44.79134" lon="3.57198">
        <ele>1284.94</ele>
        <time>2024-10-30T11:13:30Z</time>
      </trkpt>
      <trkpt lat="44.79134" lon="3.57204">
        <ele>1284.46</ele>
        <time>2024-10-30T11:13:34Z</time>
      </trkpt>
      <trkpt lat="44.79134" lon="3.57206">
        <ele>1284.46</ele>
        <time>2024-10-30T11:13:35Z</time>
      </trkpt>
      <trkpt lat="44.79141" lon="3.57219">
        <ele>1283.5</ele>
        <time>2024-10-30T11:13:51Z</time>
      </trkpt>
      <trkpt lat="44.79147" lon="3.57219">
        <ele>1284.46</ele>
        <time>2024-10-30T11:13:59Z</time>
      </trkpt>
      <trkpt lat="44.79157" lon="3.57217">
        <ele>1286.86</ele>
        <time>2024-10-30T11:14:13Z</time>
      </trkpt>
      <trkpt lat="44.79162" lon="3.57219">
        <ele>1289.75</ele>
        <time>2024-10-30T11:14:28Z</time>
      </trkpt>
      <trkpt lat="44.79167" lon="3.57222">
        <ele>1291.67</ele>
        <time>2024-10-30T11:14:40Z</time>
      </trkpt>
      <trkpt lat="44.79172" lon="3.57223">
        <ele>1293.11</ele>
        <time>2024-10-30T11:14:53Z</time>
      </trkpt>
      <trkpt lat="44.79171" lon="3.5722">
        <ele>1290.71</ele>
        <time>2024-10-30T11:15:12Z</time>
      </trkpt>
      <trkpt lat="44.79169" lon="3.5722">
        <ele>1287.82</ele>
        <time>2024-10-30T11:15:32Z</time>
      </trkpt>
      <trkpt lat="44.79173" lon="3.57216">
        <ele>1286.86</ele>
        <time>2024-10-30T11:15:51Z</time>
      </trkpt>
      <trkpt lat="44.79175" lon="3.57216">
        <ele>1288.3</ele>
        <time>2024-10-30T11:16:16Z</time>
      </trkpt>
      <trkpt lat="44.79169" lon="3.57217">
        <ele>1289.75</ele>
        <time>2024-10-30T11:16:31Z</time>
      </trkpt>
      <trkpt lat="44.79162" lon="3.57226">
        <ele>1293.59</ele>
        <time>2024-10-30T11:16:56Z</time>
      </trkpt>
      <trkpt lat="44.79163" lon="3.57228">
        <ele>1291.67</ele>
        <time>2024-10-30T11:17:14Z</time>
      </trkpt>
      <trkpt lat="44.79168" lon="3.57221">
        <ele>1295.99</ele>
        <time>2024-10-30T11:18:05Z</time>
      </trkpt>
      <trkpt lat="44.79168" lon="3.57219">
        <ele>1299.84</ele>
        <time>2024-10-30T11:18:28Z</time>
      </trkpt>
      <trkpt lat="44.79175" lon="3.57217">
        <ele>1300.32</ele>
        <time>2024-10-30T11:18:49Z</time>
      </trkpt>
      <trkpt lat="44.79175" lon="3.57217">
        <ele>1298.88</ele>
        <time>2024-10-30T11:19:10Z</time>
      </trkpt>
      <trkpt lat="44.79171" lon="3.57222">
        <ele>1300.32</ele>
        <time>2024-10-30T11:19:25Z</time>
      </trkpt>
      <trkpt lat="44.7917" lon="3.57224">
        <ele>1300.32</ele>
        <time>2024-10-30T11:19:27Z</time>
      </trkpt>
      <trkpt lat="44.7917" lon="3.57222">
        <ele>1295.51</ele>
        <time>2024-10-30T11:19:43Z</time>
      </trkpt>
      <trkpt lat="44.7917" lon="3.57218">
        <ele>1295.03</ele>
        <time>2024-10-30T11:20:03Z</time>
      </trkpt>
      <trkpt lat="44.7917" lon="3.57221">
        <ele>1297.92</ele>
        <time>2024-10-30T11:20:26Z</time>
      </trkpt>
      <trkpt lat="44.79172" lon="3.57225">
        <ele>1300.32</ele>
        <time>2024-10-30T11:20:49Z</time>
      </trkpt>
      <trkpt lat="44.79175" lon="3.57228">
        <ele>1302.72</ele>
        <time>2024-10-30T11:21:12Z</time>
      </trkpt>
      <trkpt lat="44.79168" lon="3.57225">
        <ele>1304.65</ele>
        <time>2024-10-30T11:21:37Z</time>
      </trkpt>
      <trkpt lat="44.79167" lon="3.57223">
        <ele>1308.01</ele>
        <time>2024-10-30T11:22:08Z</time>
      </trkpt>
      <trkpt lat="44.79163" lon="3.57226">
        <ele>1314.26</ele>
        <time>2024-10-30T11:22:45Z</time>
      </trkpt>
      <trkpt lat="44.79167" lon="3.57226">
        <ele>1309.45</ele>
        <time>2024-10-30T11:23:18Z</time>
      </trkpt>
      <trkpt lat="44.79169" lon="3.57226">
        <ele>1306.09</ele>
        <time>2024-10-30T11:23:53Z</time>
      </trkpt>
      <trkpt lat="44.79172" lon="3.57224">
        <ele>1305.61</ele>
        <time>2024-10-30T11:24:27Z</time>
      </trkpt>
      <trkpt lat="44.79171" lon="3.57223">
        <ele>1303.69</ele>
        <time>2024-10-30T11:24:55Z</time>
      </trkpt>
      <trkpt lat="44.79172" lon="3.57221">
        <ele>1300.8</ele>
        <time>2024-10-30T11:25:17Z</time>
      </trkpt>
      <trkpt lat="44.7917" lon="3.57222">
        <ele>1298.88</ele>
        <time>2024-10-30T11:25:23Z</time>
      </trkpt>
      <trkpt lat="44.7916" lon="3.57216">
        <ele>1294.55</ele>
        <time>2024-10-30T11:25:37Z</time>
      </trkpt>
      <trkpt lat="44.79162" lon="3.57216">
        <ele>1294.55</ele>
        <time>2024-10-30T11:25:39Z</time>
      </trkpt>
      <trkpt lat="44.79172" lon="3.57222">
        <ele>1295.99</ele>
        <time>2024-10-30T11:25:57Z</time>
      </trkpt>
      <trkpt lat="44.79171" lon="3.57227">
        <ele>1303.2</ele>
        <time>2024-10-30T11:26:25Z</time>
      </trkpt>
      <trkpt lat="44.79171" lon="3.57224">
        <ele>1300.32</ele>
        <time>2024-10-30T11:26:57Z</time>
      </trkpt>
      <trkpt lat="44.79169" lon="3.57226">
        <ele>1300.32</ele>
        <time>2024-10-30T11:27:31Z</time>
      </trkpt>
      <trkpt lat="44.79171" lon="3.57225">
        <ele>1298.88</ele>
        <time>2024-10-30T11:28:09Z</time>
      </trkpt>
      <trkpt lat="44.79171" lon="3.57223">
        <ele>1299.84</ele>
        <time>2024-10-30T11:28:43Z</time>
      </trkpt>
      <trkpt lat="44.7917" lon="3.57224">
        <ele>1303.2</ele>
        <time>2024-10-30T11:29:20Z</time>
      </trkpt>
      <trkpt lat="44.79165" lon="3.57229">
        <ele>1308.49</ele>
        <time>2024-10-30T11:29:54Z</time>
      </trkpt>
      <trkpt lat="44.79168" lon="3.57225">
        <ele>1303.2</ele>
        <time>2024-10-30T11:30:27Z</time>
      </trkpt>
      <trkpt lat="44.79168" lon="3.57226">
        <ele>1301.28</ele>
        <time>2024-10-30T11:31:02Z</time>
      </trkpt>
      <trkpt lat="44.79169" lon="3.57225">
        <ele>1300.32</ele>
        <time>2024-10-30T11:31:32Z</time>
      </trkpt>
      <trkpt lat="44.79166" lon="3.57224">
        <ele>1305.13</ele>
        <time>2024-10-30T11:32:01Z</time>
      </trkpt>
      <trkpt lat="44.79172" lon="3.57224">
        <ele>1300.32</ele>
        <time>2024-10-30T11:32:38Z</time>
      </trkpt>
      <trkpt lat="44.79172" lon="3.57224">
        <ele>1299.36</ele>
        <time>2024-10-30T11:33:10Z</time>
      </trkpt>
      <trkpt lat="44.79169" lon="3.57224">
        <ele>1297.44</ele>
        <time>2024-10-30T11:33:45Z</time>
      </trkpt>
      <trkpt lat="44.79169" lon="3.57219">
        <ele>1293.59</ele>
        <time>2024-10-30T11:34:26Z</time>
      </trkpt>
      <trkpt lat="44.79171" lon="3.57218">
        <ele>1294.55</ele>
        <time>2024-10-30T11:35:09Z</time>
      </trkpt>
      <trkpt lat="44.79173" lon="3.57217">
        <ele>1293.59</ele>
        <time>2024-10-30T11:35:44Z</time>
      </trkpt>
      <trkpt lat="44.79177" lon="3.57223">
        <ele>1293.59</ele>
        <time>2024-10-30T11:36:23Z</time>
      </trkpt>
      <trkpt lat="44.79176" lon="3.57223">
        <ele>1293.11</ele>
        <time>2024-10-30T11:36:58Z</time>
      </trkpt>
      <trkpt lat="44.7918" lon="3.57214">
        <ele>1285.9</ele>
        <time>2024-10-30T11:37:36Z</time>
      </trkpt>
      <trkpt lat="44.79185" lon="3.57212">
        <ele>1283.98</ele>
        <time>2024-10-30T11:38:06Z</time>
      </trkpt>
      <trkpt lat="44.79184" lon="3.57209">
        <ele>1278.21</ele>
        <time>2024-10-30T11:38:35Z</time>
      </trkpt>
      <trkpt lat="44.79184" lon="3.57208">
        <ele>1274.85</ele>
        <time>2024-10-30T11:39:11Z</time>
      </trkpt>
      <trkpt lat="44.7917" lon="3.57209">
        <ele>1274.85</ele>
        <time>2024-10-30T11:39:38Z</time>
      </trkpt>
      <trkpt lat="44.79169" lon="3.57209">
        <ele>1274.85</ele>
        <time>2024-10-30T11:40:16Z</time>
      </trkpt>
      <trkpt lat="44.79177" lon="3.57207">
        <ele>1274.85</ele>
        <time>2024-10-30T11:40:47Z</time>
      </trkpt>
      <trkpt lat="44.79187" lon="3.57208">
        <ele>1276.29</ele>
        <time>2024-10-30T11:41:27Z</time>
      </trkpt>
      <trkpt lat="44.79188" lon="3.57214">
        <ele>1276.29</ele>
        <time>2024-10-30T11:41:57Z</time>
      </trkpt>
      <trkpt lat="44.79227" lon="3.57227">
        <ele>1265.71</ele>
        <time>2024-10-30T11:42:29Z</time>
      </trkpt>
      <trkpt lat="44.79217" lon="3.57215">
        <ele>1262.83</ele>
        <time>2024-10-30T11:42:51Z</time>
      </trkpt>
      <trkpt lat="44.79201" lon="3.57212">
        <ele>1264.75</ele>
        <time>2024-10-30T11:43:27Z</time>
      </trkpt>
      <trkpt lat="44.79194" lon="3.57206">
        <ele>1264.75</ele>
        <time>2024-10-30T11:44:01Z</time>
      </trkpt>
      <trkpt lat="44.7919" lon="3.57206">
        <ele>1265.23</ele>
        <time>2024-10-30T11:44:17Z</time>
      </trkpt>
      <trkpt lat="44.79156" lon="3.57166">
        <ele>1266.67</ele>
        <time>2024-10-30T11:44:34Z</time>
      </trkpt>
      <trkpt lat="44.79129" lon="3.57148">
        <ele>1271.48</ele>
        <time>2024-10-30T11:44:56Z</time>
      </trkpt>
      <trkpt lat="44.79157" lon="3.57211">
        <ele>1294.07</ele>
        <time>2024-10-30T11:45:17Z</time>
      </trkpt>
      <trkpt lat="44.79163" lon="3.57214">
        <ele>1294.07</ele>
        <time>2024-10-30T11:45:38Z</time>
      </trkpt>
      <trkpt lat="44.79175" lon="3.57212">
        <ele>1292.15</ele>
        <time>2024-10-30T11:46:02Z</time>
      </trkpt>
      <trkpt lat="44.79175" lon="3.57217">
        <ele>1290.23</ele>
        <time>2024-10-30T11:46:28Z</time>
      </trkpt>
      <trkpt lat="44.79177" lon="3.57218">
        <ele>1288.78</ele>
        <time>2024-10-30T11:47:08Z</time>
      </trkpt>
      <trkpt lat="44.79175" lon="3.57217">
        <ele>1286.38</ele>
        <time>2024-10-30T11:47:54Z</time>
      </trkpt>
      <trkpt lat="44.79183" lon="3.57211">
        <ele>1282.54</ele>
        <time>2024-10-30T11:48:33Z</time>
      </trkpt>
      <trkpt lat="44.79188" lon="3.57207">
        <ele>1278.69</ele>
        <time>2024-10-30T11:49:14Z</time>
      </trkpt>
      <trkpt lat="44.7919" lon="3.57204">
        <ele>1275.33</ele>
        <time>2024-10-30T11:49:57Z</time>
      </trkpt>
      <trkpt lat="44.79195" lon="3.57202">
        <ele>1270.04</ele>
        <time>2024-10-30T11:50:45Z</time>
      </trkpt>
      <trkpt lat="44.79193" lon="3.57204">
        <ele>1271</ele>
        <time>2024-10-30T11:51:17Z</time>
      </trkpt>
      <trkpt lat="44.79189" lon="3.57205">
        <ele>1273.88</ele>
        <time>2024-10-30T11:51:56Z</time>
      </trkpt>
      <trkpt lat="44.79194" lon="3.57206">
        <ele>1274.36</ele>
        <time>2024-10-30T11:52:29Z</time>
      </trkpt>
      <trkpt lat="44.7918" lon="3.5722">
        <ele>1284.94</ele>
        <time>2024-10-30T11:53:03Z</time>
      </trkpt>
      <trkpt lat="44.7917" lon="3.57229">
        <ele>1294.55</ele>
        <time>2024-10-30T11:53:27Z</time>
      </trkpt>
      <trkpt lat="44.79169" lon="3.57221">
        <ele>1294.07</ele>
        <time>2024-10-30T11:53:51Z</time>
      </trkpt>
      <trkpt lat="44.79169" lon="3.57226">
        <ele>1292.63</ele>
        <time>2024-10-30T11:54:13Z</time>
      </trkpt>
      <trkpt lat="44.79164" lon="3.57231">
        <ele>1293.11</ele>
        <time>2024-10-30T11:54:41Z</time>
      </trkpt>
      <trkpt lat="44.79169" lon="3.57227">
        <ele>1294.07</ele>
        <time>2024-10-30T11:55:07Z</time>
      </trkpt>
      <trkpt lat="44.79168" lon="3.57229">
        <ele>1296.48</ele>
        <time>2024-10-30T11:55:28Z</time>
      </trkpt>
      <trkpt lat="44.79171" lon="3.57221">
        <ele>1296.48</ele>
        <time>2024-10-30T11:55:44Z</time>
      </trkpt>
      <trkpt lat="44.79169" lon="3.57227">
        <ele>1297.44</ele>
        <time>2024-10-30T11:56:06Z</time>
      </trkpt>
      <trkpt lat="44.79165" lon="3.57226">
        <ele>1298.4</ele>
        <time>2024-10-30T11:56:37Z</time>
      </trkpt>
      <trkpt lat="44.79166" lon="3.57227">
        <ele>1301.28</ele>
        <time>2024-10-30T11:56:59Z</time>
      </trkpt>
      <trkpt lat="44.7917" lon="3.5722">
        <ele>1304.65</ele>
        <time>2024-10-30T11:57:26Z</time>
      </trkpt>
      <trkpt lat="44.79171" lon="3.57221">
        <ele>1307.53</ele>
        <time>2024-10-30T11:57:44Z</time>
      </trkpt>
      <trkpt lat="44.79166" lon="3.57228">
        <ele>1307.53</ele>
        <time>2024-10-30T11:58:05Z</time>
      </trkpt>
      <trkpt lat="44.7917" lon="3.57225">
        <ele>1306.09</ele>
        <time>2024-10-30T11:58:26Z</time>
      </trkpt>
      <trkpt lat="44.79174" lon="3.57223">
        <ele>1305.13</ele>
        <time>2024-10-30T11:58:53Z</time>
      </trkpt>
      <trkpt lat="44.79169" lon="3.57223">
        <ele>1304.65</ele>
        <time>2024-10-30T11:59:21Z</time>
      </trkpt>
      <trkpt lat="44.79176" lon="3.57226">
        <ele>1301.76</ele>
        <time>2024-10-30T11:59:42Z</time>
      </trkpt>
      <trkpt lat="44.79173" lon="3.57226">
        <ele>1298.4</ele>
        <time>2024-10-30T12:00:11Z</time>
      </trkpt>
      <trkpt lat="44.79174" lon="3.57226">
        <ele>1297.44</ele>
        <time>2024-10-30T12:00:38Z</time>
      </trkpt>
      <trkpt lat="44.79168" lon="3.57228">
        <ele>1302.24</ele>
        <time>2024-10-30T12:01:07Z</time>
      </trkpt>
      <trkpt lat="44.79173" lon="3.57225">
        <ele>1303.2</ele>
        <time>2024-10-30T12:01:39Z</time>
      </trkpt>
      <trkpt lat="44.79166" lon="3.57228">
        <ele>1302.24</ele>
        <time>2024-10-30T12:02:02Z</time>
      </trkpt>
      <trkpt lat="44.79159" lon="3.57224">
        <ele>1302.72</ele>
        <time>2024-10-30T12:02:23Z</time>
      </trkpt>
      <trkpt lat="44.7915" lon="3.5723">
        <ele>1303.2</ele>
        <time>2024-10-30T12:02:45Z</time>
      </trkpt>
      <trkpt lat="44.79149" lon="3.57238">
        <ele>1300.8</ele>
        <time>2024-10-30T12:02:49Z</time>
      </trkpt>
      <trkpt lat="44.79149" lon="3.57252">
        <ele>1293.59</ele>
        <time>2024-10-30T12:02:59Z</time>
      </trkpt>
      <trkpt lat="44.79148" lon="3.57254">
        <ele>1293.11</ele>
        <time>2024-10-30T12:03:00Z</time>
      </trkpt>
      <trkpt lat="44.79147" lon="3.57269">
        <ele>1293.11</ele>
        <time>2024-10-30T12:03:11Z</time>
      </trkpt>
      <trkpt lat="44.79145" lon="3.57283">
        <ele>1294.07</ele>
        <time>2024-10-30T12:03:21Z</time>
      </trkpt>
      <trkpt lat="44.79145" lon="3.57285">
        <ele>1294.07</ele>
        <time>2024-10-30T12:03:22Z</time>
      </trkpt>
      <trkpt lat="44.79145" lon="3.57287">
        <ele>1294.07</ele>
        <time>2024-10-30T12:03:23Z</time>
      </trkpt>
      <trkpt lat="44.79147" lon="3.57295">
        <ele>1295.03</ele>
        <time>2024-10-30T12:03:30Z</time>
      </trkpt>
      <trkpt lat="44.79147" lon="3.57296">
        <ele>1295.03</ele>
        <time>2024-10-30T12:03:31Z</time>
      </trkpt>
      <trkpt lat="44.79159" lon="3.573">
        <ele>1295.99</ele>
        <time>2024-10-30T12:03:43Z</time>
      </trkpt>
      <trkpt lat="44.79171" lon="3.57297">
        <ele>1295.99</ele>
        <time>2024-10-30T12:03:55Z</time>
      </trkpt>
      <trkpt lat="44.79192" lon="3.57291">
        <ele>1296.96</ele>
        <time>2024-10-30T12:04:15Z</time>
      </trkpt>
      <trkpt lat="44.79213" lon="3.57283">
        <ele>1298.4</ele>
        <time>2024-10-30T12:04:33Z</time>
      </trkpt>
      <trkpt lat="44.79232" lon="3.57276">
        <ele>1301.76</ele>
        <time>2024-10-30T12:04:51Z</time>
      </trkpt>
      <trkpt lat="44.79249" lon="3.57287">
        <ele>1303.2</ele>
        <time>2024-10-30T12:05:07Z</time>
      </trkpt>
      <trkpt lat="44.7925" lon="3.57289">
        <ele>1303.2</ele>
        <time>2024-10-30T12:05:09Z</time>
      </trkpt>
      <trkpt lat="44.79258" lon="3.57303">
        <ele>1302.72</ele>
        <time>2024-10-30T12:05:20Z</time>
      </trkpt>
      <trkpt lat="44.79272" lon="3.57326">
        <ele>1304.17</ele>
        <time>2024-10-30T12:05:38Z</time>
      </trkpt>
      <trkpt lat="44.79287" lon="3.57342">
        <ele>1305.13</ele>
        <time>2024-10-30T12:06:00Z</time>
      </trkpt>
      <trkpt lat="44.79291" lon="3.57347">
        <ele>1304.17</ele>
        <time>2024-10-30T12:06:16Z</time>
      </trkpt>
      <trkpt lat="44.79305" lon="3.57362">
        <ele>1300.32</ele>
        <time>2024-10-30T12:06:34Z</time>
      </trkpt>
      <trkpt lat="44.79323" lon="3.57374">
        <ele>1299.36</ele>
        <time>2024-10-30T12:06:54Z</time>
      </trkpt>
      <trkpt lat="44.79332" lon="3.57381">
        <ele>1297.92</ele>
        <time>2024-10-30T12:07:03Z</time>
      </trkpt>
      <trkpt lat="44.79352" lon="3.57394">
        <ele>1295.03</ele>
        <time>2024-10-30T12:07:21Z</time>
      </trkpt>
      <trkpt lat="44.79373" lon="3.57406">
        <ele>1292.63</ele>
        <time>2024-10-30T12:07:42Z</time>
      </trkpt>
      <trkpt lat="44.79387" lon="3.57413">
        <ele>1292.15</ele>
        <time>2024-10-30T12:07:55Z</time>
      </trkpt>
      <trkpt lat="44.79393" lon="3.57416">
        <ele>1292.63</ele>
        <time>2024-10-30T12:08:01Z</time>
      </trkpt>
      <trkpt lat="44.79394" lon="3.57417">
        <ele>1292.63</ele>
        <time>2024-10-30T12:08:02Z</time>
      </trkpt>
      <trkpt lat="44.79395" lon="3.57417">
        <ele>1292.63</ele>
        <time>2024-10-30T12:08:03Z</time>
      </trkpt>
      <trkpt lat="44.79403" lon="3.5742">
        <ele>1292.15</ele>
        <time>2024-10-30T12:08:11Z</time>
      </trkpt>
      <trkpt lat="44.7942" lon="3.57427">
        <ele>1291.67</ele>
        <time>2024-10-30T12:08:27Z</time>
      </trkpt>
      <trkpt lat="44.7944" lon="3.57437">
        <ele>1291.67</ele>
        <time>2024-10-30T12:08:45Z</time>
      </trkpt>
      <trkpt lat="44.79461" lon="3.57448">
        <ele>1290.71</ele>
        <time>2024-10-30T12:09:04Z</time>
      </trkpt>
      <trkpt lat="44.7948" lon="3.57454">
        <ele>1289.75</ele>
        <time>2024-10-30T12:09:22Z</time>
      </trkpt>
      <trkpt lat="44.79497" lon="3.57455">
        <ele>1288.78</ele>
        <time>2024-10-30T12:09:37Z</time>
      </trkpt>
      <trkpt lat="44.79516" lon="3.57456">
        <ele>1287.82</ele>
        <time>2024-10-30T12:09:53Z</time>
      </trkpt>
      <trkpt lat="44.79532" lon="3.57454">
        <ele>1286.38</ele>
        <time>2024-10-30T12:10:07Z</time>
      </trkpt>
      <trkpt lat="44.79551" lon="3.57454">
        <ele>1283.02</ele>
        <time>2024-10-30T12:10:23Z</time>
      </trkpt>
      <trkpt lat="44.79569" lon="3.57451">
        <ele>1283.5</ele>
        <time>2024-10-30T12:10:38Z</time>
      </trkpt>
      <trkpt lat="44.79581" lon="3.57448">
        <ele>1281.09</ele>
        <time>2024-10-30T12:10:49Z</time>
      </trkpt>
      <trkpt lat="44.79602" lon="3.57442">
        <ele>1279.17</ele>
        <time>2024-10-30T12:11:07Z</time>
      </trkpt>
      <trkpt lat="44.7962" lon="3.57439">
        <ele>1277.73</ele>
        <time>2024-10-30T12:11:23Z</time>
      </trkpt>
      <trkpt lat="44.79643" lon="3.5744">
        <ele>1278.21</ele>
        <time>2024-10-30T12:11:41Z</time>
      </trkpt>
      <trkpt lat="44.79658" lon="3.57438">
        <ele>1278.69</ele>
        <time>2024-10-30T12:11:55Z</time>
      </trkpt>
      <trkpt lat="44.79675" lon="3.57441">
        <ele>1277.25</ele>
        <time>2024-10-30T12:12:10Z</time>
      </trkpt>
      <trkpt lat="44.79687" lon="3.57442">
        <ele>1275.81</ele>
        <time>2024-10-30T12:12:20Z</time>
      </trkpt>
      <trkpt lat="44.79688" lon="3.57443">
        <ele>1275.81</ele>
        <time>2024-10-30T12:12:21Z</time>
      </trkpt>
      <trkpt lat="44.79704" lon="3.57447">
        <ele>1274.36</ele>
        <time>2024-10-30T12:12:37Z</time>
      </trkpt>
      <trkpt lat="44.79726" lon="3.57452">
        <ele>1273.88</ele>
        <time>2024-10-30T12:12:55Z</time>
      </trkpt>
      <trkpt lat="44.79749" lon="3.57461">
        <ele>1274.85</ele>
        <time>2024-10-30T12:13:15Z</time>
      </trkpt>
      <trkpt lat="44.79771" lon="3.57466">
        <ele>1275.81</ele>
        <time>2024-10-30T12:13:33Z</time>
      </trkpt>
      <trkpt lat="44.79797" lon="3.57467">
        <ele>1277.73</ele>
        <time>2024-10-30T12:13:52Z</time>
      </trkpt>
      <trkpt lat="44.79807" lon="3.57467">
        <ele>1278.69</ele>
        <time>2024-10-30T12:14:01Z</time>
      </trkpt>
      <trkpt lat="44.79822" lon="3.57471">
        <ele>1278.69</ele>
        <time>2024-10-30T12:14:12Z</time>
      </trkpt>
      <trkpt lat="44.79835" lon="3.57477">
        <ele>1279.65</ele>
        <time>2024-10-30T12:14:23Z</time>
      </trkpt>
      <trkpt lat="44.79847" lon="3.57482">
        <ele>1279.65</ele>
        <time>2024-10-30T12:14:34Z</time>
      </trkpt>
      <trkpt lat="44.79859" lon="3.57488">
        <ele>1279.65</ele>
        <time>2024-10-30T12:14:44Z</time>
      </trkpt>
      <trkpt lat="44.79878" lon="3.57495">
        <ele>1278.69</ele>
        <time>2024-10-30T12:14:57Z</time>
      </trkpt>
      <trkpt lat="44.79891" lon="3.57499">
        <ele>1278.69</ele>
        <time>2024-10-30T12:15:08Z</time>
      </trkpt>
      <trkpt lat="44.79905" lon="3.57501">
        <ele>1279.17</ele>
        <time>2024-10-30T12:15:19Z</time>
      </trkpt>
      <trkpt lat="44.7992" lon="3.57505">
        <ele>1279.65</ele>
        <time>2024-10-30T12:15:29Z</time>
      </trkpt>
      <trkpt lat="44.79933" lon="3.57511">
        <ele>1279.17</ele>
        <time>2024-10-30T12:15:40Z</time>
      </trkpt>
      <trkpt lat="44.79945" lon="3.57519">
        <ele>1277.73</ele>
        <time>2024-10-30T12:15:51Z</time>
      </trkpt>
      <trkpt lat="44.79956" lon="3.57525">
        <ele>1276.29</ele>
        <time>2024-10-30T12:16:01Z</time>
      </trkpt>
      <trkpt lat="44.79969" lon="3.57534">
        <ele>1275.81</ele>
        <time>2024-10-30T12:16:13Z</time>
      </trkpt>
      <trkpt lat="44.79971" lon="3.57535">
        <ele>1275.81</ele>
        <time>2024-10-30T12:16:14Z</time>
      </trkpt>
      <trkpt lat="44.79973" lon="3.57536">
        <ele>1275.81</ele>
        <time>2024-10-30T12:16:15Z</time>
      </trkpt>
      <trkpt lat="44.79974" lon="3.57538">
        <ele>1275.81</ele>
        <time>2024-10-30T12:16:16Z</time>
      </trkpt>
      <trkpt lat="44.79976" lon="3.57539">
        <ele>1275.33</ele>
        <time>2024-10-30T12:16:17Z</time>
      </trkpt>
      <trkpt lat="44.79977" lon="3.5754">
        <ele>1275.33</ele>
        <time>2024-10-30T12:16:18Z</time>
      </trkpt>
      <trkpt lat="44.79988" lon="3.57549">
        <ele>1274.85</ele>
        <time>2024-10-30T12:16:29Z</time>
      </trkpt>
      <trkpt lat="44.80003" lon="3.57562">
        <ele>1274.36</ele>
        <time>2024-10-30T12:16:42Z</time>
      </trkpt>
      <trkpt lat="44.80014" lon="3.5757">
        <ele>1274.85</ele>
        <time>2024-10-30T12:16:52Z</time>
      </trkpt>
      <trkpt lat="44.80027" lon="3.57582">
        <ele>1274.36</ele>
        <time>2024-10-30T12:17:03Z</time>
      </trkpt>
      <trkpt lat="44.8004" lon="3.57595">
        <ele>1273.4</ele>
        <time>2024-10-30T12:17:15Z</time>
      </trkpt>
      <trkpt lat="44.80052" lon="3.57607">
        <ele>1272.44</ele>
        <time>2024-10-30T12:17:25Z</time>
      </trkpt>
      <trkpt lat="44.80064" lon="3.5762">
        <ele>1271.48</ele>
        <time>2024-10-30T12:17:36Z</time>
      </trkpt>
      <trkpt lat="44.80076" lon="3.57631">
        <ele>1271</ele>
        <time>2024-10-30T12:17:47Z</time>
      </trkpt>
      <trkpt lat="44.80088" lon="3.5764">
        <ele>1269.56</ele>
        <time>2024-10-30T12:17:58Z</time>
      </trkpt>
      <trkpt lat="44.8009" lon="3.57641">
        <ele>1269.56</ele>
        <time>2024-10-30T12:17:59Z</time>
      </trkpt>
      <trkpt lat="44.80104" lon="3.57652">
        <ele>1268.12</ele>
        <time>2024-10-30T12:18:10Z</time>
      </trkpt>
      <trkpt lat="44.80117" lon="3.57663">
        <ele>1267.64</ele>
        <time>2024-10-30T12:18:23Z</time>
      </trkpt>
      <trkpt lat="44.80127" lon="3.57674">
        <ele>1268.6</ele>
        <time>2024-10-30T12:18:35Z</time>
      </trkpt>
      <trkpt lat="44.80132" lon="3.57676">
        <ele>1268.12</ele>
        <time>2024-10-30T12:18:40Z</time>
      </trkpt>
      <trkpt lat="44.80134" lon="3.57675">
        <ele>1268.12</ele>
        <time>2024-10-30T12:18:41Z</time>
      </trkpt>
      <trkpt lat="44.80136" lon="3.57675">
        <ele>1268.12</ele>
        <time>2024-10-30T12:18:42Z</time>
      </trkpt>
      <trkpt lat="44.80137" lon="3.57675">
        <ele>1268.12</ele>
        <time>2024-10-30T12:18:43Z</time>
      </trkpt>
      <trkpt lat="44.80138" lon="3.57675">
        <ele>1268.12</ele>
        <time>2024-10-30T12:18:44Z</time>
      </trkpt>
      <trkpt lat="44.80155" lon="3.57678">
        <ele>1269.56</ele>
        <time>2024-10-30T12:19:02Z</time>
      </trkpt>
      <trkpt lat="44.80175" lon="3.57681">
        <ele>1270.52</ele>
        <time>2024-10-30T12:19:16Z</time>
      </trkpt>
      <trkpt lat="44.8019" lon="3.57685">
        <ele>1271.48</ele>
        <time>2024-10-30T12:19:28Z</time>
      </trkpt>
      <trkpt lat="44.80203" lon="3.57685">
        <ele>1270.52</ele>
        <time>2024-10-30T12:19:38Z</time>
      </trkpt>
      <trkpt lat="44.80215" lon="3.57692">
        <ele>1270.04</ele>
        <time>2024-10-30T12:19:49Z</time>
      </trkpt>
      <trkpt lat="44.80226" lon="3.57694">
        <ele>1271.48</ele>
        <time>2024-10-30T12:20:00Z</time>
      </trkpt>
      <trkpt lat="44.80227" lon="3.57695">
        <ele>1271.48</ele>
        <time>2024-10-30T12:20:01Z</time>
      </trkpt>
      <trkpt lat="44.80232" lon="3.57695">
        <ele>1272.44</ele>
        <time>2024-10-30T12:20:16Z</time>
      </trkpt>
      <trkpt lat="44.80237" lon="3.57698">
        <ele>1271.48</ele>
        <time>2024-10-30T12:20:32Z</time>
      </trkpt>
      <trkpt lat="44.80236" lon="3.57691">
        <ele>1272.44</ele>
        <time>2024-10-30T12:20:54Z</time>
      </trkpt>
      <trkpt lat="44.80229" lon="3.57683">
        <ele>1273.4</ele>
        <time>2024-10-30T12:21:30Z</time>
      </trkpt>
      <trkpt lat="44.80231" lon="3.57685">
        <ele>1271.48</ele>
        <time>2024-10-30T12:22:03Z</time>
      </trkpt>
      <trkpt lat="44.80233" lon="3.57693">
        <ele>1270.52</ele>
        <time>2024-10-30T12:22:33Z</time>
      </trkpt>
      <trkpt lat="44.80234" lon="3.57693">
        <ele>1271.48</ele>
        <time>2024-10-30T12:23:09Z</time>
      </trkpt>
      <trkpt lat="44.80242" lon="3.57702">
        <ele>1270.04</ele>
        <time>2024-10-30T12:23:25Z</time>
      </trkpt>
      <trkpt lat="44.80256" lon="3.57713">
        <ele>1270.52</ele>
        <time>2024-10-30T12:23:40Z</time>
      </trkpt>
      <trkpt lat="44.80278" lon="3.57716">
        <ele>1271.48</ele>
        <time>2024-10-30T12:23:58Z</time>
      </trkpt>
      <trkpt lat="44.80292" lon="3.5773">
        <ele>1268.6</ele>
        <time>2024-10-30T12:24:11Z</time>
      </trkpt>
      <trkpt lat="44.80296" lon="3.57734">
        <ele>1267.16</ele>
        <time>2024-10-30T12:24:16Z</time>
      </trkpt>
      <trkpt lat="44.80303" lon="3.57738">
        <ele>1266.67</ele>
        <time>2024-10-30T12:24:23Z</time>
      </trkpt>
      <trkpt lat="44.80307" lon="3.57739">
        <ele>1266.19</ele>
        <time>2024-10-30T12:24:25Z</time>
      </trkpt>
      <trkpt lat="44.80313" lon="3.57741">
        <ele>1266.67</ele>
        <time>2024-10-30T12:24:32Z</time>
      </trkpt>
      <trkpt lat="44.80318" lon="3.57742">
        <ele>1266.67</ele>
        <time>2024-10-30T12:24:37Z</time>
      </trkpt>
      <trkpt lat="44.8032" lon="3.57742">
        <ele>1266.67</ele>
        <time>2024-10-30T12:24:38Z</time>
      </trkpt>
      <trkpt lat="44.80334" lon="3.57744">
        <ele>1264.75</ele>
        <time>2024-10-30T12:24:50Z</time>
      </trkpt>
      <trkpt lat="44.80346" lon="3.57744">
        <ele>1264.27</ele>
        <time>2024-10-30T12:25:00Z</time>
      </trkpt>
      <trkpt lat="44.80363" lon="3.57749">
        <ele>1264.75</ele>
        <time>2024-10-30T12:25:13Z</time>
      </trkpt>
      <trkpt lat="44.80375" lon="3.57755">
        <ele>1261.87</ele>
        <time>2024-10-30T12:25:23Z</time>
      </trkpt>
      <trkpt lat="44.80381" lon="3.57757">
        <ele>1260.43</ele>
        <time>2024-10-30T12:25:27Z</time>
      </trkpt>
      <trkpt lat="44.80391" lon="3.57762">
        <ele>1258.5</ele>
        <time>2024-10-30T12:25:36Z</time>
      </trkpt>
      <trkpt lat="44.80395" lon="3.57762">
        <ele>1258.02</ele>
        <time>2024-10-30T12:25:40Z</time>
      </trkpt>
      <trkpt lat="44.80397" lon="3.57762">
        <ele>1257.54</ele>
        <time>2024-10-30T12:25:41Z</time>
      </trkpt>
      <trkpt lat="44.80398" lon="3.57762">
        <ele>1257.54</ele>
        <time>2024-10-30T12:25:42Z</time>
      </trkpt>
      <trkpt lat="44.80405" lon="3.57764">
        <ele>1257.06</ele>
        <time>2024-10-30T12:25:48Z</time>
      </trkpt>
      <trkpt lat="44.80407" lon="3.57764">
        <ele>1256.58</ele>
        <time>2024-10-30T12:25:49Z</time>
      </trkpt>
      <trkpt lat="44.80419" lon="3.57764">
        <ele>1254.66</ele>
        <time>2024-10-30T12:25:59Z</time>
      </trkpt>
      <trkpt lat="44.80421" lon="3.57762">
        <ele>1254.18</ele>
        <time>2024-10-30T12:26:01Z</time>
      </trkpt>
      <trkpt lat="44.80422" lon="3.57761">
        <ele>1254.18</ele>
        <time>2024-10-30T12:26:02Z</time>
      </trkpt>
      <trkpt lat="44.80423" lon="3.5776">
        <ele>1254.66</ele>
        <time>2024-10-30T12:26:03Z</time>
      </trkpt>
      <trkpt lat="44.80425" lon="3.5776">
        <ele>1254.66</ele>
        <time>2024-10-30T12:26:04Z</time>
      </trkpt>
      <trkpt lat="44.80437" lon="3.57755">
        <ele>1253.7</ele>
        <time>2024-10-30T12:26:15Z</time>
      </trkpt>
      <trkpt lat="44.80452" lon="3.57751">
        <ele>1252.74</ele>
        <time>2024-10-30T12:26:27Z</time>
      </trkpt>
      <trkpt lat="44.80466" lon="3.57752">
        <ele>1253.7</ele>
        <time>2024-10-30T12:26:40Z</time>
      </trkpt>
      <trkpt lat="44.80483" lon="3.57754">
        <ele>1255.14</ele>
        <time>2024-10-30T12:26:51Z</time>
      </trkpt>
      <trkpt lat="44.80488" lon="3.57754">
        <ele>1255.62</ele>
        <time>2024-10-30T12:26:56Z</time>
      </trkpt>
      <trkpt lat="44.80496" lon="3.57754">
        <ele>1256.58</ele>
        <time>2024-10-30T12:27:08Z</time>
      </trkpt>
      <trkpt lat="44.80501" lon="3.57759">
        <ele>1257.54</ele>
        <time>2024-10-30T12:27:27Z</time>
      </trkpt>
      <trkpt lat="44.80513" lon="3.57756">
        <ele>1259.46</ele>
        <time>2024-10-30T12:27:41Z</time>
      </trkpt>
      <trkpt lat="44.80514" lon="3.57757">
        <ele>1259.46</ele>
        <time>2024-10-30T12:27:42Z</time>
      </trkpt>
      <trkpt lat="44.80523" lon="3.57757">
        <ele>1259.94</ele>
        <time>2024-10-30T12:27:50Z</time>
      </trkpt>
      <trkpt lat="44.80525" lon="3.57756">
        <ele>1259.46</ele>
        <time>2024-10-30T12:27:51Z</time>
      </trkpt>
      <trkpt lat="44.8053" lon="3.57754">
        <ele>1259.46</ele>
        <time>2024-10-30T12:27:54Z</time>
      </trkpt>
      <trkpt lat="44.80546" lon="3.57755">
        <ele>1256.58</ele>
        <time>2024-10-30T12:28:05Z</time>
      </trkpt>
      <trkpt lat="44.80558" lon="3.57755">
        <ele>1254.66</ele>
        <time>2024-10-30T12:28:16Z</time>
      </trkpt>
      <trkpt lat="44.80568" lon="3.57754">
        <ele>1257.54</ele>
        <time>2024-10-30T12:28:26Z</time>
      </trkpt>
      <trkpt lat="44.80586" lon="3.57754">
        <ele>1260.91</ele>
        <time>2024-10-30T12:28:40Z</time>
      </trkpt>
      <trkpt lat="44.80595" lon="3.57755">
        <ele>1264.27</ele>
        <time>2024-10-30T12:28:51Z</time>
      </trkpt>
      <trkpt lat="44.806" lon="3.57753">
        <ele>1264.27</ele>
        <time>2024-10-30T12:28:54Z</time>
      </trkpt>
      <trkpt lat="44.80602" lon="3.57753">
        <ele>1263.79</ele>
        <time>2024-10-30T12:28:55Z</time>
      </trkpt>
      <trkpt lat="44.80619" lon="3.57749">
        <ele>1257.54</ele>
        <time>2024-10-30T12:29:05Z</time>
      </trkpt>
      <trkpt lat="44.80631" lon="3.57749">
        <ele>1255.14</ele>
        <time>2024-10-30T12:29:15Z</time>
      </trkpt>
      <trkpt lat="44.80636" lon="3.57745">
        <ele>1254.66</ele>
        <time>2024-10-30T12:29:20Z</time>
      </trkpt>
      <trkpt lat="44.80638" lon="3.57743">
        <ele>1254.18</ele>
        <time>2024-10-30T12:29:21Z</time>
      </trkpt>
      <trkpt lat="44.8064" lon="3.57742">
        <ele>1254.18</ele>
        <time>2024-10-30T12:29:22Z</time>
      </trkpt>
      <trkpt lat="44.80652" lon="3.5774">
        <ele>1253.7</ele>
        <time>2024-10-30T12:29:31Z</time>
      </trkpt>
      <trkpt lat="44.80665" lon="3.57743">
        <ele>1252.74</ele>
        <time>2024-10-30T12:29:42Z</time>
      </trkpt>
      <trkpt lat="44.80669" lon="3.57741">
        <ele>1253.7</ele>
        <time>2024-10-30T12:29:46Z</time>
      </trkpt>
      <trkpt lat="44.80685" lon="3.57737">
        <ele>1256.1</ele>
        <time>2024-10-30T12:29:58Z</time>
      </trkpt>
      <trkpt lat="44.80689" lon="3.57736">
        <ele>1257.54</ele>
        <time>2024-10-30T12:30:03Z</time>
      </trkpt>
      <trkpt lat="44.8069" lon="3.57736">
        <ele>1258.02</ele>
        <time>2024-10-30T12:30:04Z</time>
      </trkpt>
      <trkpt lat="44.80692" lon="3.57736">
        <ele>1258.5</ele>
        <time>2024-10-30T12:30:05Z</time>
      </trkpt>
      <trkpt lat="44.80698" lon="3.57733">
        <ele>1260.91</ele>
        <time>2024-10-30T12:30:12Z</time>
      </trkpt>
      <trkpt lat="44.807" lon="3.57732">
        <ele>1261.39</ele>
        <time>2024-10-30T12:30:13Z</time>
      </trkpt>
      <trkpt lat="44.80711" lon="3.57727">
        <ele>1262.35</ele>
        <time>2024-10-30T12:30:21Z</time>
      </trkpt>
      <trkpt lat="44.80713" lon="3.57727">
        <ele>1262.83</ele>
        <time>2024-10-30T12:30:22Z</time>
      </trkpt>
      <trkpt lat="44.80715" lon="3.57727">
        <ele>1262.83</ele>
        <time>2024-10-30T12:30:23Z</time>
      </trkpt>
      <trkpt lat="44.80717" lon="3.57727">
        <ele>1262.83</ele>
        <time>2024-10-30T12:30:24Z</time>
      </trkpt>
      <trkpt lat="44.80718" lon="3.57727">
        <ele>1262.35</ele>
        <time>2024-10-30T12:30:25Z</time>
      </trkpt>
      <trkpt lat="44.8073" lon="3.57732">
        <ele>1261.39</ele>
        <time>2024-10-30T12:30:35Z</time>
      </trkpt>
      <trkpt lat="44.80734" lon="3.57737">
        <ele>1260.43</ele>
        <time>2024-10-30T12:30:40Z</time>
      </trkpt>
      <trkpt lat="44.80735" lon="3.57739">
        <ele>1259.94</ele>
        <time>2024-10-30T12:30:41Z</time>
      </trkpt>
      <trkpt lat="44.80741" lon="3.57765">
        <ele>1256.1</ele>
        <time>2024-10-30T12:30:55Z</time>
      </trkpt>
      <trkpt lat="44.80741" lon="3.57767">
        <ele>1256.1</ele>
        <time>2024-10-30T12:30:56Z</time>
      </trkpt>
      <trkpt lat="44.80737" lon="3.57786">
        <ele>1253.7</ele>
        <time>2024-10-30T12:31:10Z</time>
      </trkpt>
      <trkpt lat="44.80737" lon="3.57799">
        <ele>1251.29</ele>
        <time>2024-10-30T12:31:18Z</time>
      </trkpt>
      <trkpt lat="44.80742" lon="3.57812">
        <ele>1247.45</ele>
        <time>2024-10-30T12:31:27Z</time>
      </trkpt>
      <trkpt lat="44.80752" lon="3.57823">
        <ele>1244.08</ele>
        <time>2024-10-30T12:31:42Z</time>
      </trkpt>
      <trkpt lat="44.80769" lon="3.57825">
        <ele>1242.64</ele>
        <time>2024-10-30T12:31:54Z</time>
      </trkpt>
      <trkpt lat="44.80783" lon="3.57832">
        <ele>1241.2</ele>
        <time>2024-10-30T12:32:09Z</time>
      </trkpt>
      <trkpt lat="44.80813" lon="3.57839">
        <ele>1236.39</ele>
        <time>2024-10-30T12:32:27Z</time>
      </trkpt>
      <trkpt lat="44.80834" lon="3.57839">
        <ele>1237.35</ele>
        <time>2024-10-30T12:32:47Z</time>
      </trkpt>
      <trkpt lat="44.80862" lon="3.57832">
        <ele>1236.87</ele>
        <time>2024-10-30T12:33:06Z</time>
      </trkpt>
      <trkpt lat="44.80887" lon="3.57834">
        <ele>1238.32</ele>
        <time>2024-10-30T12:33:27Z</time>
      </trkpt>
      <trkpt lat="44.80907" lon="3.5784">
        <ele>1238.32</ele>
        <time>2024-10-30T12:33:43Z</time>
      </trkpt>
      <trkpt lat="44.80912" lon="3.57834">
        <ele>1236.39</ele>
        <time>2024-10-30T12:33:44Z</time>
      </trkpt>
      <trkpt lat="44.80914" lon="3.57834">
        <ele>1235.91</ele>
        <time>2024-10-30T12:33:45Z</time>
      </trkpt>
      <trkpt lat="44.80925" lon="3.57842">
        <ele>1235.91</ele>
        <time>2024-10-30T12:33:55Z</time>
      </trkpt>
      <trkpt lat="44.80941" lon="3.57856">
        <ele>1233.51</ele>
        <time>2024-10-30T12:34:08Z</time>
      </trkpt>
      <trkpt lat="44.80957" lon="3.57875">
        <ele>1228.7</ele>
        <time>2024-10-30T12:34:24Z</time>
      </trkpt>
      <trkpt lat="44.8097" lon="3.57896">
        <ele>1224.86</ele>
        <time>2024-10-30T12:34:37Z</time>
      </trkpt>
      <trkpt lat="44.80977" lon="3.57898">
        <ele>1223.42</ele>
        <time>2024-10-30T12:34:45Z</time>
      </trkpt>
      <trkpt lat="44.80983" lon="3.57891">
        <ele>1222.93</ele>
        <time>2024-10-30T12:34:51Z</time>
      </trkpt>
      <trkpt lat="44.80995" lon="3.57868">
        <ele>1221.01</ele>
        <time>2024-10-30T12:35:05Z</time>
      </trkpt>
      <trkpt lat="44.81007" lon="3.57852">
        <ele>1219.09</ele>
        <time>2024-10-30T12:35:18Z</time>
      </trkpt>
      <trkpt lat="44.81017" lon="3.57833">
        <ele>1217.65</ele>
        <time>2024-10-30T12:35:30Z</time>
      </trkpt>
      <trkpt lat="44.81019" lon="3.57831">
        <ele>1217.17</ele>
        <time>2024-10-30T12:35:31Z</time>
      </trkpt>
      <trkpt lat="44.81022" lon="3.57825">
        <ele>1216.69</ele>
        <time>2024-10-30T12:35:36Z</time>
      </trkpt>
      <trkpt lat="44.8103" lon="3.57809">
        <ele>1214.76</ele>
        <time>2024-10-30T12:35:47Z</time>
      </trkpt>
      <trkpt lat="44.8104" lon="3.57794">
        <ele>1213.32</ele>
        <time>2024-10-30T12:35:58Z</time>
      </trkpt>
      <trkpt lat="44.81041" lon="3.57792">
        <ele>1213.32</ele>
        <time>2024-10-30T12:35:59Z</time>
      </trkpt>
      <trkpt lat="44.81052" lon="3.57775">
        <ele>1208.51</ele>
        <time>2024-10-30T12:36:11Z</time>
      </trkpt>
      <trkpt lat="44.8106" lon="3.57762">
        <ele>1207.07</ele>
        <time>2024-10-30T12:36:21Z</time>
      </trkpt>
      <trkpt lat="44.8106" lon="3.57759">
        <ele>1207.07</ele>
        <time>2024-10-30T12:36:23Z</time>
      </trkpt>
      <trkpt lat="44.81061" lon="3.57746">
        <ele>1205.63</ele>
        <time>2024-10-30T12:36:32Z</time>
      </trkpt>
      <trkpt lat="44.8106" lon="3.57743">
        <ele>1205.15</ele>
        <time>2024-10-30T12:36:33Z</time>
      </trkpt>
      <trkpt lat="44.81059" lon="3.57741">
        <ele>1205.15</ele>
        <time>2024-10-30T12:36:34Z</time>
      </trkpt>
      <trkpt lat="44.81052" lon="3.57724">
        <ele>1204.19</ele>
        <time>2024-10-30T12:36:45Z</time>
      </trkpt>
      <trkpt lat="44.81042" lon="3.57706">
        <ele>1204.67</ele>
        <time>2024-10-30T12:36:58Z</time>
      </trkpt>
      <trkpt lat="44.81033" lon="3.57695">
        <ele>1203.71</ele>
        <time>2024-10-30T12:37:08Z</time>
      </trkpt>
      <trkpt lat="44.81032" lon="3.57694">
        <ele>1203.71</ele>
        <time>2024-10-30T12:37:09Z</time>
      </trkpt>
      <trkpt lat="44.81023" lon="3.57685">
        <ele>1202.27</ele>
        <time>2024-10-30T12:37:21Z</time>
      </trkpt>
      <trkpt lat="44.81022" lon="3.57681">
        <ele>1202.27</ele>
        <time>2024-10-30T12:37:23Z</time>
      </trkpt>
      <trkpt lat="44.81022" lon="3.57679">
        <ele>1202.27</ele>
        <time>2024-10-30T12:37:24Z</time>
      </trkpt>
      <trkpt lat="44.81021" lon="3.57676">
        <ele>1202.27</ele>
        <time>2024-10-30T12:37:25Z</time>
      </trkpt>
      <trkpt lat="44.81018" lon="3.57667">
        <ele>1202.75</ele>
        <time>2024-10-30T12:37:31Z</time>
      </trkpt>
      <trkpt lat="44.81022" lon="3.57642">
        <ele>1198.9</ele>
        <time>2024-10-30T12:37:43Z</time>
      </trkpt>
      <trkpt lat="44.8103" lon="3.57618">
        <ele>1190.73</ele>
        <time>2024-10-30T12:37:56Z</time>
      </trkpt>
      <trkpt lat="44.81037" lon="3.57602">
        <ele>1188.33</ele>
        <time>2024-10-30T12:38:09Z</time>
      </trkpt>
      <trkpt lat="44.81046" lon="3.57577">
        <ele>1185.44</ele>
        <time>2024-10-30T12:38:24Z</time>
      </trkpt>
      <trkpt lat="44.81053" lon="3.57564">
        <ele>1183.52</ele>
        <time>2024-10-30T12:38:34Z</time>
      </trkpt>
      <trkpt lat="44.81053" lon="3.57562">
        <ele>1183.52</ele>
        <time>2024-10-30T12:38:35Z</time>
      </trkpt>
      <trkpt lat="44.81054" lon="3.5756">
        <ele>1183.04</ele>
        <time>2024-10-30T12:38:36Z</time>
      </trkpt>
      <trkpt lat="44.81056" lon="3.57557">
        <ele>1182.56</ele>
        <time>2024-10-30T12:38:37Z</time>
      </trkpt>
      <trkpt lat="44.81057" lon="3.57556">
        <ele>1182.56</ele>
        <time>2024-10-30T12:38:38Z</time>
      </trkpt>
      <trkpt lat="44.81059" lon="3.5755">
        <ele>1181.12</ele>
        <time>2024-10-30T12:38:43Z</time>
      </trkpt>
      <trkpt lat="44.8106" lon="3.57547">
        <ele>1181.12</ele>
        <time>2024-10-30T12:38:44Z</time>
      </trkpt>
      <trkpt lat="44.81061" lon="3.57545">
        <ele>1180.64</ele>
        <time>2024-10-30T12:38:45Z</time>
      </trkpt>
      <trkpt lat="44.81067" lon="3.57539">
        <ele>1179.19</ele>
        <time>2024-10-30T12:38:55Z</time>
      </trkpt>
      <trkpt lat="44.81068" lon="3.57541">
        <ele>1178.71</ele>
        <time>2024-10-30T12:38:56Z</time>
      </trkpt>
      <trkpt lat="44.81073" lon="3.5755">
        <ele>1177.27</ele>
        <time>2024-10-30T12:39:05Z</time>
      </trkpt>
      <trkpt lat="44.81074" lon="3.5755">
        <ele>1176.79</ele>
        <time>2024-10-30T12:39:06Z</time>
      </trkpt>
      <trkpt lat="44.81077" lon="3.57547">
        <ele>1176.31</ele>
        <time>2024-10-30T12:39:10Z</time>
      </trkpt>
      <trkpt lat="44.81078" lon="3.57545">
        <ele>1176.31</ele>
        <time>2024-10-30T12:39:11Z</time>
      </trkpt>
      <trkpt lat="44.81081" lon="3.57538">
        <ele>1175.35</ele>
        <time>2024-10-30T12:39:16Z</time>
      </trkpt>
      <trkpt lat="44.81081" lon="3.57537">
        <ele>1175.35</ele>
        <time>2024-10-30T12:39:17Z</time>
      </trkpt>
      <trkpt lat="44.81082" lon="3.57535">
        <ele>1174.87</ele>
        <time>2024-10-30T12:39:18Z</time>
      </trkpt>
      <trkpt lat="44.81082" lon="3.57534">
        <ele>1174.87</ele>
        <time>2024-10-30T12:39:19Z</time>
      </trkpt>
      <trkpt lat="44.8109" lon="3.57517">
        <ele>1169.58</ele>
        <time>2024-10-30T12:39:32Z</time>
      </trkpt>
      <trkpt lat="44.81099" lon="3.57505">
        <ele>1162.85</ele>
        <time>2024-10-30T12:39:45Z</time>
      </trkpt>
      <trkpt lat="44.81116" lon="3.57492">
        <ele>1159.97</ele>
        <time>2024-10-30T12:40:00Z</time>
      </trkpt>
      <trkpt lat="44.81128" lon="3.57479">
        <ele>1159.97</ele>
        <time>2024-10-30T12:40:12Z</time>
      </trkpt>
      <trkpt lat="44.81142" lon="3.57467">
        <ele>1159.97</ele>
        <time>2024-10-30T12:40:24Z</time>
      </trkpt>
      <trkpt lat="44.8116" lon="3.57454">
        <ele>1159.49</ele>
        <time>2024-10-30T12:40:43Z</time>
      </trkpt>
      <trkpt lat="44.81183" lon="3.5744">
        <ele>1158.53</ele>
        <time>2024-10-30T12:41:02Z</time>
      </trkpt>
      <trkpt lat="44.81199" lon="3.57426">
        <ele>1156.12</ele>
        <time>2024-10-30T12:41:17Z</time>
      </trkpt>
      <trkpt lat="44.81212" lon="3.57418">
        <ele>1155.16</ele>
        <time>2024-10-30T12:41:33Z</time>
      </trkpt>
      <trkpt lat="44.81214" lon="3.57411">
        <ele>1153.24</ele>
        <time>2024-10-30T12:41:54Z</time>
      </trkpt>
      <trkpt lat="44.81226" lon="3.57376">
        <ele>1152.28</ele>
        <time>2024-10-30T12:42:13Z</time>
      </trkpt>
      <trkpt lat="44.8124" lon="3.57344">
        <ele>1151.32</ele>
        <time>2024-10-30T12:42:33Z</time>
      </trkpt>
      <trkpt lat="44.81256" lon="3.57332">
        <ele>1150.84</ele>
        <time>2024-10-30T12:42:52Z</time>
      </trkpt>
      <trkpt lat="44.81258" lon="3.5733">
        <ele>1148.91</ele>
        <time>2024-10-30T12:43:07Z</time>
      </trkpt>
      <trkpt lat="44.81266" lon="3.57327">
        <ele>1147.47</ele>
        <time>2024-10-30T12:43:20Z</time>
      </trkpt>
      <trkpt lat="44.81285" lon="3.57315">
        <ele>1146.03</ele>
        <time>2024-10-30T12:43:37Z</time>
      </trkpt>
      <trkpt lat="44.81303" lon="3.57302">
        <ele>1149.87</ele>
        <time>2024-10-30T12:43:56Z</time>
      </trkpt>
      <trkpt lat="44.81316" lon="3.57298">
        <ele>1154.68</ele>
        <time>2024-10-30T12:44:06Z</time>
      </trkpt>
      <trkpt lat="44.81328" lon="3.573">
        <ele>1156.6</ele>
        <time>2024-10-30T12:44:19Z</time>
      </trkpt>
      <trkpt lat="44.81338" lon="3.57295">
        <ele>1158.05</ele>
        <time>2024-10-30T12:44:36Z</time>
      </trkpt>
      <trkpt lat="44.8134" lon="3.57296">
        <ele>1158.53</ele>
        <time>2024-10-30T12:45:02Z</time>
      </trkpt>
      <trkpt lat="44.81362" lon="3.57294">
        <ele>1158.05</ele>
        <time>2024-10-30T12:45:20Z</time>
      </trkpt>
      <trkpt lat="44.81387" lon="3.57286">
        <ele>1157.56</ele>
        <time>2024-10-30T12:45:39Z</time>
      </trkpt>
      <trkpt lat="44.8139" lon="3.57282">
        <ele>1157.08</ele>
        <time>2024-10-30T12:45:42Z</time>
      </trkpt>
      <trkpt lat="44.81391" lon="3.5728">
        <ele>1157.08</ele>
        <time>2024-10-30T12:45:43Z</time>
      </trkpt>
      <trkpt lat="44.81392" lon="3.57278">
        <ele>1157.08</ele>
        <time>2024-10-30T12:45:44Z</time>
      </trkpt>
      <trkpt lat="44.81392" lon="3.57276">
        <ele>1157.08</ele>
        <time>2024-10-30T12:45:45Z</time>
      </trkpt>
      <trkpt lat="44.81393" lon="3.57274">
        <ele>1157.56</ele>
        <time>2024-10-30T12:45:46Z</time>
      </trkpt>
      <trkpt lat="44.81394" lon="3.57265">
        <ele>1158.05</ele>
        <time>2024-10-30T12:45:51Z</time>
      </trkpt>
      <trkpt lat="44.81388" lon="3.5723">
        <ele>1158.53</ele>
        <time>2024-10-30T12:46:10Z</time>
      </trkpt>
      <trkpt lat="44.81381" lon="3.57198">
        <ele>1159.97</ele>
        <time>2024-10-30T12:46:27Z</time>
      </trkpt>
      <trkpt lat="44.8137" lon="3.57171">
        <ele>1161.41</ele>
        <time>2024-10-30T12:46:44Z</time>
      </trkpt>
      <trkpt lat="44.8136" lon="3.5714">
        <ele>1161.89</ele>
        <time>2024-10-30T12:47:02Z</time>
      </trkpt>
      <trkpt lat="44.81351" lon="3.57107">
        <ele>1162.85</ele>
        <time>2024-10-30T12:47:20Z</time>
      </trkpt>
      <trkpt lat="44.81348" lon="3.57071">
        <ele>1160.45</ele>
        <time>2024-10-30T12:47:39Z</time>
      </trkpt>
      <trkpt lat="44.81345" lon="3.57033">
        <ele>1159.97</ele>
        <time>2024-10-30T12:47:58Z</time>
      </trkpt>
      <trkpt lat="44.81347" lon="3.56996">
        <ele>1159.97</ele>
        <time>2024-10-30T12:48:18Z</time>
      </trkpt>
      <trkpt lat="44.81355" lon="3.56972">
        <ele>1156.6</ele>
        <time>2024-10-30T12:48:32Z</time>
      </trkpt>
      <trkpt lat="44.81368" lon="3.56946">
        <ele>1154.2</ele>
        <time>2024-10-30T12:48:47Z</time>
      </trkpt>
      <trkpt lat="44.8137" lon="3.56915">
        <ele>1153.72</ele>
        <time>2024-10-30T12:49:04Z</time>
      </trkpt>
      <trkpt lat="44.81363" lon="3.56882">
        <ele>1154.68</ele>
        <time>2024-10-30T12:49:22Z</time>
      </trkpt>
      <trkpt lat="44.81354" lon="3.56848">
        <ele>1157.08</ele>
        <time>2024-10-30T12:49:42Z</time>
      </trkpt>
      <trkpt lat="44.81354" lon="3.5682">
        <ele>1160.45</ele>
        <time>2024-10-30T12:49:59Z</time>
      </trkpt>
      <trkpt lat="44.81357" lon="3.56793">
        <ele>1164.29</ele>
        <time>2024-10-30T12:50:16Z</time>
      </trkpt>
      <trkpt lat="44.81366" lon="3.56768">
        <ele>1167.18</ele>
        <time>2024-10-30T12:50:34Z</time>
      </trkpt>
      <trkpt lat="44.81377" lon="3.56736">
        <ele>1171.02</ele>
        <time>2024-10-30T12:50:55Z</time>
      </trkpt>
      <trkpt lat="44.8139" lon="3.56704">
        <ele>1173.91</ele>
        <time>2024-10-30T12:51:14Z</time>
      </trkpt>
      <trkpt lat="44.81403" lon="3.56671">
        <ele>1177.75</ele>
        <time>2024-10-30T12:51:34Z</time>
      </trkpt>
      <trkpt lat="44.81416" lon="3.56635">
        <ele>1181.12</ele>
        <time>2024-10-30T12:51:57Z</time>
      </trkpt>
      <trkpt lat="44.81425" lon="3.56603">
        <ele>1184.96</ele>
        <time>2024-10-30T12:52:18Z</time>
      </trkpt>
      <trkpt lat="44.8143" lon="3.56567">
        <ele>1184</ele>
        <time>2024-10-30T12:52:37Z</time>
      </trkpt>
      <trkpt lat="44.81435" lon="3.56539">
        <ele>1187.37</ele>
        <time>2024-10-30T12:52:53Z</time>
      </trkpt>
      <trkpt lat="44.81441" lon="3.56519">
        <ele>1188.81</ele>
        <time>2024-10-30T12:53:04Z</time>
      </trkpt>
      <trkpt lat="44.81449" lon="3.56503">
        <ele>1190.25</ele>
        <time>2024-10-30T12:53:15Z</time>
      </trkpt>
      <trkpt lat="44.81453" lon="3.56492">
        <ele>1190.25</ele>
        <time>2024-10-30T12:53:21Z</time>
      </trkpt>
      <trkpt lat="44.81454" lon="3.56489">
        <ele>1190.25</ele>
        <time>2024-10-30T12:53:23Z</time>
      </trkpt>
      <trkpt lat="44.81455" lon="3.56487">
        <ele>1190.25</ele>
        <time>2024-10-30T12:53:24Z</time>
      </trkpt>
      <trkpt lat="44.81456" lon="3.56485">
        <ele>1190.25</ele>
        <time>2024-10-30T12:53:25Z</time>
      </trkpt>
      <trkpt lat="44.81456" lon="3.56483">
        <ele>1190.73</ele>
        <time>2024-10-30T12:53:26Z</time>
      </trkpt>
      <trkpt lat="44.8146" lon="3.56468">
        <ele>1190.73</ele>
        <time>2024-10-30T12:53:36Z</time>
      </trkpt>
      <trkpt lat="44.81466" lon="3.56453">
        <ele>1192.65</ele>
        <time>2024-10-30T12:53:45Z</time>
      </trkpt>
      <trkpt lat="44.81467" lon="3.56448">
        <ele>1192.65</ele>
        <time>2024-10-30T12:53:49Z</time>
      </trkpt>
      <trkpt lat="44.81467" lon="3.56447">
        <ele>1192.65</ele>
        <time>2024-10-30T12:53:50Z</time>
      </trkpt>
      <trkpt lat="44.8147" lon="3.56427">
        <ele>1194.09</ele>
        <time>2024-10-30T12:54:04Z</time>
      </trkpt>
      <trkpt lat="44.81477" lon="3.56411">
        <ele>1195.54</ele>
        <time>2024-10-30T12:54:15Z</time>
      </trkpt>
      <trkpt lat="44.81485" lon="3.5639">
        <ele>1196.02</ele>
        <time>2024-10-30T12:54:27Z</time>
      </trkpt>
      <trkpt lat="44.81492" lon="3.56368">
        <ele>1197.94</ele>
        <time>2024-10-30T12:54:39Z</time>
      </trkpt>
      <trkpt lat="44.81499" lon="3.56351">
        <ele>1202.27</ele>
        <time>2024-10-30T12:54:53Z</time>
      </trkpt>
      <trkpt lat="44.81504" lon="3.56338">
        <ele>1202.27</ele>
        <time>2024-10-30T12:55:01Z</time>
      </trkpt>
      <trkpt lat="44.81512" lon="3.5632">
        <ele>1202.27</ele>
        <time>2024-10-30T12:55:11Z</time>
      </trkpt>
      <trkpt lat="44.81517" lon="3.56307">
        <ele>1201.3</ele>
        <time>2024-10-30T12:55:19Z</time>
      </trkpt>
      <trkpt lat="44.81525" lon="3.56294">
        <ele>1201.79</ele>
        <time>2024-10-30T12:55:29Z</time>
      </trkpt>
      <trkpt lat="44.81526" lon="3.56291">
        <ele>1201.79</ele>
        <time>2024-10-30T12:55:31Z</time>
      </trkpt>
      <trkpt lat="44.81534" lon="3.56276">
        <ele>1200.82</ele>
        <time>2024-10-30T12:55:41Z</time>
      </trkpt>
      <trkpt lat="44.81535" lon="3.56272">
        <ele>1200.34</ele>
        <time>2024-10-30T12:55:43Z</time>
      </trkpt>
      <trkpt lat="44.81536" lon="3.5627">
        <ele>1200.34</ele>
        <time>2024-10-30T12:55:44Z</time>
      </trkpt>
      <trkpt lat="44.81536" lon="3.56268">
        <ele>1199.86</ele>
        <time>2024-10-30T12:55:45Z</time>
      </trkpt>
      <trkpt lat="44.81537" lon="3.56266">
        <ele>1200.34</ele>
        <time>2024-10-30T12:55:46Z</time>
      </trkpt>
      <trkpt lat="44.81537" lon="3.56263">
        <ele>1200.34</ele>
        <time>2024-10-30T12:55:47Z</time>
      </trkpt>
      <trkpt lat="44.81539" lon="3.56246">
        <ele>1201.3</ele>
        <time>2024-10-30T12:55:58Z</time>
      </trkpt>
      <trkpt lat="44.81542" lon="3.56226">
        <ele>1201.3</ele>
        <time>2024-10-30T12:56:08Z</time>
      </trkpt>
      <trkpt lat="44.81543" lon="3.56205">
        <ele>1201.3</ele>
        <time>2024-10-30T12:56:18Z</time>
      </trkpt>
      <trkpt lat="44.81543" lon="3.56188">
        <ele>1201.79</ele>
        <time>2024-10-30T12:56:28Z</time>
      </trkpt>
      <trkpt lat="44.81544" lon="3.56166">
        <ele>1202.75</ele>
        <time>2024-10-30T12:56:40Z</time>
      </trkpt>
      <trkpt lat="44.81548" lon="3.56147">
        <ele>1203.23</ele>
        <time>2024-10-30T12:56:50Z</time>
      </trkpt>
      <trkpt lat="44.81552" lon="3.56129">
        <ele>1202.27</ele>
        <time>2024-10-30T12:57:01Z</time>
      </trkpt>
      <trkpt lat="44.81558" lon="3.56112">
        <ele>1202.27</ele>
        <time>2024-10-30T12:57:12Z</time>
      </trkpt>
      <trkpt lat="44.81561" lon="3.5611">
        <ele>1200.82</ele>
        <time>2024-10-30T12:57:23Z</time>
      </trkpt>
      <trkpt lat="44.81565" lon="3.56095">
        <ele>1202.75</ele>
        <time>2024-10-30T12:57:33Z</time>
      </trkpt>
      <trkpt lat="44.81569" lon="3.56078">
        <ele>1203.23</ele>
        <time>2024-10-30T12:57:44Z</time>
      </trkpt>
      <trkpt lat="44.81575" lon="3.56063">
        <ele>1204.19</ele>
        <time>2024-10-30T12:57:55Z</time>
      </trkpt>
      <trkpt lat="44.8158" lon="3.56044">
        <ele>1205.15</ele>
        <time>2024-10-30T12:58:06Z</time>
      </trkpt>
      <trkpt lat="44.81588" lon="3.56023">
        <ele>1206.59</ele>
        <time>2024-10-30T12:58:20Z</time>
      </trkpt>
      <trkpt lat="44.81588" lon="3.56021">
        <ele>1206.59</ele>
        <time>2024-10-30T12:58:21Z</time>
      </trkpt>
      <trkpt lat="44.81588" lon="3.56019">
        <ele>1206.59</ele>
        <time>2024-10-30T12:58:22Z</time>
      </trkpt>
      <trkpt lat="44.81591" lon="3.56006">
        <ele>1208.03</ele>
        <time>2024-10-30T12:58:30Z</time>
      </trkpt>
      <trkpt lat="44.81595" lon="3.5599">
        <ele>1209</ele>
        <time>2024-10-30T12:58:41Z</time>
      </trkpt>
      <trkpt lat="44.81597" lon="3.55982">
        <ele>1209</ele>
        <time>2024-10-30T12:58:47Z</time>
      </trkpt>
      <trkpt lat="44.81595" lon="3.55973">
        <ele>1209</ele>
        <time>2024-10-30T12:58:53Z</time>
      </trkpt>
      <trkpt lat="44.81595" lon="3.55971">
        <ele>1208.51</ele>
        <time>2024-10-30T12:58:56Z</time>
      </trkpt>
      <trkpt lat="44.81594" lon="3.55969">
        <ele>1208.51</ele>
        <time>2024-10-30T12:58:57Z</time>
      </trkpt>
      <trkpt lat="44.81586" lon="3.55962">
        <ele>1207.55</ele>
        <time>2024-10-30T12:59:07Z</time>
      </trkpt>
      <trkpt lat="44.81585" lon="3.5596">
        <ele>1207.55</ele>
        <time>2024-10-30T12:59:08Z</time>
      </trkpt>
      <trkpt lat="44.81584" lon="3.55957">
        <ele>1207.55</ele>
        <time>2024-10-30T12:59:09Z</time>
      </trkpt>
      <trkpt lat="44.81578" lon="3.55945">
        <ele>1207.07</ele>
        <time>2024-10-30T12:59:18Z</time>
      </trkpt>
      <trkpt lat="44.81578" lon="3.55943">
        <ele>1206.59</ele>
        <time>2024-10-30T12:59:19Z</time>
      </trkpt>
      <trkpt lat="44.81575" lon="3.55916">
        <ele>1206.59</ele>
        <time>2024-10-30T12:59:35Z</time>
      </trkpt>
      <trkpt lat="44.81576" lon="3.559">
        <ele>1205.63</ele>
        <time>2024-10-30T12:59:46Z</time>
      </trkpt>
      <trkpt lat="44.81576" lon="3.55899">
        <ele>1205.63</ele>
        <time>2024-10-30T12:59:47Z</time>
      </trkpt>
      <trkpt lat="44.81562" lon="3.55889">
        <ele>1205.63</ele>
        <time>2024-10-30T13:00:01Z</time>
      </trkpt>
      <trkpt lat="44.81557" lon="3.55888">
        <ele>1205.63</ele>
        <time>2024-10-30T13:00:06Z</time>
      </trkpt>
      <trkpt lat="44.81547" lon="3.55884">
        <ele>1205.15</ele>
        <time>2024-10-30T13:00:15Z</time>
      </trkpt>
      <trkpt lat="44.81545" lon="3.55883">
        <ele>1205.15</ele>
        <time>2024-10-30T13:00:16Z</time>
      </trkpt>
      <trkpt lat="44.81544" lon="3.55883">
        <ele>1204.67</ele>
        <time>2024-10-30T13:00:17Z</time>
      </trkpt>
      <trkpt lat="44.81542" lon="3.55882">
        <ele>1204.67</ele>
        <time>2024-10-30T13:00:18Z</time>
      </trkpt>
      <trkpt lat="44.81533" lon="3.55877">
        <ele>1203.71</ele>
        <time>2024-10-30T13:00:28Z</time>
      </trkpt>
      <trkpt lat="44.8152" lon="3.55867">
        <ele>1204.67</ele>
        <time>2024-10-30T13:00:38Z</time>
      </trkpt>
      <trkpt lat="44.8151" lon="3.55857">
        <ele>1205.63</ele>
        <time>2024-10-30T13:00:47Z</time>
      </trkpt>
      <trkpt lat="44.81496" lon="3.55846">
        <ele>1205.63</ele>
        <time>2024-10-30T13:00:59Z</time>
      </trkpt>
      <trkpt lat="44.81488" lon="3.55837">
        <ele>1202.75</ele>
        <time>2024-10-30T13:01:09Z</time>
      </trkpt>
      <trkpt lat="44.81487" lon="3.55836">
        <ele>1202.27</ele>
        <time>2024-10-30T13:01:10Z</time>
      </trkpt>
      <trkpt lat="44.81485" lon="3.55835">
        <ele>1201.79</ele>
        <time>2024-10-30T13:01:11Z</time>
      </trkpt>
      <trkpt lat="44.81484" lon="3.55834">
        <ele>1201.79</ele>
        <time>2024-10-30T13:01:12Z</time>
      </trkpt>
      <trkpt lat="44.81483" lon="3.55833">
        <ele>1201.79</ele>
        <time>2024-10-30T13:01:13Z</time>
      </trkpt>
      <trkpt lat="44.81471" lon="3.55832">
        <ele>1200.82</ele>
        <time>2024-10-30T13:01:24Z</time>
      </trkpt>
      <trkpt lat="44.81465" lon="3.55835">
        <ele>1200.34</ele>
        <time>2024-10-30T13:01:28Z</time>
      </trkpt>
      <trkpt lat="44.81454" lon="3.55843">
        <ele>1199.38</ele>
        <time>2024-10-30T13:01:39Z</time>
      </trkpt>
      <trkpt lat="44.81442" lon="3.55852">
        <ele>1196.98</ele>
        <time>2024-10-30T13:01:50Z</time>
      </trkpt>
      <trkpt lat="44.8143" lon="3.55858">
        <ele>1194.58</ele>
        <time>2024-10-30T13:02:01Z</time>
      </trkpt>
      <trkpt lat="44.81418" lon="3.55867">
        <ele>1192.65</ele>
        <time>2024-10-30T13:02:11Z</time>
      </trkpt>
      <trkpt lat="44.81406" lon="3.55874">
        <ele>1190.25</ele>
        <time>2024-10-30T13:02:21Z</time>
      </trkpt>
      <trkpt lat="44.81394" lon="3.55881">
        <ele>1188.33</ele>
        <time>2024-10-30T13:02:31Z</time>
      </trkpt>
      <trkpt lat="44.81383" lon="3.55888">
        <ele>1185.92</ele>
        <time>2024-10-30T13:02:42Z</time>
      </trkpt>
      <trkpt lat="44.8137" lon="3.55893">
        <ele>1184</ele>
        <time>2024-10-30T13:02:53Z</time>
      </trkpt>
      <trkpt lat="44.81351" lon="3.55895">
        <ele>1181.6</ele>
        <time>2024-10-30T13:03:10Z</time>
      </trkpt>
      <trkpt lat="44.81336" lon="3.55895">
        <ele>1180.64</ele>
        <time>2024-10-30T13:03:21Z</time>
      </trkpt>
      <trkpt lat="44.81334" lon="3.55892">
        <ele>1181.12</ele>
        <time>2024-10-30T13:03:22Z</time>
      </trkpt>
      <trkpt lat="44.81317" lon="3.55888">
        <ele>1181.6</ele>
        <time>2024-10-30T13:03:33Z</time>
      </trkpt>
      <trkpt lat="44.81302" lon="3.55886">
        <ele>1182.08</ele>
        <time>2024-10-30T13:03:44Z</time>
      </trkpt>
      <trkpt lat="44.8129" lon="3.55888">
        <ele>1181.12</ele>
        <time>2024-10-30T13:03:54Z</time>
      </trkpt>
      <trkpt lat="44.81276" lon="3.55892">
        <ele>1180.64</ele>
        <time>2024-10-30T13:04:05Z</time>
      </trkpt>
      <trkpt lat="44.81264" lon="3.55895">
        <ele>1177.75</ele>
        <time>2024-10-30T13:04:15Z</time>
      </trkpt>
      <trkpt lat="44.8125" lon="3.55898">
        <ele>1174.87</ele>
        <time>2024-10-30T13:04:26Z</time>
      </trkpt>
      <trkpt lat="44.81236" lon="3.55902">
        <ele>1172.95</ele>
        <time>2024-10-30T13:04:37Z</time>
      </trkpt>
      <trkpt lat="44.81224" lon="3.55905">
        <ele>1170.54</ele>
        <time>2024-10-30T13:04:46Z</time>
      </trkpt>
      <trkpt lat="44.81208" lon="3.55912">
        <ele>1169.1</ele>
        <time>2024-10-30T13:04:59Z</time>
      </trkpt>
      <trkpt lat="44.81195" lon="3.55918">
        <ele>1167.18</ele>
        <time>2024-10-30T13:05:10Z</time>
      </trkpt>
      <trkpt lat="44.8118" lon="3.55926">
        <ele>1166.22</ele>
        <time>2024-10-30T13:05:22Z</time>
      </trkpt>
      <trkpt lat="44.81161" lon="3.55931">
        <ele>1165.74</ele>
        <time>2024-10-30T13:05:37Z</time>
      </trkpt>
      <trkpt lat="44.81144" lon="3.55927">
        <ele>1162.85</ele>
        <time>2024-10-30T13:05:49Z</time>
      </trkpt>
      <trkpt lat="44.8113" lon="3.55917">
        <ele>1161.41</ele>
        <time>2024-10-30T13:06:01Z</time>
      </trkpt>
      <trkpt lat="44.81116" lon="3.55905">
        <ele>1160.45</ele>
        <time>2024-10-30T13:06:14Z</time>
      </trkpt>
      <trkpt lat="44.81106" lon="3.55888">
        <ele>1158.53</ele>
        <time>2024-10-30T13:06:27Z</time>
      </trkpt>
      <trkpt lat="44.81107" lon="3.55888">
        <ele>1156.6</ele>
        <time>2024-10-30T13:06:33Z</time>
      </trkpt>
      <trkpt lat="44.81107" lon="3.5589">
        <ele>1155.64</ele>
        <time>2024-10-30T13:06:46Z</time>
      </trkpt>
      <trkpt lat="44.81105" lon="3.55884">
        <ele>1154.68</ele>
        <time>2024-10-30T13:06:55Z</time>
      </trkpt>
      <trkpt lat="44.81104" lon="3.55883">
        <ele>1154.68</ele>
        <time>2024-10-30T13:06:56Z</time>
      </trkpt>
      <trkpt lat="44.81103" lon="3.55881">
        <ele>1154.68</ele>
        <time>2024-10-30T13:06:57Z</time>
      </trkpt>
      <trkpt lat="44.81101" lon="3.55879">
        <ele>1154.68</ele>
        <time>2024-10-30T13:06:58Z</time>
      </trkpt>
      <trkpt lat="44.81087" lon="3.55865">
        <ele>1154.2</ele>
        <time>2024-10-30T13:07:10Z</time>
      </trkpt>
      <trkpt lat="44.81074" lon="3.55859">
        <ele>1153.72</ele>
        <time>2024-10-30T13:07:21Z</time>
      </trkpt>
      <trkpt lat="44.8106" lon="3.55854">
        <ele>1153.72</ele>
        <time>2024-10-30T13:07:33Z</time>
      </trkpt>
      <trkpt lat="44.8105" lon="3.55846">
        <ele>1154.68</ele>
        <time>2024-10-30T13:07:43Z</time>
      </trkpt>
      <trkpt lat="44.81038" lon="3.55826">
        <ele>1156.12</ele>
        <time>2024-10-30T13:08:01Z</time>
      </trkpt>
      <trkpt lat="44.81038" lon="3.5582">
        <ele>1156.6</ele>
        <time>2024-10-30T13:08:16Z</time>
      </trkpt>
      <trkpt lat="44.81032" lon="3.55797">
        <ele>1157.08</ele>
        <time>2024-10-30T13:08:32Z</time>
      </trkpt>
      <trkpt lat="44.81024" lon="3.55761">
        <ele>1158.53</ele>
        <time>2024-10-30T13:08:51Z</time>
      </trkpt>
      <trkpt lat="44.81013" lon="3.55733">
        <ele>1159.49</ele>
        <time>2024-10-30T13:09:09Z</time>
      </trkpt>
      <trkpt lat="44.81008" lon="3.55722">
        <ele>1159.01</ele>
        <time>2024-10-30T13:09:28Z</time>
      </trkpt>
      <trkpt lat="44.81007" lon="3.5572">
        <ele>1158.53</ele>
        <time>2024-10-30T13:09:57Z</time>
      </trkpt>
      <trkpt lat="44.81007" lon="3.5572">
        <ele>1156.12</ele>
        <time>2024-10-30T13:10:27Z</time>
      </trkpt>
      <trkpt lat="44.81002" lon="3.557">
        <ele>1156.12</ele>
        <time>2024-10-30T13:10:46Z</time>
      </trkpt>
      <trkpt lat="44.80994" lon="3.5567">
        <ele>1155.64</ele>
        <time>2024-10-30T13:11:03Z</time>
      </trkpt>
      <trkpt lat="44.80987" lon="3.55637">
        <ele>1157.08</ele>
        <time>2024-10-30T13:11:22Z</time>
      </trkpt>
      <trkpt lat="44.80982" lon="3.55611">
        <ele>1159.01</ele>
        <time>2024-10-30T13:11:39Z</time>
      </trkpt>
      <trkpt lat="44.80981" lon="3.55608">
        <ele>1160.45</ele>
        <time>2024-10-30T13:11:49Z</time>
      </trkpt>
      <trkpt lat="44.8098" lon="3.55606">
        <ele>1160.45</ele>
        <time>2024-10-30T13:11:50Z</time>
      </trkpt>
      <trkpt lat="44.80973" lon="3.55592">
        <ele>1161.89</ele>
        <time>2024-10-30T13:12:06Z</time>
      </trkpt>
      <trkpt lat="44.80968" lon="3.5557">
        <ele>1166.7</ele>
        <time>2024-10-30T13:12:24Z</time>
      </trkpt>
      <trkpt lat="44.80969" lon="3.55555">
        <ele>1168.62</ele>
        <time>2024-10-30T13:12:40Z</time>
      </trkpt>
      <trkpt lat="44.80966" lon="3.55553">
        <ele>1170.06</ele>
        <time>2024-10-30T13:13:00Z</time>
      </trkpt>
      <trkpt lat="44.80965" lon="3.55544">
        <ele>1167.66</ele>
        <time>2024-10-30T13:13:22Z</time>
      </trkpt>
      <trkpt lat="44.80959" lon="3.55536">
        <ele>1167.66</ele>
        <time>2024-10-30T13:13:28Z</time>
      </trkpt>
      <trkpt lat="44.80958" lon="3.55535">
        <ele>1167.66</ele>
        <time>2024-10-30T13:13:29Z</time>
      </trkpt>
      <trkpt lat="44.80957" lon="3.55534">
        <ele>1167.66</ele>
        <time>2024-10-30T13:13:30Z</time>
      </trkpt>
      <trkpt lat="44.80936" lon="3.55524">
        <ele>1171.02</ele>
        <time>2024-10-30T13:13:47Z</time>
      </trkpt>
      <trkpt lat="44.80916" lon="3.55515">
        <ele>1173.91</ele>
        <time>2024-10-30T13:14:03Z</time>
      </trkpt>
      <trkpt lat="44.80897" lon="3.55505">
        <ele>1174.87</ele>
        <time>2024-10-30T13:14:20Z</time>
      </trkpt>
      <trkpt lat="44.80882" lon="3.55497">
        <ele>1176.79</ele>
        <time>2024-10-30T13:14:36Z</time>
      </trkpt>
      <trkpt lat="44.80869" lon="3.55488">
        <ele>1178.71</ele>
        <time>2024-10-30T13:14:50Z</time>
      </trkpt>
      <trkpt lat="44.80858" lon="3.55483">
        <ele>1180.16</ele>
        <time>2024-10-30T13:15:02Z</time>
      </trkpt>
      <trkpt lat="44.80857" lon="3.55482">
        <ele>1180.16</ele>
        <time>2024-10-30T13:15:03Z</time>
      </trkpt>
      <trkpt lat="44.80839" lon="3.55478">
        <ele>1181.6</ele>
        <time>2024-10-30T13:15:20Z</time>
      </trkpt>
      <trkpt lat="44.80817" lon="3.55471">
        <ele>1183.04</ele>
        <time>2024-10-30T13:15:39Z</time>
      </trkpt>
      <trkpt lat="44.80802" lon="3.55465">
        <ele>1182.08</ele>
        <time>2024-10-30T13:15:51Z</time>
      </trkpt>
      <trkpt lat="44.80796" lon="3.55461">
        <ele>1181.12</ele>
        <time>2024-10-30T13:15:57Z</time>
      </trkpt>
      <trkpt lat="44.80794" lon="3.5546">
        <ele>1180.16</ele>
        <time>2024-10-30T13:16:04Z</time>
      </trkpt>
      <trkpt lat="44.80782" lon="3.55453">
        <ele>1179.67</ele>
        <time>2024-10-30T13:16:15Z</time>
      </trkpt>
      <trkpt lat="44.80771" lon="3.55446">
        <ele>1180.16</ele>
        <time>2024-10-30T13:16:26Z</time>
      </trkpt>
      <trkpt lat="44.80758" lon="3.55436">
        <ele>1181.12</ele>
        <time>2024-10-30T13:16:36Z</time>
      </trkpt>
      <trkpt lat="44.80742" lon="3.55423">
        <ele>1184</ele>
        <time>2024-10-30T13:16:48Z</time>
      </trkpt>
      <trkpt lat="44.80733" lon="3.55416">
        <ele>1187.37</ele>
        <time>2024-10-30T13:16:58Z</time>
      </trkpt>
      <trkpt lat="44.80722" lon="3.55402">
        <ele>1187.85</ele>
        <time>2024-10-30T13:17:08Z</time>
      </trkpt>
      <trkpt lat="44.80713" lon="3.55388">
        <ele>1189.29</ele>
        <time>2024-10-30T13:17:18Z</time>
      </trkpt>
      <trkpt lat="44.80703" lon="3.55373">
        <ele>1190.73</ele>
        <time>2024-10-30T13:17:28Z</time>
      </trkpt>
      <trkpt lat="44.80696" lon="3.55361">
        <ele>1191.21</ele>
        <time>2024-10-30T13:17:38Z</time>
      </trkpt>
      <trkpt lat="44.80685" lon="3.55343">
        <ele>1192.17</ele>
        <time>2024-10-30T13:17:49Z</time>
      </trkpt>
      <trkpt lat="44.80674" lon="3.55329">
        <ele>1193.61</ele>
        <time>2024-10-30T13:18:01Z</time>
      </trkpt>
      <trkpt lat="44.80663" lon="3.55318">
        <ele>1193.61</ele>
        <time>2024-10-30T13:18:11Z</time>
      </trkpt>
      <trkpt lat="44.80651" lon="3.55305">
        <ele>1195.06</ele>
        <time>2024-10-30T13:18:21Z</time>
      </trkpt>
      <trkpt lat="44.80635" lon="3.55288">
        <ele>1195.06</ele>
        <time>2024-10-30T13:18:37Z</time>
      </trkpt>
      <trkpt lat="44.80617" lon="3.5526">
        <ele>1195.06</ele>
        <time>2024-10-30T13:18:57Z</time>
      </trkpt>
      <trkpt lat="44.80602" lon="3.55237">
        <ele>1195.54</ele>
        <time>2024-10-30T13:19:13Z</time>
      </trkpt>
      <trkpt lat="44.80588" lon="3.55215">
        <ele>1196.5</ele>
        <time>2024-10-30T13:19:29Z</time>
      </trkpt>
      <trkpt lat="44.80569" lon="3.55187">
        <ele>1197.94</ele>
        <time>2024-10-30T13:19:49Z</time>
      </trkpt>
      <trkpt lat="44.8055" lon="3.55159">
        <ele>1199.38</ele>
        <time>2024-10-30T13:20:09Z</time>
      </trkpt>
      <trkpt lat="44.80536" lon="3.55134">
        <ele>1202.27</ele>
        <time>2024-10-30T13:20:25Z</time>
      </trkpt>
      <trkpt lat="44.80523" lon="3.55111">
        <ele>1199.86</ele>
        <time>2024-10-30T13:20:41Z</time>
      </trkpt>
      <trkpt lat="44.80506" lon="3.55098">
        <ele>1193.13</ele>
        <time>2024-10-30T13:20:57Z</time>
      </trkpt>
      <trkpt lat="44.80496" lon="3.55083">
        <ele>1192.17</ele>
        <time>2024-10-30T13:21:07Z</time>
      </trkpt>
      <trkpt lat="44.80489" lon="3.55067">
        <ele>1191.69</ele>
        <time>2024-10-30T13:21:17Z</time>
      </trkpt>
      <trkpt lat="44.80483" lon="3.55052">
        <ele>1192.17</ele>
        <time>2024-10-30T13:21:27Z</time>
      </trkpt>
      <trkpt lat="44.80481" lon="3.55039">
        <ele>1192.17</ele>
        <time>2024-10-30T13:21:36Z</time>
      </trkpt>
      <trkpt lat="44.80482" lon="3.55037">
        <ele>1192.17</ele>
        <time>2024-10-30T13:21:37Z</time>
      </trkpt>
      <trkpt lat="44.80483" lon="3.55034">
        <ele>1192.17</ele>
        <time>2024-10-30T13:21:38Z</time>
      </trkpt>
      <trkpt lat="44.80485" lon="3.55032">
        <ele>1192.17</ele>
        <time>2024-10-30T13:21:41Z</time>
      </trkpt>
      <trkpt lat="44.80486" lon="3.5503">
        <ele>1192.65</ele>
        <time>2024-10-30T13:21:42Z</time>
      </trkpt>
      <trkpt lat="44.80487" lon="3.55029">
        <ele>1192.65</ele>
        <time>2024-10-30T13:21:43Z</time>
      </trkpt>
      <trkpt lat="44.80488" lon="3.55027">
        <ele>1192.65</ele>
        <time>2024-10-30T13:21:44Z</time>
      </trkpt>
      <trkpt lat="44.80489" lon="3.55027">
        <ele>1192.65</ele>
        <time>2024-10-30T13:21:45Z</time>
      </trkpt>
      <trkpt lat="44.80502" lon="3.55015">
        <ele>1193.61</ele>
        <time>2024-10-30T13:21:56Z</time>
      </trkpt>
      <trkpt lat="44.80512" lon="3.55005">
        <ele>1194.58</ele>
        <time>2024-10-30T13:22:05Z</time>
      </trkpt>
      <trkpt lat="44.80525" lon="3.54995">
        <ele>1195.06</ele>
        <time>2024-10-30T13:22:17Z</time>
      </trkpt>
      <trkpt lat="44.80537" lon="3.54986">
        <ele>1196.5</ele>
        <time>2024-10-30T13:22:26Z</time>
      </trkpt>
      <trkpt lat="44.80548" lon="3.54978">
        <ele>1196.98</ele>
        <time>2024-10-30T13:22:37Z</time>
      </trkpt>
      <trkpt lat="44.8056" lon="3.54968">
        <ele>1198.9</ele>
        <time>2024-10-30T13:22:47Z</time>
      </trkpt>
      <trkpt lat="44.80572" lon="3.5496">
        <ele>1200.34</ele>
        <time>2024-10-30T13:22:57Z</time>
      </trkpt>
      <trkpt lat="44.80583" lon="3.5495">
        <ele>1199.86</ele>
        <time>2024-10-30T13:23:08Z</time>
      </trkpt>
      <trkpt lat="44.80595" lon="3.54939">
        <ele>1201.3</ele>
        <time>2024-10-30T13:23:18Z</time>
      </trkpt>
      <trkpt lat="44.80609" lon="3.54926">
        <ele>1203.71</ele>
        <time>2024-10-30T13:23:28Z</time>
      </trkpt>
      <trkpt lat="44.80615" lon="3.54916">
        <ele>1205.63</ele>
        <time>2024-10-30T13:23:38Z</time>
      </trkpt>
      <trkpt lat="44.80631" lon="3.54902">
        <ele>1207.07</ele>
        <time>2024-10-30T13:23:52Z</time>
      </trkpt>
      <trkpt lat="44.80654" lon="3.54889">
        <ele>1208.03</ele>
        <time>2024-10-30T13:24:10Z</time>
      </trkpt>
      <trkpt lat="44.80675" lon="3.54873">
        <ele>1208.51</ele>
        <time>2024-10-30T13:24:27Z</time>
      </trkpt>
      <trkpt lat="44.807" lon="3.5486">
        <ele>1209.96</ele>
        <time>2024-10-30T13:24:46Z</time>
      </trkpt>
      <trkpt lat="44.80722" lon="3.54848">
        <ele>1210.92</ele>
        <time>2024-10-30T13:25:03Z</time>
      </trkpt>
      <trkpt lat="44.8074" lon="3.5484">
        <ele>1211.88</ele>
        <time>2024-10-30T13:25:18Z</time>
      </trkpt>
      <trkpt lat="44.80751" lon="3.54835">
        <ele>1212.84</ele>
        <time>2024-10-30T13:25:26Z</time>
      </trkpt>
      <trkpt lat="44.80767" lon="3.54809">
        <ele>1212.84</ele>
        <time>2024-10-30T13:25:43Z</time>
      </trkpt>
      <trkpt lat="44.80776" lon="3.54794">
        <ele>1211.88</ele>
        <time>2024-10-30T13:25:57Z</time>
      </trkpt>
      <trkpt lat="44.80792" lon="3.54776">
        <ele>1212.36</ele>
        <time>2024-10-30T13:26:11Z</time>
      </trkpt>
      <trkpt lat="44.8081" lon="3.54756">
        <ele>1213.32</ele>
        <time>2024-10-30T13:26:27Z</time>
      </trkpt>
      <trkpt lat="44.80826" lon="3.54739">
        <ele>1211.88</ele>
        <time>2024-10-30T13:26:42Z</time>
      </trkpt>
      <trkpt lat="44.80843" lon="3.54719">
        <ele>1213.32</ele>
        <time>2024-10-30T13:26:57Z</time>
      </trkpt>
      <trkpt lat="44.80858" lon="3.54697">
        <ele>1213.8</ele>
        <time>2024-10-30T13:27:13Z</time>
      </trkpt>
      <trkpt lat="44.80876" lon="3.54677">
        <ele>1215.24</ele>
        <time>2024-10-30T13:27:31Z</time>
      </trkpt>
      <trkpt lat="44.80882" lon="3.54674">
        <ele>1215.72</ele>
        <time>2024-10-30T13:27:45Z</time>
      </trkpt>
      <trkpt lat="44.80893" lon="3.54666">
        <ele>1216.21</ele>
        <time>2024-10-30T13:27:58Z</time>
      </trkpt>
      <trkpt lat="44.80901" lon="3.5466">
        <ele>1215.24</ele>
        <time>2024-10-30T13:28:13Z</time>
      </trkpt>
      <trkpt lat="44.80904" lon="3.5466">
        <ele>1214.76</ele>
        <time>2024-10-30T13:28:35Z</time>
      </trkpt>
      <trkpt lat="44.80906" lon="3.54657">
        <ele>1214.28</ele>
        <time>2024-10-30T13:28:55Z</time>
      </trkpt>
      <trkpt lat="44.80903" lon="3.54655">
        <ele>1212.84</ele>
        <time>2024-10-30T13:29:18Z</time>
      </trkpt>
      <trkpt lat="44.80902" lon="3.54656">
        <ele>1212.84</ele>
        <time>2024-10-30T13:29:43Z</time>
      </trkpt>
      <trkpt lat="44.80908" lon="3.54655">
        <ele>1213.8</ele>
        <time>2024-10-30T13:29:58Z</time>
      </trkpt>
      <trkpt lat="44.80913" lon="3.54642">
        <ele>1213.8</ele>
        <time>2024-10-30T13:30:08Z</time>
      </trkpt>
      <trkpt lat="44.80924" lon="3.54622">
        <ele>1211.4</ele>
        <time>2024-10-30T13:30:23Z</time>
      </trkpt>
      <trkpt lat="44.80931" lon="3.54613">
        <ele>1209.96</ele>
        <time>2024-10-30T13:30:31Z</time>
      </trkpt>
      <trkpt lat="44.80932" lon="3.54612">
        <ele>1209.96</ele>
        <time>2024-10-30T13:30:32Z</time>
      </trkpt>
      <trkpt lat="44.80933" lon="3.54611">
        <ele>1209.48</ele>
        <time>2024-10-30T13:30:33Z</time>
      </trkpt>
      <trkpt lat="44.8095" lon="3.54591">
        <ele>1207.55</ele>
        <time>2024-10-30T13:30:50Z</time>
      </trkpt>
      <trkpt lat="44.80962" lon="3.54571">
        <ele>1208.03</ele>
        <time>2024-10-30T13:31:04Z</time>
      </trkpt>
      <trkpt lat="44.80969" lon="3.54557">
        <ele>1207.07</ele>
        <time>2024-10-30T13:31:13Z</time>
      </trkpt>
      <trkpt lat="44.8098" lon="3.54546">
        <ele>1205.63</ele>
        <time>2024-10-30T13:31:24Z</time>
      </trkpt>
      <trkpt lat="44.81" lon="3.54531">
        <ele>1204.19</ele>
        <time>2024-10-30T13:31:41Z</time>
      </trkpt>
      <trkpt lat="44.81018" lon="3.54511">
        <ele>1202.75</ele>
        <time>2024-10-30T13:31:59Z</time>
      </trkpt>
      <trkpt lat="44.8103" lon="3.54486">
        <ele>1202.27</ele>
        <time>2024-10-30T13:32:15Z</time>
      </trkpt>
      <trkpt lat="44.81045" lon="3.54458">
        <ele>1202.27</ele>
        <time>2024-10-30T13:32:32Z</time>
      </trkpt>
      <trkpt lat="44.8106" lon="3.54437">
        <ele>1201.79</ele>
        <time>2024-10-30T13:32:48Z</time>
      </trkpt>
      <trkpt lat="44.81079" lon="3.54415">
        <ele>1200.34</ele>
        <time>2024-10-30T13:33:07Z</time>
      </trkpt>
      <trkpt lat="44.81103" lon="3.54402">
        <ele>1200.82</ele>
        <time>2024-10-30T13:33:26Z</time>
      </trkpt>
      <trkpt lat="44.81125" lon="3.54391">
        <ele>1200.82</ele>
        <time>2024-10-30T13:33:43Z</time>
      </trkpt>
      <trkpt lat="44.81151" lon="3.54376">
        <ele>1201.3</ele>
        <time>2024-10-30T13:34:03Z</time>
      </trkpt>
      <trkpt lat="44.81177" lon="3.54366">
        <ele>1202.75</ele>
        <time>2024-10-30T13:34:22Z</time>
      </trkpt>
      <trkpt lat="44.81196" lon="3.54356">
        <ele>1203.71</ele>
        <time>2024-10-30T13:34:38Z</time>
      </trkpt>
      <trkpt lat="44.81214" lon="3.54343">
        <ele>1201.79</ele>
        <time>2024-10-30T13:34:52Z</time>
      </trkpt>
      <trkpt lat="44.81234" lon="3.54322">
        <ele>1199.38</ele>
        <time>2024-10-30T13:35:11Z</time>
      </trkpt>
      <trkpt lat="44.81248" lon="3.54298">
        <ele>1198.42</ele>
        <time>2024-10-30T13:35:28Z</time>
      </trkpt>
      <trkpt lat="44.81264" lon="3.54274">
        <ele>1197.94</ele>
        <time>2024-10-30T13:35:47Z</time>
      </trkpt>
      <trkpt lat="44.81266" lon="3.54269">
        <ele>1197.94</ele>
        <time>2024-10-30T13:35:50Z</time>
      </trkpt>
      <trkpt lat="44.8128" lon="3.54248">
        <ele>1197.46</ele>
        <time>2024-10-30T13:36:04Z</time>
      </trkpt>
      <trkpt lat="44.81295" lon="3.54219">
        <ele>1196.98</ele>
        <time>2024-10-30T13:36:24Z</time>
      </trkpt>
      <trkpt lat="44.8131" lon="3.54185">
        <ele>1194.58</ele>
        <time>2024-10-30T13:36:44Z</time>
      </trkpt>
      <trkpt lat="44.8133" lon="3.54156">
        <ele>1190.73</ele>
        <time>2024-10-30T13:37:04Z</time>
      </trkpt>
      <trkpt lat="44.81344" lon="3.54129">
        <ele>1186.88</ele>
        <time>2024-10-30T13:37:21Z</time>
      </trkpt>
      <trkpt lat="44.81358" lon="3.54103">
        <ele>1185.92</ele>
        <time>2024-10-30T13:37:38Z</time>
      </trkpt>
      <trkpt lat="44.81371" lon="3.54078">
        <ele>1184.96</ele>
        <time>2024-10-30T13:37:54Z</time>
      </trkpt>
      <trkpt lat="44.81384" lon="3.54053">
        <ele>1185.44</ele>
        <time>2024-10-30T13:38:11Z</time>
      </trkpt>
      <trkpt lat="44.81394" lon="3.5403">
        <ele>1184.96</ele>
        <time>2024-10-30T13:38:26Z</time>
      </trkpt>
      <trkpt lat="44.81408" lon="3.54009">
        <ele>1184</ele>
        <time>2024-10-30T13:38:41Z</time>
      </trkpt>
      <trkpt lat="44.81414" lon="3.54003">
        <ele>1182.08</ele>
        <time>2024-10-30T13:38:50Z</time>
      </trkpt>
      <trkpt lat="44.81416" lon="3.54">
        <ele>1182.08</ele>
        <time>2024-10-30T13:38:52Z</time>
      </trkpt>
      <trkpt lat="44.81417" lon="3.53998">
        <ele>1181.6</ele>
        <time>2024-10-30T13:38:53Z</time>
      </trkpt>
      <trkpt lat="44.81427" lon="3.53969">
        <ele>1179.67</ele>
        <time>2024-10-30T13:39:11Z</time>
      </trkpt>
      <trkpt lat="44.81436" lon="3.5393">
        <ele>1180.64</ele>
        <time>2024-10-30T13:39:31Z</time>
      </trkpt>
      <trkpt lat="44.81436" lon="3.53896">
        <ele>1179.67</ele>
        <time>2024-10-30T13:39:49Z</time>
      </trkpt>
      <trkpt lat="44.81443" lon="3.53856">
        <ele>1179.67</ele>
        <time>2024-10-30T13:40:10Z</time>
      </trkpt>
      <trkpt lat="44.81453" lon="3.53831">
        <ele>1178.23</ele>
        <time>2024-10-30T13:40:26Z</time>
      </trkpt>
      <trkpt lat="44.81468" lon="3.53806">
        <ele>1176.79</ele>
        <time>2024-10-30T13:40:43Z</time>
      </trkpt>
      <trkpt lat="44.81482" lon="3.53785">
        <ele>1175.83</ele>
        <time>2024-10-30T13:41:00Z</time>
      </trkpt>
      <trkpt lat="44.81488" lon="3.53778">
        <ele>1175.83</ele>
        <time>2024-10-30T13:41:06Z</time>
      </trkpt>
      <trkpt lat="44.81489" lon="3.53776">
        <ele>1176.31</ele>
        <time>2024-10-30T13:41:07Z</time>
      </trkpt>
      <trkpt lat="44.81505" lon="3.53753">
        <ele>1175.35</ele>
        <time>2024-10-30T13:41:24Z</time>
      </trkpt>
      <trkpt lat="44.81526" lon="3.53725">
        <ele>1178.23</ele>
        <time>2024-10-30T13:41:44Z</time>
      </trkpt>
      <trkpt lat="44.81539" lon="3.53708">
        <ele>1177.75</ele>
        <time>2024-10-30T13:41:55Z</time>
      </trkpt>
      <trkpt lat="44.81549" lon="3.53693">
        <ele>1177.27</ele>
        <time>2024-10-30T13:42:05Z</time>
      </trkpt>
      <trkpt lat="44.81564" lon="3.53684">
        <ele>1178.23</ele>
        <time>2024-10-30T13:42:19Z</time>
      </trkpt>
      <trkpt lat="44.81577" lon="3.53686">
        <ele>1179.19</ele>
        <time>2024-10-30T13:42:29Z</time>
      </trkpt>
      <trkpt lat="44.81589" lon="3.53689">
        <ele>1179.67</ele>
        <time>2024-10-30T13:42:38Z</time>
      </trkpt>
      <trkpt lat="44.816" lon="3.53689">
        <ele>1182.08</ele>
        <time>2024-10-30T13:42:48Z</time>
      </trkpt>
      <trkpt lat="44.81615" lon="3.53683">
        <ele>1181.6</ele>
        <time>2024-10-30T13:42:57Z</time>
      </trkpt>
      <trkpt lat="44.81624" lon="3.53675">
        <ele>1181.6</ele>
        <time>2024-10-30T13:43:07Z</time>
      </trkpt>
      <trkpt lat="44.81629" lon="3.53669">
        <ele>1181.12</ele>
        <time>2024-10-30T13:43:17Z</time>
      </trkpt>
      <trkpt lat="44.81635" lon="3.53658">
        <ele>1180.16</ele>
        <time>2024-10-30T13:43:34Z</time>
      </trkpt>
      <trkpt lat="44.81645" lon="3.53638">
        <ele>1181.12</ele>
        <time>2024-10-30T13:43:49Z</time>
      </trkpt>
      <trkpt lat="44.81654" lon="3.53613">
        <ele>1184</ele>
        <time>2024-10-30T13:44:05Z</time>
      </trkpt>
      <trkpt lat="44.81659" lon="3.53603">
        <ele>1184</ele>
        <time>2024-10-30T13:44:16Z</time>
      </trkpt>
      <trkpt lat="44.81669" lon="3.5359">
        <ele>1184.96</ele>
        <time>2024-10-30T13:44:27Z</time>
      </trkpt>
      <trkpt lat="44.81676" lon="3.53571">
        <ele>1185.92</ele>
        <time>2024-10-30T13:44:39Z</time>
      </trkpt>
      <trkpt lat="44.81681" lon="3.53551">
        <ele>1186.4</ele>
        <time>2024-10-30T13:44:51Z</time>
      </trkpt>
      <trkpt lat="44.81687" lon="3.53534">
        <ele>1188.33</ele>
        <time>2024-10-30T13:45:04Z</time>
      </trkpt>
      <trkpt lat="44.81695" lon="3.53518">
        <ele>1190.25</ele>
        <time>2024-10-30T13:45:16Z</time>
      </trkpt>
      <trkpt lat="44.81697" lon="3.53511">
        <ele>1191.69</ele>
        <time>2024-10-30T13:45:22Z</time>
      </trkpt>
      <trkpt lat="44.81702" lon="3.53492">
        <ele>1194.09</ele>
        <time>2024-10-30T13:45:36Z</time>
      </trkpt>
      <trkpt lat="44.81705" lon="3.53472">
        <ele>1195.54</ele>
        <time>2024-10-30T13:45:49Z</time>
      </trkpt>
      <trkpt lat="44.81706" lon="3.53463">
        <ele>1195.54</ele>
        <time>2024-10-30T13:45:57Z</time>
      </trkpt>
      <trkpt lat="44.81708" lon="3.53446">
        <ele>1197.46</ele>
        <time>2024-10-30T13:46:10Z</time>
      </trkpt>
      <trkpt lat="44.81708" lon="3.53436">
        <ele>1199.86</ele>
        <time>2024-10-30T13:46:18Z</time>
      </trkpt>
      <trkpt lat="44.81707" lon="3.53427">
        <ele>1203.71</ele>
        <time>2024-10-30T13:46:26Z</time>
      </trkpt>
      <trkpt lat="44.81702" lon="3.53411">
        <ele>1207.55</ele>
        <time>2024-10-30T13:46:38Z</time>
      </trkpt>
      <trkpt lat="44.81701" lon="3.53404">
        <ele>1209</ele>
        <time>2024-10-30T13:46:44Z</time>
      </trkpt>
      <trkpt lat="44.81705" lon="3.53391">
        <ele>1210.44</ele>
        <time>2024-10-30T13:46:54Z</time>
      </trkpt>
      <trkpt lat="44.81711" lon="3.53379">
        <ele>1211.88</ele>
        <time>2024-10-30T13:47:05Z</time>
      </trkpt>
      <trkpt lat="44.8171" lon="3.53377">
        <ele>1211.88</ele>
        <time>2024-10-30T13:47:07Z</time>
      </trkpt>
      <trkpt lat="44.81708" lon="3.53361">
        <ele>1213.8</ele>
        <time>2024-10-30T13:47:18Z</time>
      </trkpt>
      <trkpt lat="44.81708" lon="3.53361">
        <ele>1213.8</ele>
        <time>2024-10-30T13:47:19Z</time>
      </trkpt>
      <trkpt lat="44.8171" lon="3.53341">
        <ele>1213.8</ele>
        <time>2024-10-30T13:47:29Z</time>
      </trkpt>
      <trkpt lat="44.81724" lon="3.53328">
        <ele>1212.84</ele>
        <time>2024-10-30T13:47:43Z</time>
      </trkpt>
      <trkpt lat="44.81734" lon="3.5332">
        <ele>1212.84</ele>
        <time>2024-10-30T13:47:52Z</time>
      </trkpt>
      <trkpt lat="44.81735" lon="3.53319">
        <ele>1212.84</ele>
        <time>2024-10-30T13:47:53Z</time>
      </trkpt>
      <trkpt lat="44.81736" lon="3.53317">
        <ele>1212.84</ele>
        <time>2024-10-30T13:47:54Z</time>
      </trkpt>
      <trkpt lat="44.81745" lon="3.53306">
        <ele>1213.32</ele>
        <time>2024-10-30T13:48:03Z</time>
      </trkpt>
      <trkpt lat="44.81757" lon="3.53298">
        <ele>1213.8</ele>
        <time>2024-10-30T13:48:13Z</time>
      </trkpt>
      <trkpt lat="44.8176" lon="3.53296">
        <ele>1210.92</ele>
        <time>2024-10-30T13:48:24Z</time>
      </trkpt>
      <trkpt lat="44.81759" lon="3.53297">
        <ele>1210.92</ele>
        <time>2024-10-30T13:48:25Z</time>
      </trkpt>
      <trkpt lat="44.81753" lon="3.53304">
        <ele>1211.4</ele>
        <time>2024-10-30T13:48:35Z</time>
      </trkpt>
      <trkpt lat="44.81743" lon="3.533">
        <ele>1211.4</ele>
        <time>2024-10-30T13:48:44Z</time>
      </trkpt>
      <trkpt lat="44.81741" lon="3.53294">
        <ele>1210.92</ele>
        <time>2024-10-30T13:48:50Z</time>
      </trkpt>
      <trkpt lat="44.81738" lon="3.53275">
        <ele>1209.96</ele>
        <time>2024-10-30T13:49:05Z</time>
      </trkpt>
      <trkpt lat="44.81735" lon="3.53255">
        <ele>1208.03</ele>
        <time>2024-10-30T13:49:18Z</time>
      </trkpt>
      <trkpt lat="44.81734" lon="3.53226">
        <ele>1209</ele>
        <time>2024-10-30T13:49:35Z</time>
      </trkpt>
      <trkpt lat="44.81731" lon="3.53193">
        <ele>1209.96</ele>
        <time>2024-10-30T13:49:53Z</time>
      </trkpt>
      <trkpt lat="44.81724" lon="3.53159">
        <ele>1209</ele>
        <time>2024-10-30T13:50:12Z</time>
      </trkpt>
      <trkpt lat="44.81713" lon="3.53139">
        <ele>1208.03</ele>
        <time>2024-10-30T13:50:28Z</time>
      </trkpt>
      <trkpt lat="44.81718" lon="3.53134">
        <ele>1209.48</ele>
        <time>2024-10-30T13:50:50Z</time>
      </trkpt>
      <trkpt lat="44.81715" lon="3.53126">
        <ele>1209.48</ele>
        <time>2024-10-30T13:50:57Z</time>
      </trkpt>
      <trkpt lat="44.81714" lon="3.53119">
        <ele>1209.96</ele>
        <time>2024-10-30T13:51:01Z</time>
      </trkpt>
      <trkpt lat="44.81703" lon="3.53095">
        <ele>1210.92</ele>
        <time>2024-10-30T13:51:19Z</time>
      </trkpt>
      <trkpt lat="44.81695" lon="3.53073">
        <ele>1210.44</ele>
        <time>2024-10-30T13:51:35Z</time>
      </trkpt>
      <trkpt lat="44.81683" lon="3.5306">
        <ele>1211.4</ele>
        <time>2024-10-30T13:51:48Z</time>
      </trkpt>
      <trkpt lat="44.8167" lon="3.53055">
        <ele>1211.4</ele>
        <time>2024-10-30T13:52:01Z</time>
      </trkpt>
      <trkpt lat="44.81663" lon="3.53049">
        <ele>1211.88</ele>
        <time>2024-10-30T13:52:08Z</time>
      </trkpt>
      <trkpt lat="44.8166" lon="3.53029">
        <ele>1212.84</ele>
        <time>2024-10-30T13:52:21Z</time>
      </trkpt>
      <trkpt lat="44.81661" lon="3.53028">
        <ele>1213.32</ele>
        <time>2024-10-30T13:52:22Z</time>
      </trkpt>
      <trkpt lat="44.81661" lon="3.53026">
        <ele>1213.32</ele>
        <time>2024-10-30T13:52:23Z</time>
      </trkpt>
      <trkpt lat="44.81664" lon="3.53009">
        <ele>1216.21</ele>
        <time>2024-10-30T13:52:36Z</time>
      </trkpt>
      <trkpt lat="44.81667" lon="3.52999">
        <ele>1216.69</ele>
        <time>2024-10-30T13:52:43Z</time>
      </trkpt>
      <trkpt lat="44.81675" lon="3.5298">
        <ele>1218.61</ele>
        <time>2024-10-30T13:52:56Z</time>
      </trkpt>
      <trkpt lat="44.81682" lon="3.52961">
        <ele>1221.49</ele>
        <time>2024-10-30T13:53:10Z</time>
      </trkpt>
      <trkpt lat="44.8169" lon="3.52943">
        <ele>1223.9</ele>
        <time>2024-10-30T13:53:24Z</time>
      </trkpt>
      <trkpt lat="44.81698" lon="3.52916">
        <ele>1225.34</ele>
        <time>2024-10-30T13:53:41Z</time>
      </trkpt>
      <trkpt lat="44.81706" lon="3.52891">
        <ele>1227.74</ele>
        <time>2024-10-30T13:53:57Z</time>
      </trkpt>
      <trkpt lat="44.81712" lon="3.52868">
        <ele>1228.7</ele>
        <time>2024-10-30T13:54:12Z</time>
      </trkpt>
      <trkpt lat="44.8172" lon="3.52847">
        <ele>1231.11</ele>
        <time>2024-10-30T13:54:27Z</time>
      </trkpt>
      <trkpt lat="44.81735" lon="3.52835">
        <ele>1231.11</ele>
        <time>2024-10-30T13:54:42Z</time>
      </trkpt>
      <trkpt lat="44.81752" lon="3.52824">
        <ele>1233.03</ele>
        <time>2024-10-30T13:54:57Z</time>
      </trkpt>
      <trkpt lat="44.81764" lon="3.52816">
        <ele>1233.51</ele>
        <time>2024-10-30T13:55:08Z</time>
      </trkpt>
      <trkpt lat="44.81784" lon="3.5282">
        <ele>1231.59</ele>
        <time>2024-10-30T13:55:24Z</time>
      </trkpt>
      <trkpt lat="44.81798" lon="3.52836">
        <ele>1230.62</ele>
        <time>2024-10-30T13:55:39Z</time>
      </trkpt>
      <trkpt lat="44.81809" lon="3.52856">
        <ele>1233.03</ele>
        <time>2024-10-30T13:55:54Z</time>
      </trkpt>
      <trkpt lat="44.81826" lon="3.52869">
        <ele>1235.91</ele>
        <time>2024-10-30T13:56:10Z</time>
      </trkpt>
      <trkpt lat="44.81828" lon="3.52868">
        <ele>1236.39</ele>
        <time>2024-10-30T13:56:11Z</time>
      </trkpt>
      <trkpt lat="44.81841" lon="3.52868">
        <ele>1239.76</ele>
        <time>2024-10-30T13:56:22Z</time>
      </trkpt>
      <trkpt lat="44.81855" lon="3.52864">
        <ele>1242.16</ele>
        <time>2024-10-30T13:56:32Z</time>
      </trkpt>
      <trkpt lat="44.81867" lon="3.52861">
        <ele>1244.56</ele>
        <time>2024-10-30T13:56:43Z</time>
      </trkpt>
      <trkpt lat="44.81883" lon="3.52855">
        <ele>1247.45</ele>
        <time>2024-10-30T13:56:55Z</time>
      </trkpt>
      <trkpt lat="44.81889" lon="3.52853">
        <ele>1247.93</ele>
        <time>2024-10-30T13:57:00Z</time>
      </trkpt>
      <trkpt lat="44.81903" lon="3.52851">
        <ele>1250.33</ele>
        <time>2024-10-30T13:57:12Z</time>
      </trkpt>
      <trkpt lat="44.81925" lon="3.52846">
        <ele>1251.29</ele>
        <time>2024-10-30T13:57:29Z</time>
      </trkpt>
      <trkpt lat="44.81943" lon="3.5283">
        <ele>1251.29</ele>
        <time>2024-10-30T13:57:45Z</time>
      </trkpt>
      <trkpt lat="44.81956" lon="3.52807">
        <ele>1252.74</ele>
        <time>2024-10-30T13:58:02Z</time>
      </trkpt>
      <trkpt lat="44.81972" lon="3.5279">
        <ele>1254.66</ele>
        <time>2024-10-30T13:58:18Z</time>
      </trkpt>
      <trkpt lat="44.81981" lon="3.52783">
        <ele>1256.58</ele>
        <time>2024-10-30T13:58:26Z</time>
      </trkpt>
      <trkpt lat="44.81983" lon="3.52782">
        <ele>1257.06</ele>
        <time>2024-10-30T13:58:27Z</time>
      </trkpt>
      <trkpt lat="44.82004" lon="3.52778">
        <ele>1259.46</ele>
        <time>2024-10-30T13:58:43Z</time>
      </trkpt>
      <trkpt lat="44.82023" lon="3.52772">
        <ele>1262.35</ele>
        <time>2024-10-30T13:58:58Z</time>
      </trkpt>
      <trkpt lat="44.82046" lon="3.52762">
        <ele>1265.71</ele>
        <time>2024-10-30T13:59:17Z</time>
      </trkpt>
      <trkpt lat="44.82062" lon="3.52752">
        <ele>1268.12</ele>
        <time>2024-10-30T13:59:30Z</time>
      </trkpt>
      <trkpt lat="44.82063" lon="3.52751">
        <ele>1268.12</ele>
        <time>2024-10-30T13:59:31Z</time>
      </trkpt>
      <trkpt lat="44.82064" lon="3.5275">
        <ele>1268.6</ele>
        <time>2024-10-30T13:59:32Z</time>
      </trkpt>
      <trkpt lat="44.82065" lon="3.52748">
        <ele>1268.6</ele>
        <time>2024-10-30T13:59:33Z</time>
      </trkpt>
      <trkpt lat="44.82066" lon="3.52747">
        <ele>1268.6</ele>
        <time>2024-10-30T13:59:34Z</time>
      </trkpt>
      <trkpt lat="44.82068" lon="3.52746">
        <ele>1268.6</ele>
        <time>2024-10-30T13:59:35Z</time>
      </trkpt>
      <trkpt lat="44.82069" lon="3.52744">
        <ele>1268.6</ele>
        <time>2024-10-30T13:59:36Z</time>
      </trkpt>
      <trkpt lat="44.82071" lon="3.52739">
        <ele>1268.6</ele>
        <time>2024-10-30T13:59:39Z</time>
      </trkpt>
      <trkpt lat="44.82072" lon="3.52738">
        <ele>1268.6</ele>
        <time>2024-10-30T13:59:40Z</time>
      </trkpt>
      <trkpt lat="44.82082" lon="3.52713">
        <ele>1271</ele>
        <time>2024-10-30T13:59:55Z</time>
      </trkpt>
      <trkpt lat="44.82091" lon="3.52685">
        <ele>1273.4</ele>
        <time>2024-10-30T14:00:14Z</time>
      </trkpt>
      <trkpt lat="44.82092" lon="3.52661">
        <ele>1274.85</ele>
        <time>2024-10-30T14:00:24Z</time>
      </trkpt>
      <trkpt lat="44.82092" lon="3.52659">
        <ele>1275.33</ele>
        <time>2024-10-30T14:00:25Z</time>
      </trkpt>
      <trkpt lat="44.82093" lon="3.52657">
        <ele>1275.33</ele>
        <time>2024-10-30T14:00:26Z</time>
      </trkpt>
      <trkpt lat="44.82093" lon="3.52655">
        <ele>1275.81</ele>
        <time>2024-10-30T14:00:27Z</time>
      </trkpt>
      <trkpt lat="44.82093" lon="3.52654">
        <ele>1275.81</ele>
        <time>2024-10-30T14:00:28Z</time>
      </trkpt>
      <trkpt lat="44.82094" lon="3.52651">
        <ele>1275.81</ele>
        <time>2024-10-30T14:00:29Z</time>
      </trkpt>
      <trkpt lat="44.82094" lon="3.52647">
        <ele>1276.29</ele>
        <time>2024-10-30T14:00:33Z</time>
      </trkpt>
      <trkpt lat="44.82094" lon="3.52644">
        <ele>1276.77</ele>
        <time>2024-10-30T14:00:34Z</time>
      </trkpt>
      <trkpt lat="44.82095" lon="3.52641">
        <ele>1276.77</ele>
        <time>2024-10-30T14:00:35Z</time>
      </trkpt>
      <trkpt lat="44.82095" lon="3.52639">
        <ele>1277.25</ele>
        <time>2024-10-30T14:00:36Z</time>
      </trkpt>
      <trkpt lat="44.82098" lon="3.52624">
        <ele>1279.65</ele>
        <time>2024-10-30T14:00:45Z</time>
      </trkpt>
      <trkpt lat="44.821" lon="3.52606">
        <ele>1283.02</ele>
        <time>2024-10-30T14:00:56Z</time>
      </trkpt>
      <trkpt lat="44.82102" lon="3.52594">
        <ele>1283.98</ele>
        <time>2024-10-30T14:01:03Z</time>
      </trkpt>
      <trkpt lat="44.82102" lon="3.52592">
        <ele>1283.98</ele>
        <time>2024-10-30T14:01:04Z</time>
      </trkpt>
      <trkpt lat="44.82103" lon="3.52569">
        <ele>1285.9</ele>
        <time>2024-10-30T14:01:17Z</time>
      </trkpt>
      <trkpt lat="44.82108" lon="3.52554">
        <ele>1287.82</ele>
        <time>2024-10-30T14:01:26Z</time>
      </trkpt>
      <trkpt lat="44.82111" lon="3.52537">
        <ele>1288.3</ele>
        <time>2024-10-30T14:01:35Z</time>
      </trkpt>
      <trkpt lat="44.82113" lon="3.52531">
        <ele>1288.3</ele>
        <time>2024-10-30T14:01:40Z</time>
      </trkpt>
      <trkpt lat="44.82114" lon="3.52528">
        <ele>1288.3</ele>
        <time>2024-10-30T14:01:41Z</time>
      </trkpt>
      <trkpt lat="44.82121" lon="3.52508">
        <ele>1288.3</ele>
        <time>2024-10-30T14:01:53Z</time>
      </trkpt>
      <trkpt lat="44.82125" lon="3.52494">
        <ele>1289.75</ele>
        <time>2024-10-30T14:02:01Z</time>
      </trkpt>
      <trkpt lat="44.82127" lon="3.52472">
        <ele>1290.71</ele>
        <time>2024-10-30T14:02:14Z</time>
      </trkpt>
      <trkpt lat="44.82128" lon="3.52464">
        <ele>1290.71</ele>
        <time>2024-10-30T14:02:18Z</time>
      </trkpt>
      <trkpt lat="44.8213" lon="3.52455">
        <ele>1290.71</ele>
        <time>2024-10-30T14:02:23Z</time>
      </trkpt>
      <trkpt lat="44.82131" lon="3.52453">
        <ele>1290.71</ele>
        <time>2024-10-30T14:02:24Z</time>
      </trkpt>
      <trkpt lat="44.82131" lon="3.52451">
        <ele>1290.71</ele>
        <time>2024-10-30T14:02:25Z</time>
      </trkpt>
      <trkpt lat="44.82132" lon="3.52432">
        <ele>1291.67</ele>
        <time>2024-10-30T14:02:36Z</time>
      </trkpt>
      <trkpt lat="44.8213" lon="3.52417">
        <ele>1293.59</ele>
        <time>2024-10-30T14:02:45Z</time>
      </trkpt>
      <trkpt lat="44.82128" lon="3.524">
        <ele>1294.07</ele>
        <time>2024-10-30T14:02:54Z</time>
      </trkpt>
      <trkpt lat="44.82127" lon="3.52398">
        <ele>1294.07</ele>
        <time>2024-10-30T14:02:55Z</time>
      </trkpt>
      <trkpt lat="44.82126" lon="3.52395">
        <ele>1294.55</ele>
        <time>2024-10-30T14:02:56Z</time>
      </trkpt>
      <trkpt lat="44.82122" lon="3.52374">
        <ele>1295.99</ele>
        <time>2024-10-30T14:03:07Z</time>
      </trkpt>
      <trkpt lat="44.8212" lon="3.52367">
        <ele>1296.48</ele>
        <time>2024-10-30T14:03:12Z</time>
      </trkpt>
      <trkpt lat="44.82119" lon="3.52365">
        <ele>1296.48</ele>
        <time>2024-10-30T14:03:13Z</time>
      </trkpt>
      <trkpt lat="44.82118" lon="3.52362">
        <ele>1296.48</ele>
        <time>2024-10-30T14:03:14Z</time>
      </trkpt>
      <trkpt lat="44.82114" lon="3.52356">
        <ele>1297.44</ele>
        <time>2024-10-30T14:03:20Z</time>
      </trkpt>
      <trkpt lat="44.82113" lon="3.52354">
        <ele>1297.44</ele>
        <time>2024-10-30T14:03:21Z</time>
      </trkpt>
      <trkpt lat="44.82111" lon="3.52353">
        <ele>1297.44</ele>
        <time>2024-10-30T14:03:22Z</time>
      </trkpt>
      <trkpt lat="44.82097" lon="3.52348">
        <ele>1297.44</ele>
        <time>2024-10-30T14:03:33Z</time>
      </trkpt>
      <trkpt lat="44.82086" lon="3.52349">
        <ele>1295.99</ele>
        <time>2024-10-30T14:03:44Z</time>
      </trkpt>
      <trkpt lat="44.82074" lon="3.52355">
        <ele>1297.44</ele>
        <time>2024-10-30T14:03:54Z</time>
      </trkpt>
      <trkpt lat="44.8206" lon="3.52361">
        <ele>1300.32</ele>
        <time>2024-10-30T14:04:06Z</time>
      </trkpt>
      <trkpt lat="44.82046" lon="3.52363">
        <ele>1303.69</ele>
        <time>2024-10-30T14:04:16Z</time>
      </trkpt>
      <trkpt lat="44.82027" lon="3.52355">
        <ele>1305.61</ele>
        <time>2024-10-30T14:04:29Z</time>
      </trkpt>
      <trkpt lat="44.82018" lon="3.52344">
        <ele>1305.13</ele>
        <time>2024-10-30T14:04:41Z</time>
      </trkpt>
      <trkpt lat="44.82008" lon="3.52326">
        <ele>1304.17</ele>
        <time>2024-10-30T14:04:52Z</time>
      </trkpt>
      <trkpt lat="44.81998" lon="3.52312">
        <ele>1304.17</ele>
        <time>2024-10-30T14:05:04Z</time>
      </trkpt>
      <trkpt lat="44.8199" lon="3.52297">
        <ele>1305.13</ele>
        <time>2024-10-30T14:05:14Z</time>
      </trkpt>
      <trkpt lat="44.81982" lon="3.5228">
        <ele>1306.57</ele>
        <time>2024-10-30T14:05:26Z</time>
      </trkpt>
      <trkpt lat="44.81976" lon="3.52268">
        <ele>1306.57</ele>
        <time>2024-10-30T14:05:36Z</time>
      </trkpt>
      <trkpt lat="44.81971" lon="3.52249">
        <ele>1308.01</ele>
        <time>2024-10-30T14:05:46Z</time>
      </trkpt>
      <trkpt lat="44.81971" lon="3.52243">
        <ele>1308.49</ele>
        <time>2024-10-30T14:05:51Z</time>
      </trkpt>
      <trkpt lat="44.8197" lon="3.52241">
        <ele>1308.97</ele>
        <time>2024-10-30T14:05:52Z</time>
      </trkpt>
      <trkpt lat="44.8197" lon="3.52238">
        <ele>1308.97</ele>
        <time>2024-10-30T14:05:53Z</time>
      </trkpt>
      <trkpt lat="44.81969" lon="3.52236">
        <ele>1308.97</ele>
        <time>2024-10-30T14:05:54Z</time>
      </trkpt>
      <trkpt lat="44.81968" lon="3.52221">
        <ele>1309.93</ele>
        <time>2024-10-30T14:06:04Z</time>
      </trkpt>
      <trkpt lat="44.81968" lon="3.52219">
        <ele>1310.41</ele>
        <time>2024-10-30T14:06:05Z</time>
      </trkpt>
      <trkpt lat="44.81967" lon="3.52218">
        <ele>1310.41</ele>
        <time>2024-10-30T14:06:06Z</time>
      </trkpt>
      <trkpt lat="44.81965" lon="3.52199">
        <ele>1312.34</ele>
        <time>2024-10-30T14:06:18Z</time>
      </trkpt>
      <trkpt lat="44.81968" lon="3.52181">
        <ele>1314.74</ele>
        <time>2024-10-30T14:06:29Z</time>
      </trkpt>
      <trkpt lat="44.81971" lon="3.52166">
        <ele>1316.18</ele>
        <time>2024-10-30T14:06:38Z</time>
      </trkpt>
      <trkpt lat="44.81974" lon="3.52144">
        <ele>1318.1</ele>
        <time>2024-10-30T14:06:51Z</time>
      </trkpt>
      <trkpt lat="44.81977" lon="3.52122">
        <ele>1319.55</ele>
        <time>2024-10-30T14:07:04Z</time>
      </trkpt>
      <trkpt lat="44.81981" lon="3.52107">
        <ele>1320.03</ele>
        <time>2024-10-30T14:07:13Z</time>
      </trkpt>
      <trkpt lat="44.81981" lon="3.52104">
        <ele>1320.51</ele>
        <time>2024-10-30T14:07:14Z</time>
      </trkpt>
      <trkpt lat="44.81981" lon="3.52102">
        <ele>1320.51</ele>
        <time>2024-10-30T14:07:15Z</time>
      </trkpt>
      <trkpt lat="44.81986" lon="3.52081">
        <ele>1320.99</ele>
        <time>2024-10-30T14:07:27Z</time>
      </trkpt>
      <trkpt lat="44.8199" lon="3.52062">
        <ele>1321.95</ele>
        <time>2024-10-30T14:07:39Z</time>
      </trkpt>
      <trkpt lat="44.82005" lon="3.52035">
        <ele>1322.43</ele>
        <time>2024-10-30T14:07:59Z</time>
      </trkpt>
      <trkpt lat="44.82022" lon="3.52009">
        <ele>1324.35</ele>
        <time>2024-10-30T14:08:20Z</time>
      </trkpt>
      <trkpt lat="44.8204" lon="3.51988">
        <ele>1325.8</ele>
        <time>2024-10-30T14:08:39Z</time>
      </trkpt>
      <trkpt lat="44.82056" lon="3.51965">
        <ele>1325.8</ele>
        <time>2024-10-30T14:08:56Z</time>
      </trkpt>
      <trkpt lat="44.82076" lon="3.51944">
        <ele>1327.72</ele>
        <time>2024-10-30T14:09:16Z</time>
      </trkpt>
      <trkpt lat="44.82091" lon="3.51921">
        <ele>1327.24</ele>
        <time>2024-10-30T14:09:32Z</time>
      </trkpt>
      <trkpt lat="44.82109" lon="3.519">
        <ele>1327.24</ele>
        <time>2024-10-30T14:09:50Z</time>
      </trkpt>
      <trkpt lat="44.82128" lon="3.51887">
        <ele>1324.83</ele>
        <time>2024-10-30T14:10:09Z</time>
      </trkpt>
      <trkpt lat="44.82154" lon="3.51877">
        <ele>1332.04</ele>
        <time>2024-10-30T14:10:28Z</time>
      </trkpt>
      <trkpt lat="44.82155" lon="3.51875">
        <ele>1332.52</ele>
        <time>2024-10-30T14:10:30Z</time>
      </trkpt>
      <trkpt lat="44.82173" lon="3.51866">
        <ele>1337.81</ele>
        <time>2024-10-30T14:10:46Z</time>
      </trkpt>
      <trkpt lat="44.8219" lon="3.5186">
        <ele>1340.22</ele>
        <time>2024-10-30T14:11:00Z</time>
      </trkpt>
      <trkpt lat="44.82204" lon="3.51855">
        <ele>1342.62</ele>
        <time>2024-10-30T14:11:11Z</time>
      </trkpt>
      <trkpt lat="44.82222" lon="3.51849">
        <ele>1345.98</ele>
        <time>2024-10-30T14:11:25Z</time>
      </trkpt>
      <trkpt lat="44.82237" lon="3.51843">
        <ele>1348.87</ele>
        <time>2024-10-30T14:11:37Z</time>
      </trkpt>
      <trkpt lat="44.82249" lon="3.51837">
        <ele>1350.79</ele>
        <time>2024-10-30T14:11:47Z</time>
      </trkpt>
      <trkpt lat="44.82261" lon="3.51827">
        <ele>1352.23</ele>
        <time>2024-10-30T14:11:59Z</time>
      </trkpt>
      <trkpt lat="44.82263" lon="3.51826">
        <ele>1352.23</ele>
        <time>2024-10-30T14:12:01Z</time>
      </trkpt>
      <trkpt lat="44.82265" lon="3.51824">
        <ele>1352.71</ele>
        <time>2024-10-30T14:12:03Z</time>
      </trkpt>
      <trkpt lat="44.82278" lon="3.51814">
        <ele>1353.67</ele>
        <time>2024-10-30T14:12:15Z</time>
      </trkpt>
      <trkpt lat="44.82292" lon="3.51807">
        <ele>1354.63</ele>
        <time>2024-10-30T14:12:27Z</time>
      </trkpt>
      <trkpt lat="44.82305" lon="3.51797">
        <ele>1355.6</ele>
        <time>2024-10-30T14:12:38Z</time>
      </trkpt>
      <trkpt lat="44.82318" lon="3.51786">
        <ele>1356.56</ele>
        <time>2024-10-30T14:12:49Z</time>
      </trkpt>
      <trkpt lat="44.82327" lon="3.5178">
        <ele>1357.04</ele>
        <time>2024-10-30T14:12:56Z</time>
      </trkpt>
      <trkpt lat="44.82328" lon="3.5178">
        <ele>1357.04</ele>
        <time>2024-10-30T14:12:57Z</time>
      </trkpt>
      <trkpt lat="44.82333" lon="3.51778">
        <ele>1358</ele>
        <time>2024-10-30T14:13:02Z</time>
      </trkpt>
      <trkpt lat="44.82334" lon="3.51776">
        <ele>1358.48</ele>
        <time>2024-10-30T14:13:03Z</time>
      </trkpt>
      <trkpt lat="44.82347" lon="3.51767">
        <ele>1360.4</ele>
        <time>2024-10-30T14:13:13Z</time>
      </trkpt>
      <trkpt lat="44.82358" lon="3.51754">
        <ele>1359.92</ele>
        <time>2024-10-30T14:13:22Z</time>
      </trkpt>
      <trkpt lat="44.82372" lon="3.51738">
        <ele>1357.04</ele>
        <time>2024-10-30T14:13:37Z</time>
      </trkpt>
      <trkpt lat="44.82376" lon="3.51734">
        <ele>1355.12</ele>
        <time>2024-10-30T14:13:51Z</time>
      </trkpt>
      <trkpt lat="44.82385" lon="3.51723">
        <ele>1354.63</ele>
        <time>2024-10-30T14:14:06Z</time>
      </trkpt>
      <trkpt lat="44.82393" lon="3.51713">
        <ele>1355.6</ele>
        <time>2024-10-30T14:14:20Z</time>
      </trkpt>
      <trkpt lat="44.82395" lon="3.51709">
        <ele>1355.6</ele>
        <time>2024-10-30T14:14:26Z</time>
      </trkpt>
      <trkpt lat="44.82397" lon="3.51708">
        <ele>1355.6</ele>
        <time>2024-10-30T14:14:27Z</time>
      </trkpt>
      <trkpt lat="44.82413" lon="3.51679">
        <ele>1354.63</ele>
        <time>2024-10-30T14:14:44Z</time>
      </trkpt>
      <trkpt lat="44.82423" lon="3.51663">
        <ele>1356.08</ele>
        <time>2024-10-30T14:14:59Z</time>
      </trkpt>
      <trkpt lat="44.82437" lon="3.51641">
        <ele>1356.08</ele>
        <time>2024-10-30T14:15:16Z</time>
      </trkpt>
      <trkpt lat="44.82448" lon="3.51613">
        <ele>1355.6</ele>
        <time>2024-10-30T14:15:35Z</time>
      </trkpt>
      <trkpt lat="44.82458" lon="3.51582">
        <ele>1356.56</ele>
        <time>2024-10-30T14:15:53Z</time>
      </trkpt>
      <trkpt lat="44.82459" lon="3.51576">
        <ele>1356.56</ele>
        <time>2024-10-30T14:15:56Z</time>
      </trkpt>
      <trkpt lat="44.82467" lon="3.51549">
        <ele>1357.52</ele>
        <time>2024-10-30T14:16:11Z</time>
      </trkpt>
      <trkpt lat="44.82472" lon="3.51522">
        <ele>1360.4</ele>
        <time>2024-10-30T14:16:29Z</time>
      </trkpt>
      <trkpt lat="44.82477" lon="3.51487">
        <ele>1360.4</ele>
        <time>2024-10-30T14:16:48Z</time>
      </trkpt>
      <trkpt lat="44.82481" lon="3.51457">
        <ele>1361.36</ele>
        <time>2024-10-30T14:17:06Z</time>
      </trkpt>
      <trkpt lat="44.82484" lon="3.51428">
        <ele>1366.17</ele>
        <time>2024-10-30T14:17:23Z</time>
      </trkpt>
      <trkpt lat="44.82485" lon="3.5139">
        <ele>1366.65</ele>
        <time>2024-10-30T14:17:42Z</time>
      </trkpt>
      <trkpt lat="44.82488" lon="3.51356">
        <ele>1367.13</ele>
        <time>2024-10-30T14:18:02Z</time>
      </trkpt>
      <trkpt lat="44.8249" lon="3.51345">
        <ele>1371.94</ele>
        <time>2024-10-30T14:18:25Z</time>
      </trkpt>
      <trkpt lat="44.82491" lon="3.51343">
        <ele>1374.82</ele>
        <time>2024-10-30T14:18:46Z</time>
      </trkpt>
      <trkpt lat="44.82485" lon="3.51333">
        <ele>1372.9</ele>
        <time>2024-10-30T14:19:11Z</time>
      </trkpt>
      <trkpt lat="44.82488" lon="3.51323">
        <ele>1373.86</ele>
        <time>2024-10-30T14:19:32Z</time>
      </trkpt>
      <trkpt lat="44.82489" lon="3.51304">
        <ele>1370.98</ele>
        <time>2024-10-30T14:19:47Z</time>
      </trkpt>
      <trkpt lat="44.82484" lon="3.51277">
        <ele>1365.69</ele>
        <time>2024-10-30T14:20:05Z</time>
      </trkpt>
      <trkpt lat="44.82475" lon="3.51251">
        <ele>1359.92</ele>
        <time>2024-10-30T14:20:20Z</time>
      </trkpt>
      <trkpt lat="44.82474" lon="3.5125">
        <ele>1359.44</ele>
        <time>2024-10-30T14:20:21Z</time>
      </trkpt>
      <trkpt lat="44.82462" lon="3.51224">
        <ele>1355.12</ele>
        <time>2024-10-30T14:20:37Z</time>
      </trkpt>
      <trkpt lat="44.82455" lon="3.51204">
        <ele>1352.23</ele>
        <time>2024-10-30T14:20:50Z</time>
      </trkpt>
      <trkpt lat="44.82454" lon="3.51196">
        <ele>1351.27</ele>
        <time>2024-10-30T14:20:54Z</time>
      </trkpt>
      <trkpt lat="44.82441" lon="3.51173">
        <ele>1348.39</ele>
        <time>2024-10-30T14:21:10Z</time>
      </trkpt>
      <trkpt lat="44.82427" lon="3.51149">
        <ele>1347.43</ele>
        <time>2024-10-30T14:21:25Z</time>
      </trkpt>
      <trkpt lat="44.82411" lon="3.51129">
        <ele>1347.43</ele>
        <time>2024-10-30T14:21:41Z</time>
      </trkpt>
      <trkpt lat="44.82395" lon="3.51109">
        <ele>1343.1</ele>
        <time>2024-10-30T14:21:56Z</time>
      </trkpt>
      <trkpt lat="44.82391" lon="3.51099">
        <ele>1341.66</ele>
        <time>2024-10-30T14:22:02Z</time>
      </trkpt>
      <trkpt lat="44.82391" lon="3.51097">
        <ele>1341.18</ele>
        <time>2024-10-30T14:22:03Z</time>
      </trkpt>
      <trkpt lat="44.8239" lon="3.51095">
        <ele>1341.18</ele>
        <time>2024-10-30T14:22:04Z</time>
      </trkpt>
      <trkpt lat="44.8238" lon="3.51069">
        <ele>1339.25</ele>
        <time>2024-10-30T14:22:19Z</time>
      </trkpt>
      <trkpt lat="44.82368" lon="3.51042">
        <ele>1338.29</ele>
        <time>2024-10-30T14:22:37Z</time>
      </trkpt>
      <trkpt lat="44.82361" lon="3.51016">
        <ele>1339.73</ele>
        <time>2024-10-30T14:22:50Z</time>
      </trkpt>
      <trkpt lat="44.82361" lon="3.51014">
        <ele>1340.22</ele>
        <time>2024-10-30T14:22:51Z</time>
      </trkpt>
      <trkpt lat="44.82361" lon="3.50988">
        <ele>1341.66</ele>
        <time>2024-10-30T14:23:05Z</time>
      </trkpt>
      <trkpt lat="44.82361" lon="3.50985">
        <ele>1341.66</ele>
        <time>2024-10-30T14:23:07Z</time>
      </trkpt>
      <trkpt lat="44.8237" lon="3.50956">
        <ele>1345.5</ele>
        <time>2024-10-30T14:23:22Z</time>
      </trkpt>
      <trkpt lat="44.82383" lon="3.50934">
        <ele>1348.87</ele>
        <time>2024-10-30T14:23:41Z</time>
      </trkpt>
      <trkpt lat="44.82398" lon="3.5091">
        <ele>1352.71</ele>
        <time>2024-10-30T14:23:59Z</time>
      </trkpt>
      <trkpt lat="44.82409" lon="3.50883">
        <ele>1355.12</ele>
        <time>2024-10-30T14:24:16Z</time>
      </trkpt>
      <trkpt lat="44.82422" lon="3.50855">
        <ele>1356.56</ele>
        <time>2024-10-30T14:24:34Z</time>
      </trkpt>
      <trkpt lat="44.82434" lon="3.5083">
        <ele>1358</ele>
        <time>2024-10-30T14:24:49Z</time>
      </trkpt>
      <trkpt lat="44.82444" lon="3.50803">
        <ele>1358.96</ele>
        <time>2024-10-30T14:25:08Z</time>
      </trkpt>
      <trkpt lat="44.82439" lon="3.50774">
        <ele>1358.48</ele>
        <time>2024-10-30T14:25:23Z</time>
      </trkpt>
      <trkpt lat="44.82431" lon="3.50748">
        <ele>1360.4</ele>
        <time>2024-10-30T14:25:40Z</time>
      </trkpt>
      <trkpt lat="44.82425" lon="3.50733">
        <ele>1362.81</ele>
        <time>2024-10-30T14:25:58Z</time>
      </trkpt>
      <trkpt lat="44.82426" lon="3.50709">
        <ele>1365.21</ele>
        <time>2024-10-30T14:26:15Z</time>
      </trkpt>
      <trkpt lat="44.82428" lon="3.50707">
        <ele>1366.65</ele>
        <time>2024-10-30T14:26:16Z</time>
      </trkpt>
      <trkpt lat="44.82432" lon="3.50699">
        <ele>1368.57</ele>
        <time>2024-10-30T14:26:21Z</time>
      </trkpt>
      <trkpt lat="44.82432" lon="3.50696">
        <ele>1369.05</ele>
        <time>2024-10-30T14:26:22Z</time>
      </trkpt>
      <trkpt lat="44.82431" lon="3.50691">
        <ele>1370.02</ele>
        <time>2024-10-30T14:26:37Z</time>
      </trkpt>
      <trkpt lat="44.82425" lon="3.5067">
        <ele>1370.98</ele>
        <time>2024-10-30T14:26:57Z</time>
      </trkpt>
      <trkpt lat="44.82421" lon="3.50639">
        <ele>1370.98</ele>
        <time>2024-10-30T14:27:20Z</time>
      </trkpt>
      <trkpt lat="44.82416" lon="3.50614">
        <ele>1370.98</ele>
        <time>2024-10-30T14:27:40Z</time>
      </trkpt>
      <trkpt lat="44.82417" lon="3.50581">
        <ele>1371.46</ele>
        <time>2024-10-30T14:27:59Z</time>
      </trkpt>
      <trkpt lat="44.82417" lon="3.50551">
        <ele>1370.02</ele>
        <time>2024-10-30T14:28:15Z</time>
      </trkpt>
      <trkpt lat="44.82416" lon="3.50549">
        <ele>1370.02</ele>
        <time>2024-10-30T14:28:16Z</time>
      </trkpt>
      <trkpt lat="44.82414" lon="3.50531">
        <ele>1370.98</ele>
        <time>2024-10-30T14:28:28Z</time>
      </trkpt>
      <trkpt lat="44.82414" lon="3.50529">
        <ele>1370.98</ele>
        <time>2024-10-30T14:28:29Z</time>
      </trkpt>
      <trkpt lat="44.82415" lon="3.50528">
        <ele>1370.98</ele>
        <time>2024-10-30T14:28:30Z</time>
      </trkpt>
      <trkpt lat="44.82421" lon="3.50517">
        <ele>1370.5</ele>
        <time>2024-10-30T14:28:42Z</time>
      </trkpt>
      <trkpt lat="44.82427" lon="3.50501">
        <ele>1371.46</ele>
        <time>2024-10-30T14:29:02Z</time>
      </trkpt>
      <trkpt lat="44.82444" lon="3.50475">
        <ele>1373.38</ele>
        <time>2024-10-30T14:29:24Z</time>
      </trkpt>
      <trkpt lat="44.82462" lon="3.5045">
        <ele>1375.78</ele>
        <time>2024-10-30T14:29:47Z</time>
      </trkpt>
      <trkpt lat="44.82489" lon="3.5044">
        <ele>1379.15</ele>
        <time>2024-10-30T14:30:10Z</time>
      </trkpt>
      <trkpt lat="44.82503" lon="3.50422">
        <ele>1375.78</ele>
        <time>2024-10-30T14:30:25Z</time>
      </trkpt>
      <trkpt lat="44.82511" lon="3.50406">
        <ele>1372.9</ele>
        <time>2024-10-30T14:30:39Z</time>
      </trkpt>
      <trkpt lat="44.82512" lon="3.50405">
        <ele>1372.9</ele>
        <time>2024-10-30T14:30:40Z</time>
      </trkpt>
      <trkpt lat="44.82527" lon="3.50393">
        <ele>1372.9</ele>
        <time>2024-10-30T14:30:56Z</time>
      </trkpt>
      <trkpt lat="44.82528" lon="3.5039">
        <ele>1373.38</ele>
        <time>2024-10-30T14:30:57Z</time>
      </trkpt>
      <trkpt lat="44.82536" lon="3.50378">
        <ele>1373.86</ele>
        <time>2024-10-30T14:31:07Z</time>
      </trkpt>
      <trkpt lat="44.82541" lon="3.50371">
        <ele>1374.34</ele>
        <time>2024-10-30T14:31:13Z</time>
      </trkpt>
      <trkpt lat="44.82545" lon="3.50363">
        <ele>1373.86</ele>
        <time>2024-10-30T14:31:19Z</time>
      </trkpt>
      <trkpt lat="44.82546" lon="3.50361">
        <ele>1373.38</ele>
        <time>2024-10-30T14:31:20Z</time>
      </trkpt>
      <trkpt lat="44.82548" lon="3.50359">
        <ele>1373.38</ele>
        <time>2024-10-30T14:31:21Z</time>
      </trkpt>
      <trkpt lat="44.82549" lon="3.50358">
        <ele>1373.38</ele>
        <time>2024-10-30T14:31:22Z</time>
      </trkpt>
      <trkpt lat="44.8255" lon="3.50357">
        <ele>1373.38</ele>
        <time>2024-10-30T14:31:23Z</time>
      </trkpt>
      <trkpt lat="44.82551" lon="3.50357">
        <ele>1373.38</ele>
        <time>2024-10-30T14:31:24Z</time>
      </trkpt>
      <trkpt lat="44.8256" lon="3.50345">
        <ele>1374.82</ele>
        <time>2024-10-30T14:31:33Z</time>
      </trkpt>
      <trkpt lat="44.82562" lon="3.50342">
        <ele>1375.3</ele>
        <time>2024-10-30T14:31:36Z</time>
      </trkpt>
      <trkpt lat="44.82563" lon="3.50339">
        <ele>1375.3</ele>
        <time>2024-10-30T14:31:37Z</time>
      </trkpt>
      <trkpt lat="44.82564" lon="3.50338">
        <ele>1375.3</ele>
        <time>2024-10-30T14:31:38Z</time>
      </trkpt>
      <trkpt lat="44.82567" lon="3.50335">
        <ele>1374.82</ele>
        <time>2024-10-30T14:31:50Z</time>
      </trkpt>
      <trkpt lat="44.82568" lon="3.50331">
        <ele>1374.82</ele>
        <time>2024-10-30T14:31:57Z</time>
      </trkpt>
      <trkpt lat="44.8257" lon="3.5033">
        <ele>1375.3</ele>
        <time>2024-10-30T14:31:58Z</time>
      </trkpt>
      <trkpt lat="44.82571" lon="3.50329">
        <ele>1375.3</ele>
        <time>2024-10-30T14:31:59Z</time>
      </trkpt>
      <trkpt lat="44.82582" lon="3.5032">
        <ele>1375.3</ele>
        <time>2024-10-30T14:32:08Z</time>
      </trkpt>
      <trkpt lat="44.82582" lon="3.50318">
        <ele>1374.82</ele>
        <time>2024-10-30T14:32:11Z</time>
      </trkpt>
      <trkpt lat="44.82584" lon="3.50316">
        <ele>1374.82</ele>
        <time>2024-10-30T14:32:12Z</time>
      </trkpt>
      <trkpt lat="44.82592" lon="3.50303">
        <ele>1374.82</ele>
        <time>2024-10-30T14:32:21Z</time>
      </trkpt>
      <trkpt lat="44.826" lon="3.50291">
        <ele>1374.82</ele>
        <time>2024-10-30T14:32:31Z</time>
      </trkpt>
      <trkpt lat="44.82609" lon="3.50279">
        <ele>1374.82</ele>
        <time>2024-10-30T14:32:41Z</time>
      </trkpt>
      <trkpt lat="44.8262" lon="3.50265">
        <ele>1375.3</ele>
        <time>2024-10-30T14:32:52Z</time>
      </trkpt>
      <trkpt lat="44.82627" lon="3.50253">
        <ele>1375.78</ele>
        <time>2024-10-30T14:33:02Z</time>
      </trkpt>
      <trkpt lat="44.82636" lon="3.50239">
        <ele>1377.23</ele>
        <time>2024-10-30T14:33:14Z</time>
      </trkpt>
      <trkpt lat="44.82642" lon="3.50232">
        <ele>1377.23</ele>
        <time>2024-10-30T14:33:19Z</time>
      </trkpt>
      <trkpt lat="44.82645" lon="3.50228">
        <ele>1377.23</ele>
        <time>2024-10-30T14:33:24Z</time>
      </trkpt>
      <trkpt lat="44.82646" lon="3.50226">
        <ele>1377.23</ele>
        <time>2024-10-30T14:33:25Z</time>
      </trkpt>
      <trkpt lat="44.82656" lon="3.50216">
        <ele>1377.71</ele>
        <time>2024-10-30T14:33:34Z</time>
      </trkpt>
      <trkpt lat="44.82657" lon="3.50214">
        <ele>1377.71</ele>
        <time>2024-10-30T14:33:35Z</time>
      </trkpt>
      <trkpt lat="44.82669" lon="3.50196">
        <ele>1376.26</ele>
        <time>2024-10-30T14:33:46Z</time>
      </trkpt>
      <trkpt lat="44.82679" lon="3.50181">
        <ele>1373.86</ele>
        <time>2024-10-30T14:33:56Z</time>
      </trkpt>
      <trkpt lat="44.82684" lon="3.50174">
        <ele>1371.94</ele>
        <time>2024-10-30T14:34:03Z</time>
      </trkpt>
      <trkpt lat="44.82685" lon="3.50172">
        <ele>1371.94</ele>
        <time>2024-10-30T14:34:04Z</time>
      </trkpt>
      <trkpt lat="44.82698" lon="3.50153">
        <ele>1371.94</ele>
        <time>2024-10-30T14:34:19Z</time>
      </trkpt>
      <trkpt lat="44.82713" lon="3.50131">
        <ele>1370.5</ele>
        <time>2024-10-30T14:34:35Z</time>
      </trkpt>
      <trkpt lat="44.82729" lon="3.50105">
        <ele>1370.98</ele>
        <time>2024-10-30T14:34:53Z</time>
      </trkpt>
      <trkpt lat="44.8273" lon="3.50104">
        <ele>1370.98</ele>
        <time>2024-10-30T14:34:54Z</time>
      </trkpt>
      <trkpt lat="44.82731" lon="3.50103">
        <ele>1370.98</ele>
        <time>2024-10-30T14:34:55Z</time>
      </trkpt>
      <trkpt lat="44.82746" lon="3.50089">
        <ele>1370.98</ele>
        <time>2024-10-30T14:35:07Z</time>
      </trkpt>
      <trkpt lat="44.82756" lon="3.50077">
        <ele>1370.98</ele>
        <time>2024-10-30T14:35:18Z</time>
      </trkpt>
      <trkpt lat="44.82771" lon="3.50058">
        <ele>1369.05</ele>
        <time>2024-10-30T14:35:35Z</time>
      </trkpt>
      <trkpt lat="44.8279" lon="3.50037">
        <ele>1369.05</ele>
        <time>2024-10-30T14:35:52Z</time>
      </trkpt>
      <trkpt lat="44.82807" lon="3.50021">
        <ele>1368.57</ele>
        <time>2024-10-30T14:36:07Z</time>
      </trkpt>
      <trkpt lat="44.8282" lon="3.50008">
        <ele>1368.57</ele>
        <time>2024-10-30T14:36:24Z</time>
      </trkpt>
      <trkpt lat="44.82826" lon="3.50004">
        <ele>1368.57</ele>
        <time>2024-10-30T14:36:46Z</time>
      </trkpt>
      <trkpt lat="44.82843" lon="3.49981">
        <ele>1369.05</ele>
        <time>2024-10-30T14:37:03Z</time>
      </trkpt>
      <trkpt lat="44.82862" lon="3.49963">
        <ele>1367.61</ele>
        <time>2024-10-30T14:37:21Z</time>
      </trkpt>
      <trkpt lat="44.82883" lon="3.49947">
        <ele>1366.17</ele>
        <time>2024-10-30T14:37:41Z</time>
      </trkpt>
      <trkpt lat="44.82885" lon="3.49945">
        <ele>1366.17</ele>
        <time>2024-10-30T14:37:42Z</time>
      </trkpt>
      <trkpt lat="44.82896" lon="3.49931">
        <ele>1365.21</ele>
        <time>2024-10-30T14:37:53Z</time>
      </trkpt>
      <trkpt lat="44.82896" lon="3.49935">
        <ele>1364.25</ele>
        <time>2024-10-30T14:38:11Z</time>
      </trkpt>
      <trkpt lat="44.82894" lon="3.49932">
        <ele>1364.25</ele>
        <time>2024-10-30T14:38:39Z</time>
      </trkpt>
      <trkpt lat="44.82909" lon="3.49927">
        <ele>1365.21</ele>
        <time>2024-10-30T14:38:50Z</time>
      </trkpt>
      <trkpt lat="44.8292" lon="3.49917">
        <ele>1364.25</ele>
        <time>2024-10-30T14:38:55Z</time>
      </trkpt>
      <trkpt lat="44.82948" lon="3.49886">
        <ele>1360.88</ele>
        <time>2024-10-30T14:39:12Z</time>
      </trkpt>
      <trkpt lat="44.82967" lon="3.49858">
        <ele>1362.33</ele>
        <time>2024-10-30T14:39:27Z</time>
      </trkpt>
      <trkpt lat="44.82983" lon="3.49816">
        <ele>1361.84</ele>
        <time>2024-10-30T14:39:43Z</time>
      </trkpt>
      <trkpt lat="44.82987" lon="3.49796">
        <ele>1357.04</ele>
        <time>2024-10-30T14:39:55Z</time>
      </trkpt>
      <trkpt lat="44.82992" lon="3.4978">
        <ele>1354.15</ele>
        <time>2024-10-30T14:40:11Z</time>
      </trkpt>
      <trkpt lat="44.82994" lon="3.49741">
        <ele>1351.75</ele>
        <time>2024-10-30T14:40:31Z</time>
      </trkpt>
      <trkpt lat="44.82995" lon="3.49733">
        <ele>1350.31</ele>
        <time>2024-10-30T14:40:35Z</time>
      </trkpt>
      <trkpt lat="44.82995" lon="3.4973">
        <ele>1350.31</ele>
        <time>2024-10-30T14:40:36Z</time>
      </trkpt>
      <trkpt lat="44.82995" lon="3.49728">
        <ele>1349.83</ele>
        <time>2024-10-30T14:40:37Z</time>
      </trkpt>
      <trkpt lat="44.82996" lon="3.49696">
        <ele>1346.94</ele>
        <time>2024-10-30T14:40:55Z</time>
      </trkpt>
      <trkpt lat="44.83" lon="3.49661">
        <ele>1342.14</ele>
        <time>2024-10-30T14:41:10Z</time>
      </trkpt>
      <trkpt lat="44.82997" lon="3.49659">
        <ele>1341.66</ele>
        <time>2024-10-30T14:41:11Z</time>
      </trkpt>
      <trkpt lat="44.82997" lon="3.49656">
        <ele>1341.18</ele>
        <time>2024-10-30T14:41:12Z</time>
      </trkpt>
      <trkpt lat="44.82996" lon="3.49654">
        <ele>1340.22</ele>
        <time>2024-10-30T14:41:13Z</time>
      </trkpt>
      <trkpt lat="44.82996" lon="3.49652">
        <ele>1339.25</ele>
        <time>2024-10-30T14:41:14Z</time>
      </trkpt>
      <trkpt lat="44.82998" lon="3.49639">
        <ele>1333.49</ele>
        <time>2024-10-30T14:41:27Z</time>
      </trkpt>
      <trkpt lat="44.83013" lon="3.49608">
        <ele>1326.76</ele>
        <time>2024-10-30T14:41:43Z</time>
      </trkpt>
      <trkpt lat="44.83019" lon="3.49599">
        <ele>1321.95</ele>
        <time>2024-10-30T14:41:58Z</time>
      </trkpt>
      <trkpt lat="44.83022" lon="3.49598">
        <ele>1320.99</ele>
        <time>2024-10-30T14:42:02Z</time>
      </trkpt>
      <trkpt lat="44.83023" lon="3.49597">
        <ele>1320.51</ele>
        <time>2024-10-30T14:42:03Z</time>
      </trkpt>
      <trkpt lat="44.83036" lon="3.49574">
        <ele>1313.3</ele>
        <time>2024-10-30T14:42:19Z</time>
      </trkpt>
      <trkpt lat="44.83054" lon="3.49556">
        <ele>1312.34</ele>
        <time>2024-10-30T14:42:31Z</time>
      </trkpt>
      <trkpt lat="44.83056" lon="3.49553">
        <ele>1312.34</ele>
        <time>2024-10-30T14:42:39Z</time>
      </trkpt>
      <trkpt lat="44.83067" lon="3.49536">
        <ele>1311.86</ele>
        <time>2024-10-30T14:42:49Z</time>
      </trkpt>
      <trkpt lat="44.83075" lon="3.49517">
        <ele>1309.45</ele>
        <time>2024-10-30T14:43:02Z</time>
      </trkpt>
      <trkpt lat="44.8308" lon="3.49503">
        <ele>1307.53</ele>
        <time>2024-10-30T14:43:14Z</time>
      </trkpt>
      <trkpt lat="44.8308" lon="3.495">
        <ele>1307.05</ele>
        <time>2024-10-30T14:43:15Z</time>
      </trkpt>
      <trkpt lat="44.83081" lon="3.49496">
        <ele>1307.05</ele>
        <time>2024-10-30T14:43:16Z</time>
      </trkpt>
      <trkpt lat="44.83081" lon="3.49493">
        <ele>1307.05</ele>
        <time>2024-10-30T14:43:17Z</time>
      </trkpt>
      <trkpt lat="44.83081" lon="3.49489">
        <ele>1307.05</ele>
        <time>2024-10-30T14:43:18Z</time>
      </trkpt>
      <trkpt lat="44.83086" lon="3.49452">
        <ele>1304.65</ele>
        <time>2024-10-30T14:43:35Z</time>
      </trkpt>
      <trkpt lat="44.83087" lon="3.49416">
        <ele>1302.72</ele>
        <time>2024-10-30T14:43:52Z</time>
      </trkpt>
      <trkpt lat="44.83082" lon="3.49382">
        <ele>1300.8</ele>
        <time>2024-10-30T14:44:09Z</time>
      </trkpt>
      <trkpt lat="44.83067" lon="3.4935">
        <ele>1299.36</ele>
        <time>2024-10-30T14:44:29Z</time>
      </trkpt>
      <trkpt lat="44.83051" lon="3.49321">
        <ele>1298.4</ele>
        <time>2024-10-30T14:44:47Z</time>
      </trkpt>
      <trkpt lat="44.83037" lon="3.49287">
        <ele>1297.44</ele>
        <time>2024-10-30T14:45:06Z</time>
      </trkpt>
      <trkpt lat="44.83029" lon="3.49261">
        <ele>1296.96</ele>
        <time>2024-10-30T14:45:22Z</time>
      </trkpt>
      <trkpt lat="44.83019" lon="3.49228">
        <ele>1295.51</ele>
        <time>2024-10-30T14:45:41Z</time>
      </trkpt>
      <trkpt lat="44.83016" lon="3.4922">
        <ele>1295.03</ele>
        <time>2024-10-30T14:45:52Z</time>
      </trkpt>
      <trkpt lat="44.83015" lon="3.49218">
        <ele>1295.03</ele>
        <time>2024-10-30T14:45:53Z</time>
      </trkpt>
      <trkpt lat="44.83002" lon="3.49192">
        <ele>1293.59</ele>
        <time>2024-10-30T14:46:08Z</time>
      </trkpt>
      <trkpt lat="44.82988" lon="3.49166">
        <ele>1293.11</ele>
        <time>2024-10-30T14:46:23Z</time>
      </trkpt>
      <trkpt lat="44.82973" lon="3.49152">
        <ele>1293.11</ele>
        <time>2024-10-30T14:46:36Z</time>
      </trkpt>
      <trkpt lat="44.82962" lon="3.49142">
        <ele>1291.19</ele>
        <time>2024-10-30T14:46:45Z</time>
      </trkpt>
      <trkpt lat="44.82948" lon="3.4913">
        <ele>1289.27</ele>
        <time>2024-10-30T14:46:59Z</time>
      </trkpt>
      <trkpt lat="44.82928" lon="3.49115">
        <ele>1286.38</ele>
        <time>2024-10-30T14:47:13Z</time>
      </trkpt>
      <trkpt lat="44.82904" lon="3.49107">
        <ele>1283.5</ele>
        <time>2024-10-30T14:47:25Z</time>
      </trkpt>
      <trkpt lat="44.8288" lon="3.491">
        <ele>1283.02</ele>
        <time>2024-10-30T14:47:45Z</time>
      </trkpt>
      <trkpt lat="44.82864" lon="3.49093">
        <ele>1281.57</ele>
        <time>2024-10-30T14:47:57Z</time>
      </trkpt>
      <trkpt lat="44.82846" lon="3.49084">
        <ele>1279.65</ele>
        <time>2024-10-30T14:48:12Z</time>
      </trkpt>
      <trkpt lat="44.8283" lon="3.49077">
        <ele>1279.17</ele>
        <time>2024-10-30T14:48:23Z</time>
      </trkpt>
      <trkpt lat="44.82816" lon="3.4907">
        <ele>1279.17</ele>
        <time>2024-10-30T14:48:33Z</time>
      </trkpt>
      <trkpt lat="44.82806" lon="3.49064">
        <ele>1279.65</ele>
        <time>2024-10-30T14:48:42Z</time>
      </trkpt>
      <trkpt lat="44.82795" lon="3.49062">
        <ele>1280.13</ele>
        <time>2024-10-30T14:48:51Z</time>
      </trkpt>
      <trkpt lat="44.82785" lon="3.49065">
        <ele>1280.13</ele>
        <time>2024-10-30T14:49:00Z</time>
      </trkpt>
      <trkpt lat="44.82776" lon="3.49072">
        <ele>1280.13</ele>
        <time>2024-10-30T14:49:10Z</time>
      </trkpt>
      <trkpt lat="44.82766" lon="3.49081">
        <ele>1281.09</ele>
        <time>2024-10-30T14:49:18Z</time>
      </trkpt>
      <trkpt lat="44.82764" lon="3.49083">
        <ele>1281.09</ele>
        <time>2024-10-30T14:49:19Z</time>
      </trkpt>
      <trkpt lat="44.8275" lon="3.49096">
        <ele>1283.98</ele>
        <time>2024-10-30T14:49:30Z</time>
      </trkpt>
      <trkpt lat="44.82738" lon="3.49107">
        <ele>1285.42</ele>
        <time>2024-10-30T14:49:41Z</time>
      </trkpt>
      <trkpt lat="44.82726" lon="3.49117">
        <ele>1286.38</ele>
        <time>2024-10-30T14:49:51Z</time>
      </trkpt>
      <trkpt lat="44.82713" lon="3.49123">
        <ele>1287.34</ele>
        <time>2024-10-30T14:50:00Z</time>
      </trkpt>
      <trkpt lat="44.82697" lon="3.49119">
        <ele>1289.27</ele>
        <time>2024-10-30T14:50:10Z</time>
      </trkpt>
      <trkpt lat="44.82688" lon="3.49116">
        <ele>1290.23</ele>
        <time>2024-10-30T14:50:20Z</time>
      </trkpt>
      <trkpt lat="44.82668" lon="3.49111">
        <ele>1291.19</ele>
        <time>2024-10-30T14:50:33Z</time>
      </trkpt>
      <trkpt lat="44.82639" lon="3.49102">
        <ele>1292.63</ele>
        <time>2024-10-30T14:50:56Z</time>
      </trkpt>
      <trkpt lat="44.82611" lon="3.49089">
        <ele>1291.19</ele>
        <time>2024-10-30T14:51:16Z</time>
      </trkpt>
      <trkpt lat="44.82599" lon="3.4908">
        <ele>1288.78</ele>
        <time>2024-10-30T14:51:26Z</time>
      </trkpt>
      <trkpt lat="44.82584" lon="3.49072">
        <ele>1287.82</ele>
        <time>2024-10-30T14:51:37Z</time>
      </trkpt>
      <trkpt lat="44.82569" lon="3.49064">
        <ele>1287.34</ele>
        <time>2024-10-30T14:51:47Z</time>
      </trkpt>
      <trkpt lat="44.82557" lon="3.49057">
        <ele>1287.34</ele>
        <time>2024-10-30T14:51:58Z</time>
      </trkpt>
      <trkpt lat="44.82541" lon="3.49047">
        <ele>1288.78</ele>
        <time>2024-10-30T14:52:08Z</time>
      </trkpt>
      <trkpt lat="44.82526" lon="3.49038">
        <ele>1289.27</ele>
        <time>2024-10-30T14:52:18Z</time>
      </trkpt>
      <trkpt lat="44.82514" lon="3.49032">
        <ele>1287.82</ele>
        <time>2024-10-30T14:52:28Z</time>
      </trkpt>
      <trkpt lat="44.82502" lon="3.49027">
        <ele>1287.82</ele>
        <time>2024-10-30T14:52:39Z</time>
      </trkpt>
      <trkpt lat="44.82489" lon="3.49015">
        <ele>1284.94</ele>
        <time>2024-10-30T14:52:50Z</time>
      </trkpt>
      <trkpt lat="44.82476" lon="3.48988">
        <ele>1284.46</ele>
        <time>2024-10-30T14:53:03Z</time>
      </trkpt>
      <trkpt lat="44.82469" lon="3.48969">
        <ele>1283.98</ele>
        <time>2024-10-30T14:53:16Z</time>
      </trkpt>
      <trkpt lat="44.82459" lon="3.48943">
        <ele>1282.06</ele>
        <time>2024-10-30T14:53:29Z</time>
      </trkpt>
      <trkpt lat="44.82452" lon="3.48917">
        <ele>1282.54</ele>
        <time>2024-10-30T14:53:42Z</time>
      </trkpt>
      <trkpt lat="44.82453" lon="3.48914">
        <ele>1283.02</ele>
        <time>2024-10-30T14:53:44Z</time>
      </trkpt>
      <trkpt lat="44.82453" lon="3.48912">
        <ele>1283.02</ele>
        <time>2024-10-30T14:53:45Z</time>
      </trkpt>
      <trkpt lat="44.82453" lon="3.4889">
        <ele>1283.98</ele>
        <time>2024-10-30T14:53:56Z</time>
      </trkpt>
      <trkpt lat="44.82453" lon="3.48864">
        <ele>1284.94</ele>
        <time>2024-10-30T14:54:08Z</time>
      </trkpt>
      <trkpt lat="44.82452" lon="3.48837">
        <ele>1286.86</ele>
        <time>2024-10-30T14:54:20Z</time>
      </trkpt>
      <trkpt lat="44.82451" lon="3.48812">
        <ele>1287.82</ele>
        <time>2024-10-30T14:54:33Z</time>
      </trkpt>
      <trkpt lat="44.82452" lon="3.48788">
        <ele>1288.78</ele>
        <time>2024-10-30T14:54:48Z</time>
      </trkpt>
      <trkpt lat="44.82449" lon="3.48772">
        <ele>1289.27</ele>
        <time>2024-10-30T14:55:05Z</time>
      </trkpt>
      <trkpt lat="44.8245" lon="3.48769">
        <ele>1289.27</ele>
        <time>2024-10-30T14:55:12Z</time>
      </trkpt>
      <trkpt lat="44.82446" lon="3.48757">
        <ele>1288.3</ele>
        <time>2024-10-30T14:55:25Z</time>
      </trkpt>
    </trkseg>
  </trk>
</gpx>